<?xml version="1.0" encoding="UTF-8" standalone="no" ?>
<gpx xmlns="http://www.topografix.com/GPX/1/1" xmlns:xsi="http://www.w3.org/2001/XMLSchema-instance" xsi:schemaLocation="http://www.topografix.com/GPX/1/1 http://www.topografix.com/GPX/1/1/gpx.xsd" version="1.1" creator="VisuGPX - https://www.visugpx.com">
  <metadata>
    <name>Entzheim-Geispolsheim-Hattisheim-Innenheim-Blesheim-Entzheim</name>
    <desc><![CDATA[Notre chemin de croix]]></desc>
  </metadata>
  <trk>
    <name><![CDATA[Hiking 3/30/13 1:27 pm]]></name>
    <trkseg>
      <trkpt lat="48.53193" lon="7.64139">
        <ele>148</ele>
        <time>2013-03-30T13:27:14Z</time>
      </trkpt>
      <trkpt lat="48.53197" lon="7.64154">
        <ele>148</ele>
        <time>2013-03-30T13:27:29Z</time>
      </trkpt>
      <trkpt lat="48.53196" lon="7.64148">
        <ele>148</ele>
        <time>2013-03-30T13:27:39Z</time>
      </trkpt>
      <trkpt lat="48.53192" lon="7.64142">
        <ele>148</ele>
        <time>2013-03-30T13:28:17Z</time>
      </trkpt>
      <trkpt lat="48.53195" lon="7.64141">
        <ele>148</ele>
        <time>2013-03-30T13:28:27Z</time>
      </trkpt>
      <trkpt lat="48.53193" lon="7.64153">
        <ele>148</ele>
        <time>2013-03-30T13:28:49Z</time>
      </trkpt>
      <trkpt lat="48.53192" lon="7.64154">
        <ele>148</ele>
        <time>2013-03-30T13:28:51Z</time>
      </trkpt>
      <trkpt lat="48.53173" lon="7.64155">
        <ele>148</ele>
        <time>2013-03-30T13:29:23Z</time>
      </trkpt>
      <trkpt lat="48.53164" lon="7.64153">
        <ele>148</ele>
        <time>2013-03-30T13:29:34Z</time>
      </trkpt>
      <trkpt lat="48.53154" lon="7.64149">
        <ele>148</ele>
        <time>2013-03-30T13:29:42Z</time>
      </trkpt>
      <trkpt lat="48.53154" lon="7.64164">
        <ele>148</ele>
        <time>2013-03-30T13:30:01Z</time>
      </trkpt>
      <trkpt lat="48.53154" lon="7.64178">
        <ele>148</ele>
        <time>2013-03-30T13:30:12Z</time>
      </trkpt>
      <trkpt lat="48.53151" lon="7.64192">
        <ele>148</ele>
        <time>2013-03-30T13:30:19Z</time>
      </trkpt>
      <trkpt lat="48.53148" lon="7.64207">
        <ele>148</ele>
        <time>2013-03-30T13:30:27Z</time>
      </trkpt>
      <trkpt lat="48.53146" lon="7.64221">
        <ele>148</ele>
        <time>2013-03-30T13:30:34Z</time>
      </trkpt>
      <trkpt lat="48.53143" lon="7.64235">
        <ele>147.9</ele>
        <time>2013-03-30T13:30:42Z</time>
      </trkpt>
      <trkpt lat="48.53141" lon="7.64249">
        <ele>147.8</ele>
        <time>2013-03-30T13:30:50Z</time>
      </trkpt>
      <trkpt lat="48.53139" lon="7.64264">
        <ele>147.7</ele>
        <time>2013-03-30T13:30:58Z</time>
      </trkpt>
      <trkpt lat="48.53136" lon="7.64277">
        <ele>147.6</ele>
        <time>2013-03-30T13:31:03Z</time>
      </trkpt>
      <trkpt lat="48.53133" lon="7.64292">
        <ele>147.5</ele>
        <time>2013-03-30T13:31:11Z</time>
      </trkpt>
      <trkpt lat="48.53131" lon="7.64305">
        <ele>147.5</ele>
        <time>2013-03-30T13:31:20Z</time>
      </trkpt>
      <trkpt lat="48.53131" lon="7.64319">
        <ele>147.5</ele>
        <time>2013-03-30T13:31:30Z</time>
      </trkpt>
      <trkpt lat="48.53129" lon="7.64334">
        <ele>147.5</ele>
        <time>2013-03-30T13:31:39Z</time>
      </trkpt>
      <trkpt lat="48.53129" lon="7.64349">
        <ele>147.5</ele>
        <time>2013-03-30T13:31:47Z</time>
      </trkpt>
      <trkpt lat="48.53126" lon="7.64363">
        <ele>147.5</ele>
        <time>2013-03-30T13:31:53Z</time>
      </trkpt>
      <trkpt lat="48.53124" lon="7.64378">
        <ele>147.5</ele>
        <time>2013-03-30T13:31:59Z</time>
      </trkpt>
      <trkpt lat="48.53116" lon="7.64387">
        <ele>147.5</ele>
        <time>2013-03-30T13:32:07Z</time>
      </trkpt>
      <trkpt lat="48.53106" lon="7.64388">
        <ele>147.6</ele>
        <time>2013-03-30T13:32:16Z</time>
      </trkpt>
      <trkpt lat="48.53096" lon="7.64386">
        <ele>147.7</ele>
        <time>2013-03-30T13:32:22Z</time>
      </trkpt>
      <trkpt lat="48.53086" lon="7.64385">
        <ele>147.8</ele>
        <time>2013-03-30T13:32:28Z</time>
      </trkpt>
      <trkpt lat="48.53076" lon="7.64384">
        <ele>148</ele>
        <time>2013-03-30T13:32:36Z</time>
      </trkpt>
      <trkpt lat="48.53066" lon="7.64383">
        <ele>148</ele>
        <time>2013-03-30T13:32:45Z</time>
      </trkpt>
      <trkpt lat="48.53057" lon="7.64381">
        <ele>148</ele>
        <time>2013-03-30T13:32:54Z</time>
      </trkpt>
      <trkpt lat="48.53047" lon="7.6438">
        <ele>148</ele>
        <time>2013-03-30T13:33:04Z</time>
      </trkpt>
      <trkpt lat="48.53038" lon="7.64379">
        <ele>148</ele>
        <time>2013-03-30T13:33:11Z</time>
      </trkpt>
      <trkpt lat="48.53029" lon="7.64383">
        <ele>148</ele>
        <time>2013-03-30T13:33:17Z</time>
      </trkpt>
      <trkpt lat="48.53019" lon="7.6438">
        <ele>148</ele>
        <time>2013-03-30T13:33:24Z</time>
      </trkpt>
      <trkpt lat="48.5301" lon="7.64377">
        <ele>147.6</ele>
        <time>2013-03-30T13:33:31Z</time>
      </trkpt>
      <trkpt lat="48.53" lon="7.6438">
        <ele>147.3</ele>
        <time>2013-03-30T13:33:42Z</time>
      </trkpt>
      <trkpt lat="48.5299" lon="7.64379">
        <ele>146.9</ele>
        <time>2013-03-30T13:33:50Z</time>
      </trkpt>
      <trkpt lat="48.5298" lon="7.64381">
        <ele>146.5</ele>
        <time>2013-03-30T13:33:58Z</time>
      </trkpt>
      <trkpt lat="48.52969" lon="7.64381">
        <ele>146.2</ele>
        <time>2013-03-30T13:34:05Z</time>
      </trkpt>
      <trkpt lat="48.5296" lon="7.64382">
        <ele>145.8</ele>
        <time>2013-03-30T13:34:12Z</time>
      </trkpt>
      <trkpt lat="48.5295" lon="7.64383">
        <ele>145.5</ele>
        <time>2013-03-30T13:34:18Z</time>
      </trkpt>
      <trkpt lat="48.52941" lon="7.64386">
        <ele>145.1</ele>
        <time>2013-03-30T13:34:28Z</time>
      </trkpt>
      <trkpt lat="48.52931" lon="7.64387">
        <ele>144.7</ele>
        <time>2013-03-30T13:34:36Z</time>
      </trkpt>
      <trkpt lat="48.52921" lon="7.64389">
        <ele>144.5</ele>
        <time>2013-03-30T13:34:46Z</time>
      </trkpt>
      <trkpt lat="48.52912" lon="7.64392">
        <ele>144.2</ele>
        <time>2013-03-30T13:34:53Z</time>
      </trkpt>
      <trkpt lat="48.52903" lon="7.64396">
        <ele>144.3</ele>
        <time>2013-03-30T13:35:00Z</time>
      </trkpt>
      <trkpt lat="48.52894" lon="7.64395">
        <ele>144.4</ele>
        <time>2013-03-30T13:35:07Z</time>
      </trkpt>
      <trkpt lat="48.52885" lon="7.64397">
        <ele>144.5</ele>
        <time>2013-03-30T13:35:16Z</time>
      </trkpt>
      <trkpt lat="48.52875" lon="7.644">
        <ele>144.5</ele>
        <time>2013-03-30T13:35:26Z</time>
      </trkpt>
      <trkpt lat="48.52866" lon="7.64402">
        <ele>144.6</ele>
        <time>2013-03-30T13:35:34Z</time>
      </trkpt>
      <trkpt lat="48.52856" lon="7.64403">
        <ele>144.7</ele>
        <time>2013-03-30T13:35:41Z</time>
      </trkpt>
      <trkpt lat="48.52847" lon="7.64404">
        <ele>144.8</ele>
        <time>2013-03-30T13:35:48Z</time>
      </trkpt>
      <trkpt lat="48.52837" lon="7.64406">
        <ele>145.3</ele>
        <time>2013-03-30T13:35:57Z</time>
      </trkpt>
      <trkpt lat="48.52827" lon="7.64406">
        <ele>145.7</ele>
        <time>2013-03-30T13:36:04Z</time>
      </trkpt>
      <trkpt lat="48.52818" lon="7.64407">
        <ele>146.1</ele>
        <time>2013-03-30T13:36:12Z</time>
      </trkpt>
      <trkpt lat="48.52809" lon="7.64409">
        <ele>146.5</ele>
        <time>2013-03-30T13:36:20Z</time>
      </trkpt>
      <trkpt lat="48.528" lon="7.64412">
        <ele>146.8</ele>
        <time>2013-03-30T13:36:27Z</time>
      </trkpt>
      <trkpt lat="48.52791" lon="7.64412">
        <ele>147.2</ele>
        <time>2013-03-30T13:36:35Z</time>
      </trkpt>
      <trkpt lat="48.52781" lon="7.64415">
        <ele>147.5</ele>
        <time>2013-03-30T13:36:43Z</time>
      </trkpt>
      <trkpt lat="48.52772" lon="7.64416">
        <ele>147.9</ele>
        <time>2013-03-30T13:36:51Z</time>
      </trkpt>
      <trkpt lat="48.52762" lon="7.64418">
        <ele>148.3</ele>
        <time>2013-03-30T13:36:59Z</time>
      </trkpt>
      <trkpt lat="48.52752" lon="7.64418">
        <ele>148.7</ele>
        <time>2013-03-30T13:37:07Z</time>
      </trkpt>
      <trkpt lat="48.52743" lon="7.64422">
        <ele>149.2</ele>
        <time>2013-03-30T13:37:16Z</time>
      </trkpt>
      <trkpt lat="48.52733" lon="7.64423">
        <ele>149.3</ele>
        <time>2013-03-30T13:37:22Z</time>
      </trkpt>
      <trkpt lat="48.52723" lon="7.64424">
        <ele>149.4</ele>
        <time>2013-03-30T13:37:30Z</time>
      </trkpt>
      <trkpt lat="48.52713" lon="7.64426">
        <ele>149.5</ele>
        <time>2013-03-30T13:37:38Z</time>
      </trkpt>
      <trkpt lat="48.52704" lon="7.64429">
        <ele>149.5</ele>
        <time>2013-03-30T13:37:46Z</time>
      </trkpt>
      <trkpt lat="48.52695" lon="7.64431">
        <ele>149.6</ele>
        <time>2013-03-30T13:37:54Z</time>
      </trkpt>
      <trkpt lat="48.52685" lon="7.64433">
        <ele>149.7</ele>
        <time>2013-03-30T13:38:00Z</time>
      </trkpt>
      <trkpt lat="48.52676" lon="7.64434">
        <ele>149.8</ele>
        <time>2013-03-30T13:38:09Z</time>
      </trkpt>
      <trkpt lat="48.52667" lon="7.64435">
        <ele>150.1</ele>
        <time>2013-03-30T13:38:16Z</time>
      </trkpt>
      <trkpt lat="48.52657" lon="7.64437">
        <ele>150.4</ele>
        <time>2013-03-30T13:38:26Z</time>
      </trkpt>
      <trkpt lat="48.52648" lon="7.6444">
        <ele>150.5</ele>
        <time>2013-03-30T13:38:34Z</time>
      </trkpt>
      <trkpt lat="48.52638" lon="7.64441">
        <ele>150.7</ele>
        <time>2013-03-30T13:38:41Z</time>
      </trkpt>
      <trkpt lat="48.52629" lon="7.64444">
        <ele>150.9</ele>
        <time>2013-03-30T13:38:50Z</time>
      </trkpt>
      <trkpt lat="48.52619" lon="7.64444">
        <ele>151.1</ele>
        <time>2013-03-30T13:38:57Z</time>
      </trkpt>
      <trkpt lat="48.5261" lon="7.64446">
        <ele>151.3</ele>
        <time>2013-03-30T13:39:04Z</time>
      </trkpt>
      <trkpt lat="48.526" lon="7.64446">
        <ele>151.5</ele>
        <time>2013-03-30T13:39:12Z</time>
      </trkpt>
      <trkpt lat="48.52591" lon="7.64449">
        <ele>151.5</ele>
        <time>2013-03-30T13:39:20Z</time>
      </trkpt>
      <trkpt lat="48.52582" lon="7.6445">
        <ele>151.6</ele>
        <time>2013-03-30T13:39:26Z</time>
      </trkpt>
      <trkpt lat="48.52572" lon="7.64451">
        <ele>151.7</ele>
        <time>2013-03-30T13:39:32Z</time>
      </trkpt>
      <trkpt lat="48.52563" lon="7.64453">
        <ele>151.6</ele>
        <time>2013-03-30T13:39:40Z</time>
      </trkpt>
      <trkpt lat="48.52554" lon="7.64457">
        <ele>151.5</ele>
        <time>2013-03-30T13:39:48Z</time>
      </trkpt>
      <trkpt lat="48.52545" lon="7.64459">
        <ele>151.5</ele>
        <time>2013-03-30T13:39:55Z</time>
      </trkpt>
      <trkpt lat="48.52535" lon="7.64461">
        <ele>151.4</ele>
        <time>2013-03-30T13:40:04Z</time>
      </trkpt>
      <trkpt lat="48.52526" lon="7.64464">
        <ele>151.3</ele>
        <time>2013-03-30T13:40:10Z</time>
      </trkpt>
      <trkpt lat="48.52518" lon="7.64471">
        <ele>151.2</ele>
        <time>2013-03-30T13:40:18Z</time>
      </trkpt>
      <trkpt lat="48.52509" lon="7.64475">
        <ele>151.1</ele>
        <time>2013-03-30T13:40:27Z</time>
      </trkpt>
      <trkpt lat="48.525" lon="7.6448">
        <ele>150.8</ele>
        <time>2013-03-30T13:40:35Z</time>
      </trkpt>
      <trkpt lat="48.52491" lon="7.64485">
        <ele>150.6</ele>
        <time>2013-03-30T13:40:40Z</time>
      </trkpt>
      <trkpt lat="48.52482" lon="7.6449">
        <ele>150.5</ele>
        <time>2013-03-30T13:40:46Z</time>
      </trkpt>
      <trkpt lat="48.52474" lon="7.64496">
        <ele>150.3</ele>
        <time>2013-03-30T13:40:55Z</time>
      </trkpt>
      <trkpt lat="48.52465" lon="7.645">
        <ele>150.1</ele>
        <time>2013-03-30T13:41:02Z</time>
      </trkpt>
      <trkpt lat="48.52457" lon="7.64505">
        <ele>149.9</ele>
        <time>2013-03-30T13:41:09Z</time>
      </trkpt>
      <trkpt lat="48.52447" lon="7.64507">
        <ele>149.7</ele>
        <time>2013-03-30T13:41:18Z</time>
      </trkpt>
      <trkpt lat="48.52438" lon="7.64501">
        <ele>149.5</ele>
        <time>2013-03-30T13:41:24Z</time>
      </trkpt>
      <trkpt lat="48.52435" lon="7.64487">
        <ele>149.4</ele>
        <time>2013-03-30T13:41:33Z</time>
      </trkpt>
      <trkpt lat="48.52432" lon="7.64473">
        <ele>149.2</ele>
        <time>2013-03-30T13:41:42Z</time>
      </trkpt>
      <trkpt lat="48.52427" lon="7.6446">
        <ele>149</ele>
        <time>2013-03-30T13:41:48Z</time>
      </trkpt>
      <trkpt lat="48.52423" lon="7.64446">
        <ele>149.2</ele>
        <time>2013-03-30T13:41:56Z</time>
      </trkpt>
      <trkpt lat="48.5242" lon="7.64433">
        <ele>149.4</ele>
        <time>2013-03-30T13:42:04Z</time>
      </trkpt>
      <trkpt lat="48.52416" lon="7.64419">
        <ele>149.5</ele>
        <time>2013-03-30T13:42:12Z</time>
      </trkpt>
      <trkpt lat="48.52415" lon="7.64403">
        <ele>149.7</ele>
        <time>2013-03-30T13:42:21Z</time>
      </trkpt>
      <trkpt lat="48.52413" lon="7.64388">
        <ele>149.9</ele>
        <time>2013-03-30T13:42:30Z</time>
      </trkpt>
      <trkpt lat="48.52411" lon="7.64374">
        <ele>150.1</ele>
        <time>2013-03-30T13:42:34Z</time>
      </trkpt>
      <trkpt lat="48.52409" lon="7.6436">
        <ele>150.4</ele>
        <time>2013-03-30T13:42:44Z</time>
      </trkpt>
      <trkpt lat="48.52408" lon="7.64343">
        <ele>150.6</ele>
        <time>2013-03-30T13:42:46Z</time>
      </trkpt>
      <trkpt lat="48.52407" lon="7.64329">
        <ele>150.9</ele>
        <time>2013-03-30T13:42:58Z</time>
      </trkpt>
      <trkpt lat="48.52405" lon="7.64316">
        <ele>151.2</ele>
        <time>2013-03-30T13:43:03Z</time>
      </trkpt>
      <trkpt lat="48.52405" lon="7.643">
        <ele>151.5</ele>
        <time>2013-03-30T13:43:07Z</time>
      </trkpt>
      <trkpt lat="48.52404" lon="7.64285">
        <ele>151.5</ele>
        <time>2013-03-30T13:43:12Z</time>
      </trkpt>
      <trkpt lat="48.5241" lon="7.64273">
        <ele>151.5</ele>
        <time>2013-03-30T13:43:25Z</time>
      </trkpt>
      <trkpt lat="48.52407" lon="7.64259">
        <ele>151.5</ele>
        <time>2013-03-30T13:43:31Z</time>
      </trkpt>
      <trkpt lat="48.52404" lon="7.64246">
        <ele>151.5</ele>
        <time>2013-03-30T13:43:39Z</time>
      </trkpt>
      <trkpt lat="48.52402" lon="7.64232">
        <ele>151.5</ele>
        <time>2013-03-30T13:43:48Z</time>
      </trkpt>
      <trkpt lat="48.52399" lon="7.64219">
        <ele>151.1</ele>
        <time>2013-03-30T13:43:57Z</time>
      </trkpt>
      <trkpt lat="48.52395" lon="7.64206">
        <ele>150.5</ele>
        <time>2013-03-30T13:44:08Z</time>
      </trkpt>
      <trkpt lat="48.5239" lon="7.64192">
        <ele>150.4</ele>
        <time>2013-03-30T13:44:16Z</time>
      </trkpt>
      <trkpt lat="48.52386" lon="7.6418">
        <ele>150.2</ele>
        <time>2013-03-30T13:44:23Z</time>
      </trkpt>
      <trkpt lat="48.52383" lon="7.64165">
        <ele>150</ele>
        <time>2013-03-30T13:44:31Z</time>
      </trkpt>
      <trkpt lat="48.52381" lon="7.6415">
        <ele>149.8</ele>
        <time>2013-03-30T13:44:39Z</time>
      </trkpt>
      <trkpt lat="48.52377" lon="7.64136">
        <ele>149.6</ele>
        <time>2013-03-30T13:44:48Z</time>
      </trkpt>
      <trkpt lat="48.52376" lon="7.64121">
        <ele>149.5</ele>
        <time>2013-03-30T13:45:02Z</time>
      </trkpt>
      <trkpt lat="48.52373" lon="7.64106">
        <ele>149.5</ele>
        <time>2013-03-30T13:45:08Z</time>
      </trkpt>
      <trkpt lat="48.5237" lon="7.64092">
        <ele>149.4</ele>
        <time>2013-03-30T13:45:16Z</time>
      </trkpt>
      <trkpt lat="48.52368" lon="7.64078">
        <ele>149.3</ele>
        <time>2013-03-30T13:45:23Z</time>
      </trkpt>
      <trkpt lat="48.52364" lon="7.64066">
        <ele>149.6</ele>
        <time>2013-03-30T13:45:28Z</time>
      </trkpt>
      <trkpt lat="48.52359" lon="7.64054">
        <ele>150</ele>
        <time>2013-03-30T13:45:36Z</time>
      </trkpt>
      <trkpt lat="48.52355" lon="7.64039">
        <ele>150</ele>
        <time>2013-03-30T13:45:45Z</time>
      </trkpt>
      <trkpt lat="48.52352" lon="7.64025">
        <ele>150</ele>
        <time>2013-03-30T13:45:54Z</time>
      </trkpt>
      <trkpt lat="48.52347" lon="7.64013">
        <ele>150</ele>
        <time>2013-03-30T13:46:01Z</time>
      </trkpt>
      <trkpt lat="48.52338" lon="7.64014">
        <ele>150</ele>
        <time>2013-03-30T13:46:11Z</time>
      </trkpt>
      <trkpt lat="48.52331" lon="7.64022">
        <ele>149.9</ele>
        <time>2013-03-30T13:46:19Z</time>
      </trkpt>
      <trkpt lat="48.52322" lon="7.6403">
        <ele>149.8</ele>
        <time>2013-03-30T13:46:27Z</time>
      </trkpt>
      <trkpt lat="48.52314" lon="7.64037">
        <ele>149.7</ele>
        <time>2013-03-30T13:46:35Z</time>
      </trkpt>
      <trkpt lat="48.52306" lon="7.64045">
        <ele>149.6</ele>
        <time>2013-03-30T13:46:43Z</time>
      </trkpt>
      <trkpt lat="48.52298" lon="7.64056">
        <ele>149.5</ele>
        <time>2013-03-30T13:46:52Z</time>
      </trkpt>
      <trkpt lat="48.52291" lon="7.64066">
        <ele>149.5</ele>
        <time>2013-03-30T13:47:00Z</time>
      </trkpt>
      <trkpt lat="48.52284" lon="7.64075">
        <ele>149.4</ele>
        <time>2013-03-30T13:47:07Z</time>
      </trkpt>
      <trkpt lat="48.52276" lon="7.64083">
        <ele>148.9</ele>
        <time>2013-03-30T13:47:15Z</time>
      </trkpt>
      <trkpt lat="48.52267" lon="7.64091">
        <ele>148.5</ele>
        <time>2013-03-30T13:47:23Z</time>
      </trkpt>
      <trkpt lat="48.5226" lon="7.64101">
        <ele>148</ele>
        <time>2013-03-30T13:47:31Z</time>
      </trkpt>
      <trkpt lat="48.52253" lon="7.64111">
        <ele>147.5</ele>
        <time>2013-03-30T13:47:40Z</time>
      </trkpt>
      <trkpt lat="48.52246" lon="7.64121">
        <ele>147.2</ele>
        <time>2013-03-30T13:47:48Z</time>
      </trkpt>
      <trkpt lat="48.5224" lon="7.64132">
        <ele>146.8</ele>
        <time>2013-03-30T13:47:56Z</time>
      </trkpt>
      <trkpt lat="48.52233" lon="7.64142">
        <ele>146.5</ele>
        <time>2013-03-30T13:48:03Z</time>
      </trkpt>
      <trkpt lat="48.52226" lon="7.64153">
        <ele>146.1</ele>
        <time>2013-03-30T13:48:10Z</time>
      </trkpt>
      <trkpt lat="48.5222" lon="7.64164">
        <ele>145.6</ele>
        <time>2013-03-30T13:48:18Z</time>
      </trkpt>
      <trkpt lat="48.52213" lon="7.64175">
        <ele>145.2</ele>
        <time>2013-03-30T13:48:26Z</time>
      </trkpt>
      <trkpt lat="48.52207" lon="7.64187">
        <ele>144.7</ele>
        <time>2013-03-30T13:48:34Z</time>
      </trkpt>
      <trkpt lat="48.522" lon="7.64197">
        <ele>144.6</ele>
        <time>2013-03-30T13:48:42Z</time>
      </trkpt>
      <trkpt lat="48.52193" lon="7.64207">
        <ele>144.5</ele>
        <time>2013-03-30T13:48:49Z</time>
      </trkpt>
      <trkpt lat="48.52186" lon="7.64217">
        <ele>144.5</ele>
        <time>2013-03-30T13:48:58Z</time>
      </trkpt>
      <trkpt lat="48.52179" lon="7.64227">
        <ele>144.4</ele>
        <time>2013-03-30T13:49:06Z</time>
      </trkpt>
      <trkpt lat="48.52173" lon="7.64239">
        <ele>144.2</ele>
        <time>2013-03-30T13:49:14Z</time>
      </trkpt>
      <trkpt lat="48.52168" lon="7.6425">
        <ele>144</ele>
        <time>2013-03-30T13:49:20Z</time>
      </trkpt>
      <trkpt lat="48.52162" lon="7.64262">
        <ele>143.8</ele>
        <time>2013-03-30T13:49:27Z</time>
      </trkpt>
      <trkpt lat="48.52156" lon="7.64273">
        <ele>143.6</ele>
        <time>2013-03-30T13:49:36Z</time>
      </trkpt>
      <trkpt lat="48.52152" lon="7.64286">
        <ele>143.5</ele>
        <time>2013-03-30T13:49:42Z</time>
      </trkpt>
      <trkpt lat="48.52146" lon="7.64297">
        <ele>143.5</ele>
        <time>2013-03-30T13:49:52Z</time>
      </trkpt>
      <trkpt lat="48.52139" lon="7.64306">
        <ele>143.4</ele>
        <time>2013-03-30T13:50:01Z</time>
      </trkpt>
      <trkpt lat="48.52134" lon="7.64319">
        <ele>143.4</ele>
        <time>2013-03-30T13:50:09Z</time>
      </trkpt>
      <trkpt lat="48.52129" lon="7.64331">
        <ele>143.4</ele>
        <time>2013-03-30T13:50:18Z</time>
      </trkpt>
      <trkpt lat="48.52123" lon="7.64341">
        <ele>143.4</ele>
        <time>2013-03-30T13:50:27Z</time>
      </trkpt>
      <trkpt lat="48.52119" lon="7.64353">
        <ele>143.4</ele>
        <time>2013-03-30T13:50:34Z</time>
      </trkpt>
      <trkpt lat="48.52112" lon="7.64365">
        <ele>143.5</ele>
        <time>2013-03-30T13:50:41Z</time>
      </trkpt>
      <trkpt lat="48.52106" lon="7.64377">
        <ele>143.5</ele>
        <time>2013-03-30T13:50:50Z</time>
      </trkpt>
      <trkpt lat="48.52102" lon="7.6439">
        <ele>143.6</ele>
        <time>2013-03-30T13:50:56Z</time>
      </trkpt>
      <trkpt lat="48.52097" lon="7.64402">
        <ele>143.6</ele>
        <time>2013-03-30T13:51:03Z</time>
      </trkpt>
      <trkpt lat="48.52092" lon="7.64413">
        <ele>143.6</ele>
        <time>2013-03-30T13:51:11Z</time>
      </trkpt>
      <trkpt lat="48.52086" lon="7.64425">
        <ele>143.6</ele>
        <time>2013-03-30T13:51:18Z</time>
      </trkpt>
      <trkpt lat="48.52081" lon="7.64437">
        <ele>143.6</ele>
        <time>2013-03-30T13:51:25Z</time>
      </trkpt>
      <trkpt lat="48.52077" lon="7.64449">
        <ele>143.5</ele>
        <time>2013-03-30T13:51:34Z</time>
      </trkpt>
      <trkpt lat="48.52071" lon="7.64462">
        <ele>143.5</ele>
        <time>2013-03-30T13:51:41Z</time>
      </trkpt>
      <trkpt lat="48.52066" lon="7.64474">
        <ele>143.5</ele>
        <time>2013-03-30T13:51:48Z</time>
      </trkpt>
      <trkpt lat="48.5206" lon="7.64485">
        <ele>143.5</ele>
        <time>2013-03-30T13:51:55Z</time>
      </trkpt>
      <trkpt lat="48.52056" lon="7.64498">
        <ele>143.5</ele>
        <time>2013-03-30T13:52:03Z</time>
      </trkpt>
      <trkpt lat="48.5205" lon="7.6451">
        <ele>143.5</ele>
        <time>2013-03-30T13:52:11Z</time>
      </trkpt>
      <trkpt lat="48.52045" lon="7.64522">
        <ele>143.5</ele>
        <time>2013-03-30T13:52:17Z</time>
      </trkpt>
      <trkpt lat="48.52039" lon="7.64535">
        <ele>143.5</ele>
        <time>2013-03-30T13:52:26Z</time>
      </trkpt>
      <trkpt lat="48.52033" lon="7.64546">
        <ele>143.6</ele>
        <time>2013-03-30T13:52:35Z</time>
      </trkpt>
      <trkpt lat="48.52028" lon="7.64557">
        <ele>143.7</ele>
        <time>2013-03-30T13:52:43Z</time>
      </trkpt>
      <trkpt lat="48.52022" lon="7.64567">
        <ele>143.8</ele>
        <time>2013-03-30T13:52:50Z</time>
      </trkpt>
      <trkpt lat="48.52017" lon="7.64579">
        <ele>143.9</ele>
        <time>2013-03-30T13:52:58Z</time>
      </trkpt>
      <trkpt lat="48.52011" lon="7.6459">
        <ele>144</ele>
        <time>2013-03-30T13:53:07Z</time>
      </trkpt>
      <trkpt lat="48.52004" lon="7.64601">
        <ele>144</ele>
        <time>2013-03-30T13:53:16Z</time>
      </trkpt>
      <trkpt lat="48.51998" lon="7.64612">
        <ele>143.9</ele>
        <time>2013-03-30T13:53:24Z</time>
      </trkpt>
      <trkpt lat="48.51992" lon="7.64622">
        <ele>143.8</ele>
        <time>2013-03-30T13:53:32Z</time>
      </trkpt>
      <trkpt lat="48.51985" lon="7.64632">
        <ele>143.7</ele>
        <time>2013-03-30T13:53:39Z</time>
      </trkpt>
      <trkpt lat="48.51977" lon="7.64638">
        <ele>143.6</ele>
        <time>2013-03-30T13:53:48Z</time>
      </trkpt>
      <trkpt lat="48.5197" lon="7.64647">
        <ele>143.5</ele>
        <time>2013-03-30T13:53:54Z</time>
      </trkpt>
      <trkpt lat="48.51962" lon="7.64656">
        <ele>143.5</ele>
        <time>2013-03-30T13:54:02Z</time>
      </trkpt>
      <trkpt lat="48.51954" lon="7.64664">
        <ele>143.4</ele>
        <time>2013-03-30T13:54:11Z</time>
      </trkpt>
      <trkpt lat="48.51946" lon="7.64671">
        <ele>143.3</ele>
        <time>2013-03-30T13:54:20Z</time>
      </trkpt>
      <trkpt lat="48.51936" lon="7.64677">
        <ele>143.3</ele>
        <time>2013-03-30T13:54:28Z</time>
      </trkpt>
      <trkpt lat="48.51929" lon="7.64687">
        <ele>143.3</ele>
        <time>2013-03-30T13:54:37Z</time>
      </trkpt>
      <trkpt lat="48.5192" lon="7.64695">
        <ele>143.3</ele>
        <time>2013-03-30T13:54:44Z</time>
      </trkpt>
      <trkpt lat="48.51913" lon="7.64706">
        <ele>143.5</ele>
        <time>2013-03-30T13:54:51Z</time>
      </trkpt>
      <trkpt lat="48.51906" lon="7.64717">
        <ele>143.8</ele>
        <time>2013-03-30T13:54:59Z</time>
      </trkpt>
      <trkpt lat="48.519" lon="7.64728">
        <ele>144.1</ele>
        <time>2013-03-30T13:55:08Z</time>
      </trkpt>
      <trkpt lat="48.51893" lon="7.64738">
        <ele>144.4</ele>
        <time>2013-03-30T13:55:19Z</time>
      </trkpt>
      <trkpt lat="48.51887" lon="7.64747">
        <ele>144.7</ele>
        <time>2013-03-30T13:55:27Z</time>
      </trkpt>
      <trkpt lat="48.51878" lon="7.64755">
        <ele>145.1</ele>
        <time>2013-03-30T13:55:37Z</time>
      </trkpt>
      <trkpt lat="48.51873" lon="7.64766">
        <ele>145.5</ele>
        <time>2013-03-30T13:55:46Z</time>
      </trkpt>
      <trkpt lat="48.51868" lon="7.64778">
        <ele>145.8</ele>
        <time>2013-03-30T13:55:52Z</time>
      </trkpt>
      <trkpt lat="48.51866" lon="7.64792">
        <ele>146.1</ele>
        <time>2013-03-30T13:56:06Z</time>
      </trkpt>
      <trkpt lat="48.51859" lon="7.64804">
        <ele>146.4</ele>
        <time>2013-03-30T13:56:17Z</time>
      </trkpt>
      <trkpt lat="48.5185" lon="7.64812">
        <ele>146.6</ele>
        <time>2013-03-30T13:56:28Z</time>
      </trkpt>
      <trkpt lat="48.51844" lon="7.64823">
        <ele>146.7</ele>
        <time>2013-03-30T13:56:34Z</time>
      </trkpt>
      <trkpt lat="48.51838" lon="7.64833">
        <ele>146.5</ele>
        <time>2013-03-30T13:56:43Z</time>
      </trkpt>
      <trkpt lat="48.51831" lon="7.64844">
        <ele>146.4</ele>
        <time>2013-03-30T13:56:51Z</time>
      </trkpt>
      <trkpt lat="48.51824" lon="7.64853">
        <ele>146.2</ele>
        <time>2013-03-30T13:56:58Z</time>
      </trkpt>
      <trkpt lat="48.51819" lon="7.64865">
        <ele>145.9</ele>
        <time>2013-03-30T13:57:05Z</time>
      </trkpt>
      <trkpt lat="48.51813" lon="7.64877">
        <ele>145.6</ele>
        <time>2013-03-30T13:57:12Z</time>
      </trkpt>
      <trkpt lat="48.51806" lon="7.64887">
        <ele>145.4</ele>
        <time>2013-03-30T13:57:20Z</time>
      </trkpt>
      <trkpt lat="48.518" lon="7.64898">
        <ele>145.1</ele>
        <time>2013-03-30T13:57:31Z</time>
      </trkpt>
      <trkpt lat="48.51797" lon="7.64913">
        <ele>144.8</ele>
        <time>2013-03-30T13:57:40Z</time>
      </trkpt>
      <trkpt lat="48.51789" lon="7.64919">
        <ele>144.5</ele>
        <time>2013-03-30T13:57:49Z</time>
      </trkpt>
      <trkpt lat="48.51786" lon="7.64932">
        <ele>144.3</ele>
        <time>2013-03-30T13:57:56Z</time>
      </trkpt>
      <trkpt lat="48.51778" lon="7.6494">
        <ele>144</ele>
        <time>2013-03-30T13:58:01Z</time>
      </trkpt>
      <trkpt lat="48.5177" lon="7.6495">
        <ele>144</ele>
        <time>2013-03-30T13:58:12Z</time>
      </trkpt>
      <trkpt lat="48.51763" lon="7.64959">
        <ele>144</ele>
        <time>2013-03-30T13:58:18Z</time>
      </trkpt>
      <trkpt lat="48.51754" lon="7.64966">
        <ele>144</ele>
        <time>2013-03-30T13:58:26Z</time>
      </trkpt>
      <trkpt lat="48.51747" lon="7.64974">
        <ele>144</ele>
        <time>2013-03-30T13:58:34Z</time>
      </trkpt>
      <trkpt lat="48.51741" lon="7.64987">
        <ele>144.1</ele>
        <time>2013-03-30T13:58:43Z</time>
      </trkpt>
      <trkpt lat="48.51734" lon="7.64998">
        <ele>144.2</ele>
        <time>2013-03-30T13:58:50Z</time>
      </trkpt>
      <trkpt lat="48.51726" lon="7.65006">
        <ele>144.3</ele>
        <time>2013-03-30T13:58:57Z</time>
      </trkpt>
      <trkpt lat="48.51719" lon="7.65015">
        <ele>144.4</ele>
        <time>2013-03-30T13:59:05Z</time>
      </trkpt>
      <trkpt lat="48.51711" lon="7.65023">
        <ele>144.5</ele>
        <time>2013-03-30T13:59:13Z</time>
      </trkpt>
      <trkpt lat="48.51703" lon="7.65033">
        <ele>144.5</ele>
        <time>2013-03-30T13:59:19Z</time>
      </trkpt>
      <trkpt lat="48.51698" lon="7.65022">
        <ele>144.6</ele>
        <time>2013-03-30T13:59:34Z</time>
      </trkpt>
      <trkpt lat="48.5169" lon="7.6501">
        <ele>144.9</ele>
        <time>2013-03-30T13:59:41Z</time>
      </trkpt>
      <trkpt lat="48.5168" lon="7.65008">
        <ele>145.2</ele>
        <time>2013-03-30T13:59:46Z</time>
      </trkpt>
      <trkpt lat="48.51673" lon="7.64996">
        <ele>145.5</ele>
        <time>2013-03-30T13:59:54Z</time>
      </trkpt>
      <trkpt lat="48.51671" lon="7.64981">
        <ele>145.7</ele>
        <time>2013-03-30T14:00:01Z</time>
      </trkpt>
      <trkpt lat="48.51666" lon="7.64968">
        <ele>145.9</ele>
        <time>2013-03-30T14:00:07Z</time>
      </trkpt>
      <trkpt lat="48.51664" lon="7.64954">
        <ele>146.1</ele>
        <time>2013-03-30T14:00:15Z</time>
      </trkpt>
      <trkpt lat="48.51662" lon="7.64939">
        <ele>146.3</ele>
        <time>2013-03-30T14:00:26Z</time>
      </trkpt>
      <trkpt lat="48.51658" lon="7.64926">
        <ele>146.5</ele>
        <time>2013-03-30T14:00:33Z</time>
      </trkpt>
      <trkpt lat="48.51655" lon="7.64913">
        <ele>146.6</ele>
        <time>2013-03-30T14:00:45Z</time>
      </trkpt>
      <trkpt lat="48.51652" lon="7.649">
        <ele>147.1</ele>
        <time>2013-03-30T14:00:55Z</time>
      </trkpt>
      <trkpt lat="48.51648" lon="7.64884">
        <ele>147.5</ele>
        <time>2013-03-30T14:01:00Z</time>
      </trkpt>
      <trkpt lat="48.51646" lon="7.64869">
        <ele>147.8</ele>
        <time>2013-03-30T14:01:05Z</time>
      </trkpt>
      <trkpt lat="48.51642" lon="7.64856">
        <ele>148.1</ele>
        <time>2013-03-30T14:01:12Z</time>
      </trkpt>
      <trkpt lat="48.51633" lon="7.64858">
        <ele>148.4</ele>
        <time>2013-03-30T14:01:21Z</time>
      </trkpt>
      <trkpt lat="48.51623" lon="7.6486">
        <ele>148.6</ele>
        <time>2013-03-30T14:01:28Z</time>
      </trkpt>
      <trkpt lat="48.51612" lon="7.64858">
        <ele>148.9</ele>
        <time>2013-03-30T14:01:34Z</time>
      </trkpt>
      <trkpt lat="48.51603" lon="7.64855">
        <ele>149.1</ele>
        <time>2013-03-30T14:01:39Z</time>
      </trkpt>
      <trkpt lat="48.51596" lon="7.64864">
        <ele>149.3</ele>
        <time>2013-03-30T14:01:46Z</time>
      </trkpt>
      <trkpt lat="48.5159" lon="7.64875">
        <ele>149.5</ele>
        <time>2013-03-30T14:01:55Z</time>
      </trkpt>
      <trkpt lat="48.5158" lon="7.64871">
        <ele>149.6</ele>
        <time>2013-03-30T14:02:01Z</time>
      </trkpt>
      <trkpt lat="48.51572" lon="7.64879">
        <ele>149.5</ele>
        <time>2013-03-30T14:02:15Z</time>
      </trkpt>
      <trkpt lat="48.51554" lon="7.64885">
        <ele>149.5</ele>
        <time>2013-03-30T14:02:33Z</time>
      </trkpt>
      <trkpt lat="48.51546" lon="7.64894">
        <ele>149.4</ele>
        <time>2013-03-30T14:02:39Z</time>
      </trkpt>
      <trkpt lat="48.51536" lon="7.64896">
        <ele>149.3</ele>
        <time>2013-03-30T14:02:45Z</time>
      </trkpt>
      <trkpt lat="48.51526" lon="7.64901">
        <ele>149.2</ele>
        <time>2013-03-30T14:02:54Z</time>
      </trkpt>
      <trkpt lat="48.51517" lon="7.64901">
        <ele>149.1</ele>
        <time>2013-03-30T14:03:01Z</time>
      </trkpt>
      <trkpt lat="48.51507" lon="7.64902">
        <ele>149</ele>
        <time>2013-03-30T14:03:08Z</time>
      </trkpt>
      <trkpt lat="48.51498" lon="7.64907">
        <ele>149</ele>
        <time>2013-03-30T14:03:16Z</time>
      </trkpt>
      <trkpt lat="48.5149" lon="7.64914">
        <ele>149</ele>
        <time>2013-03-30T14:03:25Z</time>
      </trkpt>
      <trkpt lat="48.51481" lon="7.64918">
        <ele>149</ele>
        <time>2013-03-30T14:03:36Z</time>
      </trkpt>
      <trkpt lat="48.51472" lon="7.64922">
        <ele>149</ele>
        <time>2013-03-30T14:03:42Z</time>
      </trkpt>
      <trkpt lat="48.51464" lon="7.64927">
        <ele>149</ele>
        <time>2013-03-30T14:03:49Z</time>
      </trkpt>
      <trkpt lat="48.51459" lon="7.64914">
        <ele>149</ele>
        <time>2013-03-30T14:04:01Z</time>
      </trkpt>
      <trkpt lat="48.51454" lon="7.64902">
        <ele>149</ele>
        <time>2013-03-30T14:04:08Z</time>
      </trkpt>
      <trkpt lat="48.51446" lon="7.64895">
        <ele>149</ele>
        <time>2013-03-30T14:04:14Z</time>
      </trkpt>
      <trkpt lat="48.51439" lon="7.64884">
        <ele>149</ele>
        <time>2013-03-30T14:04:19Z</time>
      </trkpt>
      <trkpt lat="48.51436" lon="7.6487">
        <ele>149</ele>
        <time>2013-03-30T14:04:24Z</time>
      </trkpt>
      <trkpt lat="48.51434" lon="7.64855">
        <ele>149</ele>
        <time>2013-03-30T14:04:32Z</time>
      </trkpt>
      <trkpt lat="48.51427" lon="7.64845">
        <ele>148.9</ele>
        <time>2013-03-30T14:04:44Z</time>
      </trkpt>
      <trkpt lat="48.51422" lon="7.64834">
        <ele>148.8</ele>
        <time>2013-03-30T14:04:53Z</time>
      </trkpt>
      <trkpt lat="48.51414" lon="7.64824">
        <ele>148.7</ele>
        <time>2013-03-30T14:05:00Z</time>
      </trkpt>
      <trkpt lat="48.51407" lon="7.64815">
        <ele>148.6</ele>
        <time>2013-03-30T14:05:09Z</time>
      </trkpt>
      <trkpt lat="48.51403" lon="7.64801">
        <ele>148.5</ele>
        <time>2013-03-30T14:05:16Z</time>
      </trkpt>
      <trkpt lat="48.51405" lon="7.64787">
        <ele>148.5</ele>
        <time>2013-03-30T14:05:22Z</time>
      </trkpt>
      <trkpt lat="48.51401" lon="7.64775">
        <ele>148.2</ele>
        <time>2013-03-30T14:05:28Z</time>
      </trkpt>
      <trkpt lat="48.51394" lon="7.64765">
        <ele>147.9</ele>
        <time>2013-03-30T14:05:34Z</time>
      </trkpt>
      <trkpt lat="48.51389" lon="7.64753">
        <ele>147.6</ele>
        <time>2013-03-30T14:05:41Z</time>
      </trkpt>
      <trkpt lat="48.51385" lon="7.64741">
        <ele>147.4</ele>
        <time>2013-03-30T14:05:49Z</time>
      </trkpt>
      <trkpt lat="48.51385" lon="7.64727">
        <ele>147.1</ele>
        <time>2013-03-30T14:05:57Z</time>
      </trkpt>
      <trkpt lat="48.51375" lon="7.64724">
        <ele>146.9</ele>
        <time>2013-03-30T14:06:07Z</time>
      </trkpt>
      <trkpt lat="48.51367" lon="7.64722">
        <ele>146.7</ele>
        <time>2013-03-30T14:06:15Z</time>
      </trkpt>
      <trkpt lat="48.51357" lon="7.64725">
        <ele>146.5</ele>
        <time>2013-03-30T14:06:23Z</time>
      </trkpt>
      <trkpt lat="48.51349" lon="7.64735">
        <ele>146.4</ele>
        <time>2013-03-30T14:06:29Z</time>
      </trkpt>
      <trkpt lat="48.5134" lon="7.6474">
        <ele>146.2</ele>
        <time>2013-03-30T14:06:35Z</time>
      </trkpt>
      <trkpt lat="48.51332" lon="7.64747">
        <ele>145.9</ele>
        <time>2013-03-30T14:06:46Z</time>
      </trkpt>
      <trkpt lat="48.51322" lon="7.64748">
        <ele>145.8</ele>
        <time>2013-03-30T14:06:53Z</time>
      </trkpt>
      <trkpt lat="48.51313" lon="7.64748">
        <ele>145.7</ele>
        <time>2013-03-30T14:07:01Z</time>
      </trkpt>
      <trkpt lat="48.51304" lon="7.64752">
        <ele>145.6</ele>
        <time>2013-03-30T14:07:09Z</time>
      </trkpt>
      <trkpt lat="48.51294" lon="7.64752">
        <ele>145.5</ele>
        <time>2013-03-30T14:07:16Z</time>
      </trkpt>
      <trkpt lat="48.51285" lon="7.64754">
        <ele>145.5</ele>
        <time>2013-03-30T14:07:23Z</time>
      </trkpt>
      <trkpt lat="48.51277" lon="7.64758">
        <ele>145.4</ele>
        <time>2013-03-30T14:07:30Z</time>
      </trkpt>
      <trkpt lat="48.51267" lon="7.64761">
        <ele>145.3</ele>
        <time>2013-03-30T14:07:40Z</time>
      </trkpt>
      <trkpt lat="48.51258" lon="7.64764">
        <ele>145.2</ele>
        <time>2013-03-30T14:07:50Z</time>
      </trkpt>
      <trkpt lat="48.5125" lon="7.6477">
        <ele>145.2</ele>
        <time>2013-03-30T14:07:57Z</time>
      </trkpt>
      <trkpt lat="48.5124" lon="7.64769">
        <ele>145.2</ele>
        <time>2013-03-30T14:08:04Z</time>
      </trkpt>
      <trkpt lat="48.51224" lon="7.64753">
        <ele>145.3</ele>
        <time>2013-03-30T14:08:28Z</time>
      </trkpt>
      <trkpt lat="48.51216" lon="7.64746">
        <ele>145.4</ele>
        <time>2013-03-30T14:08:35Z</time>
      </trkpt>
      <trkpt lat="48.51211" lon="7.64734">
        <ele>145.5</ele>
        <time>2013-03-30T14:08:41Z</time>
      </trkpt>
      <trkpt lat="48.51203" lon="7.64728">
        <ele>145.5</ele>
        <time>2013-03-30T14:08:49Z</time>
      </trkpt>
      <trkpt lat="48.51195" lon="7.6472">
        <ele>145.6</ele>
        <time>2013-03-30T14:08:56Z</time>
      </trkpt>
      <trkpt lat="48.51187" lon="7.64713">
        <ele>145.7</ele>
        <time>2013-03-30T14:09:02Z</time>
      </trkpt>
      <trkpt lat="48.51178" lon="7.64705">
        <ele>145.8</ele>
        <time>2013-03-30T14:09:10Z</time>
      </trkpt>
      <trkpt lat="48.5117" lon="7.64697">
        <ele>145.9</ele>
        <time>2013-03-30T14:09:18Z</time>
      </trkpt>
      <trkpt lat="48.51162" lon="7.64688">
        <ele>146.1</ele>
        <time>2013-03-30T14:09:25Z</time>
      </trkpt>
      <trkpt lat="48.51156" lon="7.64678">
        <ele>145.9</ele>
        <time>2013-03-30T14:09:32Z</time>
      </trkpt>
      <trkpt lat="48.51148" lon="7.6467">
        <ele>145.7</ele>
        <time>2013-03-30T14:09:42Z</time>
      </trkpt>
      <trkpt lat="48.5114" lon="7.64662">
        <ele>145.5</ele>
        <time>2013-03-30T14:09:51Z</time>
      </trkpt>
      <trkpt lat="48.51133" lon="7.64651">
        <ele>145.4</ele>
        <time>2013-03-30T14:09:59Z</time>
      </trkpt>
      <trkpt lat="48.51126" lon="7.64642">
        <ele>145.2</ele>
        <time>2013-03-30T14:10:08Z</time>
      </trkpt>
      <trkpt lat="48.51117" lon="7.64634">
        <ele>145.1</ele>
        <time>2013-03-30T14:10:13Z</time>
      </trkpt>
      <trkpt lat="48.51112" lon="7.64623">
        <ele>145</ele>
        <time>2013-03-30T14:10:19Z</time>
      </trkpt>
      <trkpt lat="48.51112" lon="7.64609">
        <ele>144.9</ele>
        <time>2013-03-30T14:10:26Z</time>
      </trkpt>
      <trkpt lat="48.51112" lon="7.64595">
        <ele>144.7</ele>
        <time>2013-03-30T14:10:36Z</time>
      </trkpt>
      <trkpt lat="48.51112" lon="7.64588">
        <ele>144.5</ele>
        <time>2013-03-30T14:10:51Z</time>
      </trkpt>
      <trkpt lat="48.51115" lon="7.646">
        <ele>144.5</ele>
        <time>2013-03-30T14:11:13Z</time>
      </trkpt>
      <trkpt lat="48.51116" lon="7.64607">
        <ele>144.9</ele>
        <time>2013-03-30T14:11:16Z</time>
      </trkpt>
      <trkpt lat="48.51115" lon="7.64621">
        <ele>145.1</ele>
        <time>2013-03-30T14:11:23Z</time>
      </trkpt>
      <trkpt lat="48.51106" lon="7.64626">
        <ele>145.3</ele>
        <time>2013-03-30T14:11:30Z</time>
      </trkpt>
      <trkpt lat="48.51096" lon="7.64633">
        <ele>145.5</ele>
        <time>2013-03-30T14:11:35Z</time>
      </trkpt>
      <trkpt lat="48.51088" lon="7.6464">
        <ele>145.6</ele>
        <time>2013-03-30T14:11:41Z</time>
      </trkpt>
      <trkpt lat="48.51079" lon="7.64644">
        <ele>145.7</ele>
        <time>2013-03-30T14:11:48Z</time>
      </trkpt>
      <trkpt lat="48.51069" lon="7.64646">
        <ele>145.8</ele>
        <time>2013-03-30T14:11:56Z</time>
      </trkpt>
      <trkpt lat="48.51061" lon="7.64655">
        <ele>145.9</ele>
        <time>2013-03-30T14:12:03Z</time>
      </trkpt>
      <trkpt lat="48.51053" lon="7.64662">
        <ele>146</ele>
        <time>2013-03-30T14:12:09Z</time>
      </trkpt>
      <trkpt lat="48.51046" lon="7.6467">
        <ele>146.1</ele>
        <time>2013-03-30T14:12:18Z</time>
      </trkpt>
      <trkpt lat="48.51038" lon="7.64678">
        <ele>145.9</ele>
        <time>2013-03-30T14:12:26Z</time>
      </trkpt>
      <trkpt lat="48.51029" lon="7.64684">
        <ele>145.8</ele>
        <time>2013-03-30T14:12:31Z</time>
      </trkpt>
      <trkpt lat="48.5102" lon="7.64686">
        <ele>145.7</ele>
        <time>2013-03-30T14:12:40Z</time>
      </trkpt>
      <trkpt lat="48.51013" lon="7.64695">
        <ele>145.6</ele>
        <time>2013-03-30T14:12:48Z</time>
      </trkpt>
      <trkpt lat="48.51003" lon="7.647">
        <ele>145.4</ele>
        <time>2013-03-30T14:12:55Z</time>
      </trkpt>
      <trkpt lat="48.50996" lon="7.6471">
        <ele>145.1</ele>
        <time>2013-03-30T14:13:02Z</time>
      </trkpt>
      <trkpt lat="48.50989" lon="7.64719">
        <ele>145</ele>
        <time>2013-03-30T14:13:09Z</time>
      </trkpt>
      <trkpt lat="48.5098" lon="7.64725">
        <ele>144.9</ele>
        <time>2013-03-30T14:13:16Z</time>
      </trkpt>
      <trkpt lat="48.50972" lon="7.64731">
        <ele>144.8</ele>
        <time>2013-03-30T14:13:22Z</time>
      </trkpt>
      <trkpt lat="48.50962" lon="7.64735">
        <ele>144.7</ele>
        <time>2013-03-30T14:13:28Z</time>
      </trkpt>
      <trkpt lat="48.50954" lon="7.64741">
        <ele>144.6</ele>
        <time>2013-03-30T14:13:40Z</time>
      </trkpt>
      <trkpt lat="48.50945" lon="7.64745">
        <ele>144.5</ele>
        <time>2013-03-30T14:13:45Z</time>
      </trkpt>
      <trkpt lat="48.50937" lon="7.64754">
        <ele>144.4</ele>
        <time>2013-03-30T14:13:52Z</time>
      </trkpt>
      <trkpt lat="48.50928" lon="7.6476">
        <ele>144.2</ele>
        <time>2013-03-30T14:14:03Z</time>
      </trkpt>
      <trkpt lat="48.50919" lon="7.64761">
        <ele>144</ele>
        <time>2013-03-30T14:14:10Z</time>
      </trkpt>
      <trkpt lat="48.50911" lon="7.6477">
        <ele>144</ele>
        <time>2013-03-30T14:14:17Z</time>
      </trkpt>
      <trkpt lat="48.50902" lon="7.64776">
        <ele>144</ele>
        <time>2013-03-30T14:14:23Z</time>
      </trkpt>
      <trkpt lat="48.50894" lon="7.64782">
        <ele>143.8</ele>
        <time>2013-03-30T14:14:29Z</time>
      </trkpt>
      <trkpt lat="48.50886" lon="7.64789">
        <ele>143.6</ele>
        <time>2013-03-30T14:14:36Z</time>
      </trkpt>
      <trkpt lat="48.50877" lon="7.64793">
        <ele>143.5</ele>
        <time>2013-03-30T14:14:46Z</time>
      </trkpt>
      <trkpt lat="48.50867" lon="7.64797">
        <ele>143.3</ele>
        <time>2013-03-30T14:14:52Z</time>
      </trkpt>
      <trkpt lat="48.50857" lon="7.64798">
        <ele>143.1</ele>
        <time>2013-03-30T14:15:00Z</time>
      </trkpt>
      <trkpt lat="48.50849" lon="7.64804">
        <ele>142.9</ele>
        <time>2013-03-30T14:15:07Z</time>
      </trkpt>
      <trkpt lat="48.50839" lon="7.64806">
        <ele>142.7</ele>
        <time>2013-03-30T14:15:16Z</time>
      </trkpt>
      <trkpt lat="48.5083" lon="7.64807">
        <ele>142.7</ele>
        <time>2013-03-30T14:15:20Z</time>
      </trkpt>
      <trkpt lat="48.5082" lon="7.64808">
        <ele>142.7</ele>
        <time>2013-03-30T14:15:28Z</time>
      </trkpt>
      <trkpt lat="48.50811" lon="7.64812">
        <ele>142.7</ele>
        <time>2013-03-30T14:15:35Z</time>
      </trkpt>
      <trkpt lat="48.50801" lon="7.64812">
        <ele>142.7</ele>
        <time>2013-03-30T14:15:43Z</time>
      </trkpt>
      <trkpt lat="48.50792" lon="7.64815">
        <ele>142.9</ele>
        <time>2013-03-30T14:15:52Z</time>
      </trkpt>
      <trkpt lat="48.50783" lon="7.64819">
        <ele>143.1</ele>
        <time>2013-03-30T14:15:59Z</time>
      </trkpt>
      <trkpt lat="48.50773" lon="7.64823">
        <ele>143.3</ele>
        <time>2013-03-30T14:16:06Z</time>
      </trkpt>
      <trkpt lat="48.50764" lon="7.64826">
        <ele>143.5</ele>
        <time>2013-03-30T14:16:12Z</time>
      </trkpt>
      <trkpt lat="48.50755" lon="7.64832">
        <ele>143.5</ele>
        <time>2013-03-30T14:16:22Z</time>
      </trkpt>
      <trkpt lat="48.50746" lon="7.64834">
        <ele>143.6</ele>
        <time>2013-03-30T14:16:27Z</time>
      </trkpt>
      <trkpt lat="48.50735" lon="7.64832">
        <ele>143.7</ele>
        <time>2013-03-30T14:16:35Z</time>
      </trkpt>
      <trkpt lat="48.50725" lon="7.64833">
        <ele>143.6</ele>
        <time>2013-03-30T14:16:43Z</time>
      </trkpt>
      <trkpt lat="48.50716" lon="7.64837">
        <ele>143.5</ele>
        <time>2013-03-30T14:16:49Z</time>
      </trkpt>
      <trkpt lat="48.50707" lon="7.6484">
        <ele>143.5</ele>
        <time>2013-03-30T14:16:57Z</time>
      </trkpt>
      <trkpt lat="48.50697" lon="7.6484">
        <ele>143.4</ele>
        <time>2013-03-30T14:17:05Z</time>
      </trkpt>
      <trkpt lat="48.50687" lon="7.64841">
        <ele>143.3</ele>
        <time>2013-03-30T14:17:14Z</time>
      </trkpt>
      <trkpt lat="48.50678" lon="7.64847">
        <ele>143.2</ele>
        <time>2013-03-30T14:17:22Z</time>
      </trkpt>
      <trkpt lat="48.50669" lon="7.6485">
        <ele>143.1</ele>
        <time>2013-03-30T14:17:32Z</time>
      </trkpt>
      <trkpt lat="48.50659" lon="7.64856">
        <ele>143</ele>
        <time>2013-03-30T14:17:37Z</time>
      </trkpt>
      <trkpt lat="48.50649" lon="7.64857">
        <ele>143</ele>
        <time>2013-03-30T14:17:44Z</time>
      </trkpt>
      <trkpt lat="48.50639" lon="7.64858">
        <ele>143</ele>
        <time>2013-03-30T14:17:52Z</time>
      </trkpt>
      <trkpt lat="48.5063" lon="7.64858">
        <ele>143</ele>
        <time>2013-03-30T14:18:00Z</time>
      </trkpt>
      <trkpt lat="48.50621" lon="7.64858">
        <ele>143</ele>
        <time>2013-03-30T14:18:06Z</time>
      </trkpt>
      <trkpt lat="48.50612" lon="7.6486">
        <ele>143</ele>
        <time>2013-03-30T14:18:15Z</time>
      </trkpt>
      <trkpt lat="48.50603" lon="7.64863">
        <ele>143</ele>
        <time>2013-03-30T14:18:20Z</time>
      </trkpt>
      <trkpt lat="48.50593" lon="7.64866">
        <ele>143.1</ele>
        <time>2013-03-30T14:18:27Z</time>
      </trkpt>
      <trkpt lat="48.50583" lon="7.64869">
        <ele>143.2</ele>
        <time>2013-03-30T14:18:36Z</time>
      </trkpt>
      <trkpt lat="48.50573" lon="7.64869">
        <ele>143.3</ele>
        <time>2013-03-30T14:18:44Z</time>
      </trkpt>
      <trkpt lat="48.50564" lon="7.6487">
        <ele>143.4</ele>
        <time>2013-03-30T14:18:52Z</time>
      </trkpt>
      <trkpt lat="48.50554" lon="7.6487">
        <ele>143.5</ele>
        <time>2013-03-30T14:18:59Z</time>
      </trkpt>
      <trkpt lat="48.50544" lon="7.64873">
        <ele>143.5</ele>
        <time>2013-03-30T14:19:06Z</time>
      </trkpt>
      <trkpt lat="48.50535" lon="7.64875">
        <ele>143.6</ele>
        <time>2013-03-30T14:19:16Z</time>
      </trkpt>
      <trkpt lat="48.50526" lon="7.6488">
        <ele>143.7</ele>
        <time>2013-03-30T14:19:24Z</time>
      </trkpt>
      <trkpt lat="48.50517" lon="7.64884">
        <ele>143.8</ele>
        <time>2013-03-30T14:19:32Z</time>
      </trkpt>
      <trkpt lat="48.50507" lon="7.64887">
        <ele>143.9</ele>
        <time>2013-03-30T14:19:39Z</time>
      </trkpt>
      <trkpt lat="48.50497" lon="7.6489">
        <ele>144.1</ele>
        <time>2013-03-30T14:19:46Z</time>
      </trkpt>
      <trkpt lat="48.50487" lon="7.64887">
        <ele>144.2</ele>
        <time>2013-03-30T14:19:51Z</time>
      </trkpt>
      <trkpt lat="48.50478" lon="7.64889">
        <ele>144.3</ele>
        <time>2013-03-30T14:19:59Z</time>
      </trkpt>
      <trkpt lat="48.50467" lon="7.64888">
        <ele>144.4</ele>
        <time>2013-03-30T14:20:08Z</time>
      </trkpt>
      <trkpt lat="48.50456" lon="7.64885">
        <ele>144.5</ele>
        <time>2013-03-30T14:20:15Z</time>
      </trkpt>
      <trkpt lat="48.50446" lon="7.64882">
        <ele>144.5</ele>
        <time>2013-03-30T14:20:21Z</time>
      </trkpt>
      <trkpt lat="48.50437" lon="7.64879">
        <ele>144.6</ele>
        <time>2013-03-30T14:20:27Z</time>
      </trkpt>
      <trkpt lat="48.50428" lon="7.64876">
        <ele>144.7</ele>
        <time>2013-03-30T14:20:35Z</time>
      </trkpt>
      <trkpt lat="48.50419" lon="7.64871">
        <ele>144.9</ele>
        <time>2013-03-30T14:20:42Z</time>
      </trkpt>
      <trkpt lat="48.5041" lon="7.64865">
        <ele>145.1</ele>
        <time>2013-03-30T14:20:48Z</time>
      </trkpt>
      <trkpt lat="48.50402" lon="7.64858">
        <ele>145.3</ele>
        <time>2013-03-30T14:20:56Z</time>
      </trkpt>
      <trkpt lat="48.50394" lon="7.6485">
        <ele>145.4</ele>
        <time>2013-03-30T14:21:04Z</time>
      </trkpt>
      <trkpt lat="48.50384" lon="7.64841">
        <ele>145.5</ele>
        <time>2013-03-30T14:21:11Z</time>
      </trkpt>
      <trkpt lat="48.50377" lon="7.6483">
        <ele>145.5</ele>
        <time>2013-03-30T14:21:16Z</time>
      </trkpt>
      <trkpt lat="48.50371" lon="7.64819">
        <ele>145.6</ele>
        <time>2013-03-30T14:21:20Z</time>
      </trkpt>
      <trkpt lat="48.50364" lon="7.6481">
        <ele>145.7</ele>
        <time>2013-03-30T14:21:31Z</time>
      </trkpt>
      <trkpt lat="48.50358" lon="7.64799">
        <ele>145.8</ele>
        <time>2013-03-30T14:21:43Z</time>
      </trkpt>
      <trkpt lat="48.50352" lon="7.64788">
        <ele>145.9</ele>
        <time>2013-03-30T14:21:50Z</time>
      </trkpt>
      <trkpt lat="48.50348" lon="7.64774">
        <ele>146.2</ele>
        <time>2013-03-30T14:22:00Z</time>
      </trkpt>
      <trkpt lat="48.50342" lon="7.6476">
        <ele>146.4</ele>
        <time>2013-03-30T14:22:06Z</time>
      </trkpt>
      <trkpt lat="48.50335" lon="7.6475">
        <ele>146.5</ele>
        <time>2013-03-30T14:22:12Z</time>
      </trkpt>
      <trkpt lat="48.50329" lon="7.6474">
        <ele>146.7</ele>
        <time>2013-03-30T14:22:20Z</time>
      </trkpt>
      <trkpt lat="48.50324" lon="7.64727">
        <ele>146.9</ele>
        <time>2013-03-30T14:22:26Z</time>
      </trkpt>
      <trkpt lat="48.5032" lon="7.64714">
        <ele>147.6</ele>
        <time>2013-03-30T14:22:32Z</time>
      </trkpt>
      <trkpt lat="48.50315" lon="7.64701">
        <ele>148.4</ele>
        <time>2013-03-30T14:22:41Z</time>
      </trkpt>
      <trkpt lat="48.50309" lon="7.64689">
        <ele>149.1</ele>
        <time>2013-03-30T14:22:52Z</time>
      </trkpt>
      <trkpt lat="48.50301" lon="7.64681">
        <ele>149.8</ele>
        <time>2013-03-30T14:23:01Z</time>
      </trkpt>
      <trkpt lat="48.50292" lon="7.64676">
        <ele>150.5</ele>
        <time>2013-03-30T14:23:07Z</time>
      </trkpt>
      <trkpt lat="48.50284" lon="7.64667">
        <ele>151.3</ele>
        <time>2013-03-30T14:23:15Z</time>
      </trkpt>
      <trkpt lat="48.50277" lon="7.64656">
        <ele>151.8</ele>
        <time>2013-03-30T14:23:22Z</time>
      </trkpt>
      <trkpt lat="48.50267" lon="7.6465">
        <ele>152.4</ele>
        <time>2013-03-30T14:23:29Z</time>
      </trkpt>
      <trkpt lat="48.50258" lon="7.64646">
        <ele>152.9</ele>
        <time>2013-03-30T14:23:38Z</time>
      </trkpt>
      <trkpt lat="48.50251" lon="7.64637">
        <ele>153.5</ele>
        <time>2013-03-30T14:23:47Z</time>
      </trkpt>
      <trkpt lat="48.50244" lon="7.64627">
        <ele>154.2</ele>
        <time>2013-03-30T14:23:55Z</time>
      </trkpt>
      <trkpt lat="48.50236" lon="7.64621">
        <ele>154.3</ele>
        <time>2013-03-30T14:24:02Z</time>
      </trkpt>
      <trkpt lat="48.50226" lon="7.64614">
        <ele>154.4</ele>
        <time>2013-03-30T14:24:10Z</time>
      </trkpt>
      <trkpt lat="48.50217" lon="7.64609">
        <ele>154.5</ele>
        <time>2013-03-30T14:24:15Z</time>
      </trkpt>
      <trkpt lat="48.50208" lon="7.64606">
        <ele>154.5</ele>
        <time>2013-03-30T14:24:22Z</time>
      </trkpt>
      <trkpt lat="48.50199" lon="7.64602">
        <ele>154.6</ele>
        <time>2013-03-30T14:24:30Z</time>
      </trkpt>
      <trkpt lat="48.5019" lon="7.64598">
        <ele>154.7</ele>
        <time>2013-03-30T14:24:37Z</time>
      </trkpt>
      <trkpt lat="48.50182" lon="7.6459">
        <ele>154.8</ele>
        <time>2013-03-30T14:24:42Z</time>
      </trkpt>
      <trkpt lat="48.50174" lon="7.64584">
        <ele>154.9</ele>
        <time>2013-03-30T14:24:48Z</time>
      </trkpt>
      <trkpt lat="48.50165" lon="7.64583">
        <ele>154.6</ele>
        <time>2013-03-30T14:24:55Z</time>
      </trkpt>
      <trkpt lat="48.50156" lon="7.64578">
        <ele>154.3</ele>
        <time>2013-03-30T14:25:05Z</time>
      </trkpt>
      <trkpt lat="48.50148" lon="7.6457">
        <ele>153.9</ele>
        <time>2013-03-30T14:25:11Z</time>
      </trkpt>
      <trkpt lat="48.50138" lon="7.64568">
        <ele>153.5</ele>
        <time>2013-03-30T14:25:16Z</time>
      </trkpt>
      <trkpt lat="48.50129" lon="7.64572">
        <ele>153.2</ele>
        <time>2013-03-30T14:25:21Z</time>
      </trkpt>
      <trkpt lat="48.50121" lon="7.6457">
        <ele>152.8</ele>
        <time>2013-03-30T14:25:28Z</time>
      </trkpt>
      <trkpt lat="48.5011" lon="7.6457">
        <ele>152.5</ele>
        <time>2013-03-30T14:25:40Z</time>
      </trkpt>
      <trkpt lat="48.50101" lon="7.64566">
        <ele>152.1</ele>
        <time>2013-03-30T14:25:48Z</time>
      </trkpt>
      <trkpt lat="48.50092" lon="7.64569">
        <ele>151.6</ele>
        <time>2013-03-30T14:25:56Z</time>
      </trkpt>
      <trkpt lat="48.50083" lon="7.64562">
        <ele>151.6</ele>
        <time>2013-03-30T14:26:02Z</time>
      </trkpt>
      <trkpt lat="48.50074" lon="7.6456">
        <ele>151.6</ele>
        <time>2013-03-30T14:26:09Z</time>
      </trkpt>
      <trkpt lat="48.50064" lon="7.64559">
        <ele>152</ele>
        <time>2013-03-30T14:26:18Z</time>
      </trkpt>
      <trkpt lat="48.50054" lon="7.64558">
        <ele>152.4</ele>
        <time>2013-03-30T14:26:27Z</time>
      </trkpt>
      <trkpt lat="48.50045" lon="7.64555">
        <ele>152.7</ele>
        <time>2013-03-30T14:26:32Z</time>
      </trkpt>
      <trkpt lat="48.50034" lon="7.64553">
        <ele>153.1</ele>
        <time>2013-03-30T14:26:38Z</time>
      </trkpt>
      <trkpt lat="48.50025" lon="7.6455">
        <ele>153.5</ele>
        <time>2013-03-30T14:26:47Z</time>
      </trkpt>
      <trkpt lat="48.50019" lon="7.6454">
        <ele>153.8</ele>
        <time>2013-03-30T14:26:54Z</time>
      </trkpt>
      <trkpt lat="48.50012" lon="7.6453">
        <ele>154.2</ele>
        <time>2013-03-30T14:27:01Z</time>
      </trkpt>
      <trkpt lat="48.50005" lon="7.64519">
        <ele>154.5</ele>
        <time>2013-03-30T14:27:08Z</time>
      </trkpt>
      <trkpt lat="48.49999" lon="7.64506">
        <ele>155.1</ele>
        <time>2013-03-30T14:27:14Z</time>
      </trkpt>
      <trkpt lat="48.49993" lon="7.64495">
        <ele>155</ele>
        <time>2013-03-30T14:27:21Z</time>
      </trkpt>
      <trkpt lat="48.49986" lon="7.64485">
        <ele>154.9</ele>
        <time>2013-03-30T14:27:31Z</time>
      </trkpt>
      <trkpt lat="48.49978" lon="7.64478">
        <ele>154.8</ele>
        <time>2013-03-30T14:27:39Z</time>
      </trkpt>
      <trkpt lat="48.49972" lon="7.64467">
        <ele>154.7</ele>
        <time>2013-03-30T14:27:47Z</time>
      </trkpt>
      <trkpt lat="48.49966" lon="7.64456">
        <ele>154.6</ele>
        <time>2013-03-30T14:27:52Z</time>
      </trkpt>
      <trkpt lat="48.49959" lon="7.64446">
        <ele>154.5</ele>
        <time>2013-03-30T14:27:59Z</time>
      </trkpt>
      <trkpt lat="48.49951" lon="7.64438">
        <ele>154.5</ele>
        <time>2013-03-30T14:28:05Z</time>
      </trkpt>
      <trkpt lat="48.49945" lon="7.64427">
        <ele>154.2</ele>
        <time>2013-03-30T14:28:17Z</time>
      </trkpt>
      <trkpt lat="48.49938" lon="7.64418">
        <ele>153.9</ele>
        <time>2013-03-30T14:28:25Z</time>
      </trkpt>
      <trkpt lat="48.4993" lon="7.64405">
        <ele>153.6</ele>
        <time>2013-03-30T14:28:29Z</time>
      </trkpt>
      <trkpt lat="48.49923" lon="7.64396">
        <ele>153.3</ele>
        <time>2013-03-30T14:28:32Z</time>
      </trkpt>
      <trkpt lat="48.49918" lon="7.64384">
        <ele>153.1</ele>
        <time>2013-03-30T14:28:37Z</time>
      </trkpt>
      <trkpt lat="48.49913" lon="7.64372">
        <ele>152.9</ele>
        <time>2013-03-30T14:28:52Z</time>
      </trkpt>
      <trkpt lat="48.49907" lon="7.64361">
        <ele>153.2</ele>
        <time>2013-03-30T14:29:04Z</time>
      </trkpt>
      <trkpt lat="48.499" lon="7.64352">
        <ele>153.5</ele>
        <time>2013-03-30T14:29:12Z</time>
      </trkpt>
      <trkpt lat="48.49895" lon="7.6434">
        <ele>153.5</ele>
        <time>2013-03-30T14:29:19Z</time>
      </trkpt>
      <trkpt lat="48.4989" lon="7.6433">
        <ele>153.5</ele>
        <time>2013-03-30T14:29:26Z</time>
      </trkpt>
      <trkpt lat="48.49883" lon="7.64319">
        <ele>153.5</ele>
        <time>2013-03-30T14:29:32Z</time>
      </trkpt>
      <trkpt lat="48.49878" lon="7.64306">
        <ele>153.6</ele>
        <time>2013-03-30T14:29:37Z</time>
      </trkpt>
      <trkpt lat="48.49871" lon="7.64296">
        <ele>153.8</ele>
        <time>2013-03-30T14:29:43Z</time>
      </trkpt>
      <trkpt lat="48.49863" lon="7.64286">
        <ele>154</ele>
        <time>2013-03-30T14:29:52Z</time>
      </trkpt>
      <trkpt lat="48.49857" lon="7.64275">
        <ele>154.4</ele>
        <time>2013-03-30T14:30:00Z</time>
      </trkpt>
      <trkpt lat="48.49854" lon="7.64261">
        <ele>154.7</ele>
        <time>2013-03-30T14:30:06Z</time>
      </trkpt>
      <trkpt lat="48.49849" lon="7.6425">
        <ele>155.1</ele>
        <time>2013-03-30T14:30:16Z</time>
      </trkpt>
      <trkpt lat="48.49834" lon="7.64231">
        <ele>155</ele>
        <time>2013-03-30T14:30:37Z</time>
      </trkpt>
      <trkpt lat="48.49827" lon="7.64219">
        <ele>154.9</ele>
        <time>2013-03-30T14:30:43Z</time>
      </trkpt>
      <trkpt lat="48.49821" lon="7.64206">
        <ele>155.2</ele>
        <time>2013-03-30T14:30:49Z</time>
      </trkpt>
      <trkpt lat="48.49814" lon="7.64195">
        <ele>155.5</ele>
        <time>2013-03-30T14:31:00Z</time>
      </trkpt>
      <trkpt lat="48.49808" lon="7.64183">
        <ele>155.4</ele>
        <time>2013-03-30T14:31:07Z</time>
      </trkpt>
      <trkpt lat="48.49803" lon="7.64168">
        <ele>155.3</ele>
        <time>2013-03-30T14:31:12Z</time>
      </trkpt>
      <trkpt lat="48.49797" lon="7.64159">
        <ele>155.2</ele>
        <time>2013-03-30T14:31:19Z</time>
      </trkpt>
      <trkpt lat="48.49789" lon="7.6415">
        <ele>155.1</ele>
        <time>2013-03-30T14:31:27Z</time>
      </trkpt>
      <trkpt lat="48.49786" lon="7.64135">
        <ele>154.8</ele>
        <time>2013-03-30T14:31:34Z</time>
      </trkpt>
      <trkpt lat="48.49785" lon="7.64118">
        <ele>154.5</ele>
        <time>2013-03-30T14:31:44Z</time>
      </trkpt>
      <trkpt lat="48.49777" lon="7.6411">
        <ele>154.3</ele>
        <time>2013-03-30T14:31:51Z</time>
      </trkpt>
      <trkpt lat="48.49774" lon="7.64097">
        <ele>153.6</ele>
        <time>2013-03-30T14:31:58Z</time>
      </trkpt>
      <trkpt lat="48.49767" lon="7.64087">
        <ele>153</ele>
        <time>2013-03-30T14:32:07Z</time>
      </trkpt>
      <trkpt lat="48.49758" lon="7.64077">
        <ele>152.3</ele>
        <time>2013-03-30T14:32:12Z</time>
      </trkpt>
      <trkpt lat="48.49753" lon="7.64065">
        <ele>151.5</ele>
        <time>2013-03-30T14:32:18Z</time>
      </trkpt>
      <trkpt lat="48.49749" lon="7.64052">
        <ele>151.2</ele>
        <time>2013-03-30T14:32:25Z</time>
      </trkpt>
      <trkpt lat="48.49743" lon="7.64042">
        <ele>151.5</ele>
        <time>2013-03-30T14:32:33Z</time>
      </trkpt>
      <trkpt lat="48.49737" lon="7.64031">
        <ele>151.9</ele>
        <time>2013-03-30T14:32:45Z</time>
      </trkpt>
      <trkpt lat="48.4973" lon="7.64018">
        <ele>152.3</ele>
        <time>2013-03-30T14:32:52Z</time>
      </trkpt>
      <trkpt lat="48.49723" lon="7.64008">
        <ele>152.5</ele>
        <time>2013-03-30T14:32:58Z</time>
      </trkpt>
      <trkpt lat="48.49712" lon="7.64002">
        <ele>152.8</ele>
        <time>2013-03-30T14:33:13Z</time>
      </trkpt>
      <trkpt lat="48.49703" lon="7.63997">
        <ele>153.1</ele>
        <time>2013-03-30T14:33:19Z</time>
      </trkpt>
      <trkpt lat="48.49699" lon="7.63984">
        <ele>153.7</ele>
        <time>2013-03-30T14:33:26Z</time>
      </trkpt>
      <trkpt lat="48.49693" lon="7.63972">
        <ele>154.4</ele>
        <time>2013-03-30T14:33:33Z</time>
      </trkpt>
      <trkpt lat="48.49685" lon="7.63964">
        <ele>155</ele>
        <time>2013-03-30T14:33:43Z</time>
      </trkpt>
      <trkpt lat="48.49678" lon="7.63953">
        <ele>155.6</ele>
        <time>2013-03-30T14:33:50Z</time>
      </trkpt>
      <trkpt lat="48.49672" lon="7.63942">
        <ele>156.3</ele>
        <time>2013-03-30T14:33:56Z</time>
      </trkpt>
      <trkpt lat="48.49665" lon="7.63935">
        <ele>156.1</ele>
        <time>2013-03-30T14:34:04Z</time>
      </trkpt>
      <trkpt lat="48.49656" lon="7.63926">
        <ele>156</ele>
        <time>2013-03-30T14:34:12Z</time>
      </trkpt>
      <trkpt lat="48.49649" lon="7.63914">
        <ele>155.9</ele>
        <time>2013-03-30T14:34:19Z</time>
      </trkpt>
      <trkpt lat="48.49645" lon="7.63902">
        <ele>155.9</ele>
        <time>2013-03-30T14:34:25Z</time>
      </trkpt>
      <trkpt lat="48.4964" lon="7.6389">
        <ele>155.9</ele>
        <time>2013-03-30T14:34:31Z</time>
      </trkpt>
      <trkpt lat="48.49632" lon="7.63883">
        <ele>155.9</ele>
        <time>2013-03-30T14:34:42Z</time>
      </trkpt>
      <trkpt lat="48.49624" lon="7.63874">
        <ele>155.9</ele>
        <time>2013-03-30T14:34:49Z</time>
      </trkpt>
      <trkpt lat="48.49616" lon="7.63864">
        <ele>155.9</ele>
        <time>2013-03-30T14:34:55Z</time>
      </trkpt>
      <trkpt lat="48.49608" lon="7.63855">
        <ele>155.9</ele>
        <time>2013-03-30T14:35:04Z</time>
      </trkpt>
      <trkpt lat="48.49601" lon="7.63843">
        <ele>155.9</ele>
        <time>2013-03-30T14:35:09Z</time>
      </trkpt>
      <trkpt lat="48.49596" lon="7.63831">
        <ele>155.9</ele>
        <time>2013-03-30T14:35:21Z</time>
      </trkpt>
      <trkpt lat="48.49591" lon="7.63817">
        <ele>156</ele>
        <time>2013-03-30T14:35:27Z</time>
      </trkpt>
      <trkpt lat="48.49585" lon="7.63806">
        <ele>156</ele>
        <time>2013-03-30T14:35:41Z</time>
      </trkpt>
      <trkpt lat="48.49578" lon="7.63797">
        <ele>156</ele>
        <time>2013-03-30T14:35:47Z</time>
      </trkpt>
      <trkpt lat="48.49573" lon="7.63785">
        <ele>155.6</ele>
        <time>2013-03-30T14:35:53Z</time>
      </trkpt>
      <trkpt lat="48.49568" lon="7.63773">
        <ele>154.9</ele>
        <time>2013-03-30T14:35:59Z</time>
      </trkpt>
      <trkpt lat="48.49562" lon="7.63762">
        <ele>154.2</ele>
        <time>2013-03-30T14:36:06Z</time>
      </trkpt>
      <trkpt lat="48.49556" lon="7.63748">
        <ele>153.5</ele>
        <time>2013-03-30T14:36:13Z</time>
      </trkpt>
      <trkpt lat="48.49548" lon="7.63739">
        <ele>152.7</ele>
        <time>2013-03-30T14:36:18Z</time>
      </trkpt>
      <trkpt lat="48.49541" lon="7.63731">
        <ele>152</ele>
        <time>2013-03-30T14:36:26Z</time>
      </trkpt>
      <trkpt lat="48.49536" lon="7.63717">
        <ele>151.1</ele>
        <time>2013-03-30T14:36:33Z</time>
      </trkpt>
      <trkpt lat="48.49534" lon="7.63704">
        <ele>150.2</ele>
        <time>2013-03-30T14:36:42Z</time>
      </trkpt>
      <trkpt lat="48.49535" lon="7.6369">
        <ele>149.3</ele>
        <time>2013-03-30T14:36:47Z</time>
      </trkpt>
      <trkpt lat="48.49528" lon="7.63664">
        <ele>148.4</ele>
        <time>2013-03-30T14:37:12Z</time>
      </trkpt>
      <trkpt lat="48.49527" lon="7.63649">
        <ele>147.5</ele>
        <time>2013-03-30T14:37:18Z</time>
      </trkpt>
      <trkpt lat="48.49526" lon="7.63635">
        <ele>146.9</ele>
        <time>2013-03-30T14:37:24Z</time>
      </trkpt>
      <trkpt lat="48.49526" lon="7.63621">
        <ele>146.6</ele>
        <time>2013-03-30T14:37:31Z</time>
      </trkpt>
      <trkpt lat="48.49525" lon="7.63605">
        <ele>146.4</ele>
        <time>2013-03-30T14:37:39Z</time>
      </trkpt>
      <trkpt lat="48.49523" lon="7.63591">
        <ele>146.1</ele>
        <time>2013-03-30T14:37:46Z</time>
      </trkpt>
      <trkpt lat="48.49519" lon="7.63577">
        <ele>145.8</ele>
        <time>2013-03-30T14:37:54Z</time>
      </trkpt>
      <trkpt lat="48.49516" lon="7.63562">
        <ele>145.5</ele>
        <time>2013-03-30T14:38:01Z</time>
      </trkpt>
      <trkpt lat="48.49512" lon="7.6355">
        <ele>145.5</ele>
        <time>2013-03-30T14:38:08Z</time>
      </trkpt>
      <trkpt lat="48.49509" lon="7.63536">
        <ele>145.4</ele>
        <time>2013-03-30T14:38:16Z</time>
      </trkpt>
      <trkpt lat="48.49502" lon="7.63524">
        <ele>145.5</ele>
        <time>2013-03-30T14:38:22Z</time>
      </trkpt>
      <trkpt lat="48.49495" lon="7.63516">
        <ele>145.5</ele>
        <time>2013-03-30T14:38:30Z</time>
      </trkpt>
      <trkpt lat="48.49485" lon="7.63513">
        <ele>145.6</ele>
        <time>2013-03-30T14:38:42Z</time>
      </trkpt>
      <trkpt lat="48.49476" lon="7.63517">
        <ele>145.7</ele>
        <time>2013-03-30T14:38:50Z</time>
      </trkpt>
      <trkpt lat="48.49467" lon="7.63515">
        <ele>145.9</ele>
        <time>2013-03-30T14:38:57Z</time>
      </trkpt>
      <trkpt lat="48.49457" lon="7.63515">
        <ele>146.1</ele>
        <time>2013-03-30T14:39:04Z</time>
      </trkpt>
      <trkpt lat="48.49448" lon="7.63518">
        <ele>146.3</ele>
        <time>2013-03-30T14:39:11Z</time>
      </trkpt>
      <trkpt lat="48.49438" lon="7.63518">
        <ele>146.5</ele>
        <time>2013-03-30T14:39:18Z</time>
      </trkpt>
      <trkpt lat="48.49429" lon="7.63515">
        <ele>146.6</ele>
        <time>2013-03-30T14:39:26Z</time>
      </trkpt>
      <trkpt lat="48.49419" lon="7.63515">
        <ele>147.2</ele>
        <time>2013-03-30T14:39:32Z</time>
      </trkpt>
      <trkpt lat="48.49409" lon="7.63513">
        <ele>147.7</ele>
        <time>2013-03-30T14:39:39Z</time>
      </trkpt>
      <trkpt lat="48.494" lon="7.63512">
        <ele>148.1</ele>
        <time>2013-03-30T14:39:47Z</time>
      </trkpt>
      <trkpt lat="48.49391" lon="7.6351">
        <ele>148.2</ele>
        <time>2013-03-30T14:39:55Z</time>
      </trkpt>
      <trkpt lat="48.49382" lon="7.63503">
        <ele>148.3</ele>
        <time>2013-03-30T14:40:03Z</time>
      </trkpt>
      <trkpt lat="48.49375" lon="7.63494">
        <ele>148.4</ele>
        <time>2013-03-30T14:40:08Z</time>
      </trkpt>
      <trkpt lat="48.49369" lon="7.63483">
        <ele>148.5</ele>
        <time>2013-03-30T14:40:16Z</time>
      </trkpt>
      <trkpt lat="48.49364" lon="7.63471">
        <ele>148.5</ele>
        <time>2013-03-30T14:40:25Z</time>
      </trkpt>
      <trkpt lat="48.4936" lon="7.63457">
        <ele>148.6</ele>
        <time>2013-03-30T14:40:31Z</time>
      </trkpt>
      <trkpt lat="48.49354" lon="7.63442">
        <ele>148.7</ele>
        <time>2013-03-30T14:40:37Z</time>
      </trkpt>
      <trkpt lat="48.49354" lon="7.63429">
        <ele>148.8</ele>
        <time>2013-03-30T14:40:45Z</time>
      </trkpt>
      <trkpt lat="48.49354" lon="7.63415">
        <ele>148.5</ele>
        <time>2013-03-30T14:40:52Z</time>
      </trkpt>
      <trkpt lat="48.49354" lon="7.634">
        <ele>148.3</ele>
        <time>2013-03-30T14:40:59Z</time>
      </trkpt>
      <trkpt lat="48.49357" lon="7.63387">
        <ele>148</ele>
        <time>2013-03-30T14:41:09Z</time>
      </trkpt>
      <trkpt lat="48.4936" lon="7.63372">
        <ele>148</ele>
        <time>2013-03-30T14:41:18Z</time>
      </trkpt>
      <trkpt lat="48.49359" lon="7.63357">
        <ele>147.8</ele>
        <time>2013-03-30T14:41:26Z</time>
      </trkpt>
      <trkpt lat="48.4936" lon="7.63343">
        <ele>147.6</ele>
        <time>2013-03-30T14:41:33Z</time>
      </trkpt>
      <trkpt lat="48.49361" lon="7.6333">
        <ele>147.5</ele>
        <time>2013-03-30T14:41:40Z</time>
      </trkpt>
      <trkpt lat="48.49365" lon="7.63315">
        <ele>147.3</ele>
        <time>2013-03-30T14:41:56Z</time>
      </trkpt>
      <trkpt lat="48.49365" lon="7.633">
        <ele>147.1</ele>
        <time>2013-03-30T14:42:01Z</time>
      </trkpt>
      <trkpt lat="48.49363" lon="7.63285">
        <ele>146.9</ele>
        <time>2013-03-30T14:42:09Z</time>
      </trkpt>
      <trkpt lat="48.49359" lon="7.63273">
        <ele>146.7</ele>
        <time>2013-03-30T14:42:19Z</time>
      </trkpt>
      <trkpt lat="48.49353" lon="7.63261">
        <ele>146.5</ele>
        <time>2013-03-30T14:42:26Z</time>
      </trkpt>
      <trkpt lat="48.49347" lon="7.63248">
        <ele>146.4</ele>
        <time>2013-03-30T14:42:33Z</time>
      </trkpt>
      <trkpt lat="48.4934" lon="7.63238">
        <ele>146.2</ele>
        <time>2013-03-30T14:42:41Z</time>
      </trkpt>
      <trkpt lat="48.49333" lon="7.63226">
        <ele>146</ele>
        <time>2013-03-30T14:42:48Z</time>
      </trkpt>
      <trkpt lat="48.49333" lon="7.63212">
        <ele>146</ele>
        <time>2013-03-30T14:42:59Z</time>
      </trkpt>
      <trkpt lat="48.4933" lon="7.63198">
        <ele>146</ele>
        <time>2013-03-30T14:43:07Z</time>
      </trkpt>
      <trkpt lat="48.49325" lon="7.63186">
        <ele>145.9</ele>
        <time>2013-03-30T14:43:15Z</time>
      </trkpt>
      <trkpt lat="48.49319" lon="7.63174">
        <ele>145.8</ele>
        <time>2013-03-30T14:43:22Z</time>
      </trkpt>
      <trkpt lat="48.49315" lon="7.6316">
        <ele>145.6</ele>
        <time>2013-03-30T14:43:30Z</time>
      </trkpt>
      <trkpt lat="48.49311" lon="7.63147">
        <ele>145.5</ele>
        <time>2013-03-30T14:43:36Z</time>
      </trkpt>
      <trkpt lat="48.49306" lon="7.63134">
        <ele>145.3</ele>
        <time>2013-03-30T14:43:44Z</time>
      </trkpt>
      <trkpt lat="48.49302" lon="7.63121">
        <ele>145.1</ele>
        <time>2013-03-30T14:43:52Z</time>
      </trkpt>
      <trkpt lat="48.49298" lon="7.63108">
        <ele>145</ele>
        <time>2013-03-30T14:44:01Z</time>
      </trkpt>
      <trkpt lat="48.49291" lon="7.63096">
        <ele>144.9</ele>
        <time>2013-03-30T14:44:07Z</time>
      </trkpt>
      <trkpt lat="48.49286" lon="7.63083">
        <ele>144.8</ele>
        <time>2013-03-30T14:44:16Z</time>
      </trkpt>
      <trkpt lat="48.49282" lon="7.63069">
        <ele>144.7</ele>
        <time>2013-03-30T14:44:22Z</time>
      </trkpt>
      <trkpt lat="48.49277" lon="7.63057">
        <ele>144.6</ele>
        <time>2013-03-30T14:44:28Z</time>
      </trkpt>
      <trkpt lat="48.49273" lon="7.63044">
        <ele>144.6</ele>
        <time>2013-03-30T14:44:38Z</time>
      </trkpt>
      <trkpt lat="48.49268" lon="7.63031">
        <ele>144.6</ele>
        <time>2013-03-30T14:44:45Z</time>
      </trkpt>
      <trkpt lat="48.49262" lon="7.63019">
        <ele>144.6</ele>
        <time>2013-03-30T14:44:51Z</time>
      </trkpt>
      <trkpt lat="48.4926" lon="7.63005">
        <ele>144.6</ele>
        <time>2013-03-30T14:44:58Z</time>
      </trkpt>
      <trkpt lat="48.49255" lon="7.62993">
        <ele>144.6</ele>
        <time>2013-03-30T14:45:08Z</time>
      </trkpt>
      <trkpt lat="48.4925" lon="7.6298">
        <ele>144.6</ele>
        <time>2013-03-30T14:45:15Z</time>
      </trkpt>
      <trkpt lat="48.49244" lon="7.62968">
        <ele>144.5</ele>
        <time>2013-03-30T14:45:22Z</time>
      </trkpt>
      <trkpt lat="48.49241" lon="7.62955">
        <ele>144.5</ele>
        <time>2013-03-30T14:45:28Z</time>
      </trkpt>
      <trkpt lat="48.49237" lon="7.62942">
        <ele>144.5</ele>
        <time>2013-03-30T14:45:36Z</time>
      </trkpt>
      <trkpt lat="48.49231" lon="7.62929">
        <ele>144.5</ele>
        <time>2013-03-30T14:45:44Z</time>
      </trkpt>
      <trkpt lat="48.49225" lon="7.62917">
        <ele>144.5</ele>
        <time>2013-03-30T14:45:51Z</time>
      </trkpt>
      <trkpt lat="48.49221" lon="7.62902">
        <ele>144.5</ele>
        <time>2013-03-30T14:45:53Z</time>
      </trkpt>
      <trkpt lat="48.49219" lon="7.62888">
        <ele>144.5</ele>
        <time>2013-03-30T14:46:04Z</time>
      </trkpt>
      <trkpt lat="48.49209" lon="7.62865">
        <ele>144.5</ele>
        <time>2013-03-30T14:46:18Z</time>
      </trkpt>
      <trkpt lat="48.49204" lon="7.62854">
        <ele>144.7</ele>
        <time>2013-03-30T14:46:24Z</time>
      </trkpt>
      <trkpt lat="48.49199" lon="7.62841">
        <ele>144.9</ele>
        <time>2013-03-30T14:46:33Z</time>
      </trkpt>
      <trkpt lat="48.49193" lon="7.62829">
        <ele>145.1</ele>
        <time>2013-03-30T14:46:44Z</time>
      </trkpt>
      <trkpt lat="48.49188" lon="7.62817">
        <ele>145.3</ele>
        <time>2013-03-30T14:46:52Z</time>
      </trkpt>
      <trkpt lat="48.49183" lon="7.62806">
        <ele>145.5</ele>
        <time>2013-03-30T14:47:00Z</time>
      </trkpt>
      <trkpt lat="48.49179" lon="7.62794">
        <ele>145.5</ele>
        <time>2013-03-30T14:47:07Z</time>
      </trkpt>
      <trkpt lat="48.49174" lon="7.62781">
        <ele>145.7</ele>
        <time>2013-03-30T14:47:16Z</time>
      </trkpt>
      <trkpt lat="48.49169" lon="7.62769">
        <ele>145.9</ele>
        <time>2013-03-30T14:47:24Z</time>
      </trkpt>
      <trkpt lat="48.49164" lon="7.62756">
        <ele>146.1</ele>
        <time>2013-03-30T14:47:32Z</time>
      </trkpt>
      <trkpt lat="48.4916" lon="7.62743">
        <ele>146.3</ele>
        <time>2013-03-30T14:47:37Z</time>
      </trkpt>
      <trkpt lat="48.49156" lon="7.6273">
        <ele>146.5</ele>
        <time>2013-03-30T14:47:42Z</time>
      </trkpt>
      <trkpt lat="48.49152" lon="7.62716">
        <ele>146.4</ele>
        <time>2013-03-30T14:47:48Z</time>
      </trkpt>
      <trkpt lat="48.49145" lon="7.62705">
        <ele>146.3</ele>
        <time>2013-03-30T14:47:53Z</time>
      </trkpt>
      <trkpt lat="48.4914" lon="7.62693">
        <ele>146.5</ele>
        <time>2013-03-30T14:48:05Z</time>
      </trkpt>
      <trkpt lat="48.49135" lon="7.6268">
        <ele>146.6</ele>
        <time>2013-03-30T14:48:12Z</time>
      </trkpt>
      <trkpt lat="48.49131" lon="7.62668">
        <ele>146.8</ele>
        <time>2013-03-30T14:48:22Z</time>
      </trkpt>
      <trkpt lat="48.49126" lon="7.62657">
        <ele>147</ele>
        <time>2013-03-30T14:48:29Z</time>
      </trkpt>
      <trkpt lat="48.49121" lon="7.62643">
        <ele>147.1</ele>
        <time>2013-03-30T14:48:36Z</time>
      </trkpt>
      <trkpt lat="48.49117" lon="7.62629">
        <ele>147.2</ele>
        <time>2013-03-30T14:48:43Z</time>
      </trkpt>
      <trkpt lat="48.49111" lon="7.62613">
        <ele>147.2</ele>
        <time>2013-03-30T14:49:00Z</time>
      </trkpt>
      <trkpt lat="48.49104" lon="7.62601">
        <ele>147.2</ele>
        <time>2013-03-30T14:49:05Z</time>
      </trkpt>
      <trkpt lat="48.49098" lon="7.62591">
        <ele>147.2</ele>
        <time>2013-03-30T14:49:12Z</time>
      </trkpt>
      <trkpt lat="48.49092" lon="7.6258">
        <ele>147.4</ele>
        <time>2013-03-30T14:49:18Z</time>
      </trkpt>
      <trkpt lat="48.49088" lon="7.62566">
        <ele>147.5</ele>
        <time>2013-03-30T14:49:24Z</time>
      </trkpt>
      <trkpt lat="48.49087" lon="7.6255">
        <ele>147.5</ele>
        <time>2013-03-30T14:49:35Z</time>
      </trkpt>
      <trkpt lat="48.49086" lon="7.62536">
        <ele>147.4</ele>
        <time>2013-03-30T14:49:43Z</time>
      </trkpt>
      <trkpt lat="48.49083" lon="7.62523">
        <ele>147.3</ele>
        <time>2013-03-30T14:49:53Z</time>
      </trkpt>
      <trkpt lat="48.49078" lon="7.6251">
        <ele>147.2</ele>
        <time>2013-03-30T14:50:00Z</time>
      </trkpt>
      <trkpt lat="48.49084" lon="7.62498">
        <ele>147</ele>
        <time>2013-03-30T14:50:10Z</time>
      </trkpt>
      <trkpt lat="48.49092" lon="7.62492">
        <ele>146.8</ele>
        <time>2013-03-30T14:50:20Z</time>
      </trkpt>
      <trkpt lat="48.491" lon="7.62485">
        <ele>146.7</ele>
        <time>2013-03-30T14:50:30Z</time>
      </trkpt>
      <trkpt lat="48.49107" lon="7.62477">
        <ele>146.6</ele>
        <time>2013-03-30T14:50:35Z</time>
      </trkpt>
      <trkpt lat="48.49112" lon="7.62463">
        <ele>146.5</ele>
        <time>2013-03-30T14:50:41Z</time>
      </trkpt>
      <trkpt lat="48.4911" lon="7.62449">
        <ele>146.5</ele>
        <time>2013-03-30T14:50:51Z</time>
      </trkpt>
      <trkpt lat="48.49106" lon="7.62436">
        <ele>146.2</ele>
        <time>2013-03-30T14:50:58Z</time>
      </trkpt>
      <trkpt lat="48.49103" lon="7.62423">
        <ele>145.9</ele>
        <time>2013-03-30T14:51:05Z</time>
      </trkpt>
      <trkpt lat="48.49106" lon="7.62409">
        <ele>145.6</ele>
        <time>2013-03-30T14:51:16Z</time>
      </trkpt>
      <trkpt lat="48.49103" lon="7.62395">
        <ele>145.4</ele>
        <time>2013-03-30T14:51:23Z</time>
      </trkpt>
      <trkpt lat="48.491" lon="7.62382">
        <ele>145.1</ele>
        <time>2013-03-30T14:51:29Z</time>
      </trkpt>
      <trkpt lat="48.49096" lon="7.62368">
        <ele>144.9</ele>
        <time>2013-03-30T14:51:33Z</time>
      </trkpt>
      <trkpt lat="48.49093" lon="7.62355">
        <ele>144.7</ele>
        <time>2013-03-30T14:51:40Z</time>
      </trkpt>
      <trkpt lat="48.49094" lon="7.62341">
        <ele>144.5</ele>
        <time>2013-03-30T14:51:49Z</time>
      </trkpt>
      <trkpt lat="48.49092" lon="7.62326">
        <ele>144.4</ele>
        <time>2013-03-30T14:51:58Z</time>
      </trkpt>
      <trkpt lat="48.4909" lon="7.62313">
        <ele>144.2</ele>
        <time>2013-03-30T14:52:05Z</time>
      </trkpt>
      <trkpt lat="48.49091" lon="7.62299">
        <ele>144</ele>
        <time>2013-03-30T14:52:14Z</time>
      </trkpt>
      <trkpt lat="48.49089" lon="7.62284">
        <ele>144</ele>
        <time>2013-03-30T14:52:22Z</time>
      </trkpt>
      <trkpt lat="48.49086" lon="7.62271">
        <ele>144</ele>
        <time>2013-03-30T14:52:30Z</time>
      </trkpt>
      <trkpt lat="48.49084" lon="7.62256">
        <ele>144</ele>
        <time>2013-03-30T14:52:36Z</time>
      </trkpt>
      <trkpt lat="48.49083" lon="7.62242">
        <ele>144</ele>
        <time>2013-03-30T14:52:42Z</time>
      </trkpt>
      <trkpt lat="48.49082" lon="7.62228">
        <ele>144</ele>
        <time>2013-03-30T14:52:48Z</time>
      </trkpt>
      <trkpt lat="48.49079" lon="7.62215">
        <ele>144</ele>
        <time>2013-03-30T14:52:56Z</time>
      </trkpt>
      <trkpt lat="48.4908" lon="7.622">
        <ele>144</ele>
        <time>2013-03-30T14:53:04Z</time>
      </trkpt>
      <trkpt lat="48.49078" lon="7.62186">
        <ele>144.1</ele>
        <time>2013-03-30T14:53:14Z</time>
      </trkpt>
      <trkpt lat="48.49072" lon="7.62174">
        <ele>144.2</ele>
        <time>2013-03-30T14:53:25Z</time>
      </trkpt>
      <trkpt lat="48.49071" lon="7.6216">
        <ele>144.3</ele>
        <time>2013-03-30T14:53:33Z</time>
      </trkpt>
      <trkpt lat="48.4907" lon="7.62145">
        <ele>144.4</ele>
        <time>2013-03-30T14:53:42Z</time>
      </trkpt>
      <trkpt lat="48.49068" lon="7.62131">
        <ele>144.5</ele>
        <time>2013-03-30T14:53:48Z</time>
      </trkpt>
      <trkpt lat="48.49062" lon="7.62117">
        <ele>144.6</ele>
        <time>2013-03-30T14:53:56Z</time>
      </trkpt>
      <trkpt lat="48.49061" lon="7.62103">
        <ele>144.7</ele>
        <time>2013-03-30T14:54:04Z</time>
      </trkpt>
      <trkpt lat="48.49057" lon="7.62089">
        <ele>144.8</ele>
        <time>2013-03-30T14:54:12Z</time>
      </trkpt>
      <trkpt lat="48.49053" lon="7.62075">
        <ele>144.9</ele>
        <time>2013-03-30T14:54:21Z</time>
      </trkpt>
      <trkpt lat="48.49051" lon="7.62061">
        <ele>145</ele>
        <time>2013-03-30T14:54:27Z</time>
      </trkpt>
      <trkpt lat="48.49047" lon="7.62047">
        <ele>145.1</ele>
        <time>2013-03-30T14:54:38Z</time>
      </trkpt>
      <trkpt lat="48.49045" lon="7.62034">
        <ele>145</ele>
        <time>2013-03-30T14:54:44Z</time>
      </trkpt>
      <trkpt lat="48.49044" lon="7.62019">
        <ele>144.9</ele>
        <time>2013-03-30T14:54:50Z</time>
      </trkpt>
      <trkpt lat="48.49041" lon="7.62006">
        <ele>144.8</ele>
        <time>2013-03-30T14:54:56Z</time>
      </trkpt>
      <trkpt lat="48.49036" lon="7.61992">
        <ele>144.7</ele>
        <time>2013-03-30T14:55:04Z</time>
      </trkpt>
      <trkpt lat="48.49032" lon="7.61978">
        <ele>144.6</ele>
        <time>2013-03-30T14:55:12Z</time>
      </trkpt>
      <trkpt lat="48.4903" lon="7.61964">
        <ele>144.5</ele>
        <time>2013-03-30T14:55:18Z</time>
      </trkpt>
      <trkpt lat="48.49027" lon="7.6195">
        <ele>144.5</ele>
        <time>2013-03-30T14:55:25Z</time>
      </trkpt>
      <trkpt lat="48.49024" lon="7.61937">
        <ele>144.6</ele>
        <time>2013-03-30T14:55:31Z</time>
      </trkpt>
      <trkpt lat="48.49021" lon="7.61922">
        <ele>144.7</ele>
        <time>2013-03-30T14:55:38Z</time>
      </trkpt>
      <trkpt lat="48.49016" lon="7.61911">
        <ele>144.8</ele>
        <time>2013-03-30T14:55:47Z</time>
      </trkpt>
      <trkpt lat="48.49015" lon="7.61897">
        <ele>144.9</ele>
        <time>2013-03-30T14:55:57Z</time>
      </trkpt>
      <trkpt lat="48.49014" lon="7.61883">
        <ele>145.1</ele>
        <time>2013-03-30T14:56:07Z</time>
      </trkpt>
      <trkpt lat="48.4901" lon="7.61869">
        <ele>145.4</ele>
        <time>2013-03-30T14:56:14Z</time>
      </trkpt>
      <trkpt lat="48.49008" lon="7.61854">
        <ele>145.6</ele>
        <time>2013-03-30T14:56:21Z</time>
      </trkpt>
      <trkpt lat="48.49005" lon="7.6184">
        <ele>145.9</ele>
        <time>2013-03-30T14:56:27Z</time>
      </trkpt>
      <trkpt lat="48.49003" lon="7.61825">
        <ele>146.2</ele>
        <time>2013-03-30T14:56:35Z</time>
      </trkpt>
      <trkpt lat="48.49002" lon="7.6181">
        <ele>146.5</ele>
        <time>2013-03-30T14:56:44Z</time>
      </trkpt>
      <trkpt lat="48.48998" lon="7.61798">
        <ele>146.5</ele>
        <time>2013-03-30T14:56:51Z</time>
      </trkpt>
      <trkpt lat="48.48995" lon="7.61784">
        <ele>147.1</ele>
        <time>2013-03-30T14:56:58Z</time>
      </trkpt>
      <trkpt lat="48.48989" lon="7.6177">
        <ele>147.6</ele>
        <time>2013-03-30T14:57:04Z</time>
      </trkpt>
      <trkpt lat="48.48984" lon="7.61758">
        <ele>148.2</ele>
        <time>2013-03-30T14:57:08Z</time>
      </trkpt>
      <trkpt lat="48.48984" lon="7.61744">
        <ele>148.7</ele>
        <time>2013-03-30T14:57:15Z</time>
      </trkpt>
      <trkpt lat="48.48984" lon="7.61729">
        <ele>149.3</ele>
        <time>2013-03-30T14:57:25Z</time>
      </trkpt>
      <trkpt lat="48.48983" lon="7.61715">
        <ele>149.7</ele>
        <time>2013-03-30T14:57:33Z</time>
      </trkpt>
      <trkpt lat="48.48977" lon="7.61704">
        <ele>150.2</ele>
        <time>2013-03-30T14:57:39Z</time>
      </trkpt>
      <trkpt lat="48.48976" lon="7.6169">
        <ele>150.5</ele>
        <time>2013-03-30T14:57:45Z</time>
      </trkpt>
      <trkpt lat="48.48979" lon="7.61677">
        <ele>150.9</ele>
        <time>2013-03-30T14:58:00Z</time>
      </trkpt>
      <trkpt lat="48.48982" lon="7.61662">
        <ele>151.4</ele>
        <time>2013-03-30T14:58:09Z</time>
      </trkpt>
      <trkpt lat="48.4898" lon="7.61648">
        <ele>152</ele>
        <time>2013-03-30T14:58:21Z</time>
      </trkpt>
      <trkpt lat="48.48984" lon="7.61658">
        <ele>152</ele>
        <time>2013-03-30T14:58:50Z</time>
      </trkpt>
      <trkpt lat="48.48982" lon="7.61646">
        <ele>149.5</ele>
        <time>2013-03-30T14:59:07Z</time>
      </trkpt>
      <trkpt lat="48.48982" lon="7.61634">
        <ele>149.4</ele>
        <time>2013-03-30T14:59:22Z</time>
      </trkpt>
      <trkpt lat="48.48985" lon="7.6162">
        <ele>149.1</ele>
        <time>2013-03-30T14:59:32Z</time>
      </trkpt>
      <trkpt lat="48.48986" lon="7.61605">
        <ele>148.9</ele>
        <time>2013-03-30T14:59:41Z</time>
      </trkpt>
      <trkpt lat="48.48987" lon="7.6159">
        <ele>148.7</ele>
        <time>2013-03-30T14:59:50Z</time>
      </trkpt>
      <trkpt lat="48.48982" lon="7.61579">
        <ele>148.5</ele>
        <time>2013-03-30T14:59:54Z</time>
      </trkpt>
      <trkpt lat="48.48982" lon="7.61565">
        <ele>148.1</ele>
        <time>2013-03-30T15:00:02Z</time>
      </trkpt>
      <trkpt lat="48.48982" lon="7.61551">
        <ele>147.9</ele>
        <time>2013-03-30T15:00:11Z</time>
      </trkpt>
      <trkpt lat="48.48977" lon="7.61538">
        <ele>147.7</ele>
        <time>2013-03-30T15:00:21Z</time>
      </trkpt>
      <trkpt lat="48.48978" lon="7.61524">
        <ele>147.7</ele>
        <time>2013-03-30T15:00:26Z</time>
      </trkpt>
      <trkpt lat="48.48977" lon="7.61509">
        <ele>147.7</ele>
        <time>2013-03-30T15:00:33Z</time>
      </trkpt>
      <trkpt lat="48.48976" lon="7.61494">
        <ele>147.7</ele>
        <time>2013-03-30T15:00:44Z</time>
      </trkpt>
      <trkpt lat="48.48975" lon="7.61479">
        <ele>147.7</ele>
        <time>2013-03-30T15:00:48Z</time>
      </trkpt>
      <trkpt lat="48.48974" lon="7.61465">
        <ele>147.9</ele>
        <time>2013-03-30T15:00:56Z</time>
      </trkpt>
      <trkpt lat="48.48972" lon="7.61451">
        <ele>148.1</ele>
        <time>2013-03-30T15:01:02Z</time>
      </trkpt>
      <trkpt lat="48.48971" lon="7.61437">
        <ele>148.1</ele>
        <time>2013-03-30T15:01:10Z</time>
      </trkpt>
      <trkpt lat="48.4897" lon="7.61422">
        <ele>148.1</ele>
        <time>2013-03-30T15:01:16Z</time>
      </trkpt>
      <trkpt lat="48.4897" lon="7.61407">
        <ele>148.1</ele>
        <time>2013-03-30T15:01:24Z</time>
      </trkpt>
      <trkpt lat="48.48968" lon="7.61393">
        <ele>147.8</ele>
        <time>2013-03-30T15:01:31Z</time>
      </trkpt>
      <trkpt lat="48.48968" lon="7.61377">
        <ele>147.5</ele>
        <time>2013-03-30T15:01:39Z</time>
      </trkpt>
      <trkpt lat="48.48968" lon="7.61363">
        <ele>147.2</ele>
        <time>2013-03-30T15:01:48Z</time>
      </trkpt>
      <trkpt lat="48.48966" lon="7.61348">
        <ele>146.8</ele>
        <time>2013-03-30T15:01:56Z</time>
      </trkpt>
      <trkpt lat="48.48964" lon="7.61333">
        <ele>146.5</ele>
        <time>2013-03-30T15:02:06Z</time>
      </trkpt>
      <trkpt lat="48.48963" lon="7.61318">
        <ele>146.1</ele>
        <time>2013-03-30T15:02:14Z</time>
      </trkpt>
      <trkpt lat="48.48962" lon="7.61304">
        <ele>145.7</ele>
        <time>2013-03-30T15:02:22Z</time>
      </trkpt>
      <trkpt lat="48.48961" lon="7.61289">
        <ele>145.4</ele>
        <time>2013-03-30T15:02:33Z</time>
      </trkpt>
      <trkpt lat="48.48961" lon="7.61273">
        <ele>145.4</ele>
        <time>2013-03-30T15:02:40Z</time>
      </trkpt>
      <trkpt lat="48.48961" lon="7.61259">
        <ele>145.4</ele>
        <time>2013-03-30T15:02:47Z</time>
      </trkpt>
      <trkpt lat="48.4896" lon="7.61244">
        <ele>145.4</ele>
        <time>2013-03-30T15:02:55Z</time>
      </trkpt>
      <trkpt lat="48.4896" lon="7.61229">
        <ele>145.6</ele>
        <time>2013-03-30T15:03:02Z</time>
      </trkpt>
      <trkpt lat="48.48959" lon="7.61213">
        <ele>145.9</ele>
        <time>2013-03-30T15:03:10Z</time>
      </trkpt>
      <trkpt lat="48.48958" lon="7.61199">
        <ele>146.3</ele>
        <time>2013-03-30T15:03:19Z</time>
      </trkpt>
      <trkpt lat="48.48956" lon="7.61185">
        <ele>146.6</ele>
        <time>2013-03-30T15:03:27Z</time>
      </trkpt>
      <trkpt lat="48.48956" lon="7.61172">
        <ele>147</ele>
        <time>2013-03-30T15:03:33Z</time>
      </trkpt>
      <trkpt lat="48.48955" lon="7.61156">
        <ele>147.4</ele>
        <time>2013-03-30T15:03:42Z</time>
      </trkpt>
      <trkpt lat="48.48954" lon="7.61142">
        <ele>147.7</ele>
        <time>2013-03-30T15:03:51Z</time>
      </trkpt>
      <trkpt lat="48.48955" lon="7.61128">
        <ele>148.1</ele>
        <time>2013-03-30T15:04:03Z</time>
      </trkpt>
      <trkpt lat="48.48953" lon="7.61113">
        <ele>148.5</ele>
        <time>2013-03-30T15:04:12Z</time>
      </trkpt>
      <trkpt lat="48.4895" lon="7.611">
        <ele>148.8</ele>
        <time>2013-03-30T15:04:17Z</time>
      </trkpt>
      <trkpt lat="48.48949" lon="7.61084">
        <ele>149.2</ele>
        <time>2013-03-30T15:04:22Z</time>
      </trkpt>
      <trkpt lat="48.48948" lon="7.61071">
        <ele>149.5</ele>
        <time>2013-03-30T15:04:29Z</time>
      </trkpt>
      <trkpt lat="48.48948" lon="7.61056">
        <ele>149.9</ele>
        <time>2013-03-30T15:04:37Z</time>
      </trkpt>
      <trkpt lat="48.48944" lon="7.61041">
        <ele>150.1</ele>
        <time>2013-03-30T15:04:43Z</time>
      </trkpt>
      <trkpt lat="48.4894" lon="7.61027">
        <ele>150</ele>
        <time>2013-03-30T15:04:50Z</time>
      </trkpt>
      <trkpt lat="48.48937" lon="7.61013">
        <ele>149.9</ele>
        <time>2013-03-30T15:04:59Z</time>
      </trkpt>
      <trkpt lat="48.48942" lon="7.61">
        <ele>149.8</ele>
        <time>2013-03-30T15:05:07Z</time>
      </trkpt>
      <trkpt lat="48.48948" lon="7.60989">
        <ele>149.7</ele>
        <time>2013-03-30T15:05:16Z</time>
      </trkpt>
      <trkpt lat="48.48954" lon="7.60978">
        <ele>149.6</ele>
        <time>2013-03-30T15:05:29Z</time>
      </trkpt>
      <trkpt lat="48.48953" lon="7.60963">
        <ele>149.4</ele>
        <time>2013-03-30T15:05:36Z</time>
      </trkpt>
      <trkpt lat="48.4895" lon="7.6095">
        <ele>149</ele>
        <time>2013-03-30T15:05:43Z</time>
      </trkpt>
      <trkpt lat="48.48948" lon="7.60934">
        <ele>148.6</ele>
        <time>2013-03-30T15:05:48Z</time>
      </trkpt>
      <trkpt lat="48.48946" lon="7.60919">
        <ele>148.3</ele>
        <time>2013-03-30T15:05:53Z</time>
      </trkpt>
      <trkpt lat="48.48945" lon="7.60903">
        <ele>147.9</ele>
        <time>2013-03-30T15:06:00Z</time>
      </trkpt>
      <trkpt lat="48.48944" lon="7.60888">
        <ele>147.5</ele>
        <time>2013-03-30T15:06:08Z</time>
      </trkpt>
      <trkpt lat="48.48941" lon="7.60873">
        <ele>147.5</ele>
        <time>2013-03-30T15:06:14Z</time>
      </trkpt>
      <trkpt lat="48.48939" lon="7.60858">
        <ele>147.5</ele>
        <time>2013-03-30T15:06:22Z</time>
      </trkpt>
      <trkpt lat="48.48937" lon="7.60843">
        <ele>147.5</ele>
        <time>2013-03-30T15:06:30Z</time>
      </trkpt>
      <trkpt lat="48.48934" lon="7.60829">
        <ele>147.5</ele>
        <time>2013-03-30T15:06:43Z</time>
      </trkpt>
      <trkpt lat="48.48929" lon="7.60816">
        <ele>147.5</ele>
        <time>2013-03-30T15:06:54Z</time>
      </trkpt>
      <trkpt lat="48.48928" lon="7.60803">
        <ele>147.5</ele>
        <time>2013-03-30T15:07:01Z</time>
      </trkpt>
      <trkpt lat="48.48926" lon="7.60788">
        <ele>147.6</ele>
        <time>2013-03-30T15:07:09Z</time>
      </trkpt>
      <trkpt lat="48.48923" lon="7.60775">
        <ele>147.8</ele>
        <time>2013-03-30T15:07:16Z</time>
      </trkpt>
      <trkpt lat="48.48922" lon="7.6076">
        <ele>148</ele>
        <time>2013-03-30T15:07:27Z</time>
      </trkpt>
      <trkpt lat="48.48921" lon="7.60745">
        <ele>148.2</ele>
        <time>2013-03-30T15:07:35Z</time>
      </trkpt>
      <trkpt lat="48.48918" lon="7.60732">
        <ele>148.4</ele>
        <time>2013-03-30T15:07:41Z</time>
      </trkpt>
      <trkpt lat="48.48917" lon="7.60716">
        <ele>148.5</ele>
        <time>2013-03-30T15:07:48Z</time>
      </trkpt>
      <trkpt lat="48.48916" lon="7.60702">
        <ele>148.6</ele>
        <time>2013-03-30T15:07:58Z</time>
      </trkpt>
      <trkpt lat="48.48918" lon="7.60688">
        <ele>148.7</ele>
        <time>2013-03-30T15:08:04Z</time>
      </trkpt>
      <trkpt lat="48.48916" lon="7.60673">
        <ele>148.8</ele>
        <time>2013-03-30T15:08:10Z</time>
      </trkpt>
      <trkpt lat="48.48909" lon="7.60665">
        <ele>148.9</ele>
        <time>2013-03-30T15:08:15Z</time>
      </trkpt>
      <trkpt lat="48.48902" lon="7.60655">
        <ele>149</ele>
        <time>2013-03-30T15:08:26Z</time>
      </trkpt>
      <trkpt lat="48.48902" lon="7.60641">
        <ele>149</ele>
        <time>2013-03-30T15:08:34Z</time>
      </trkpt>
      <trkpt lat="48.48901" lon="7.60626">
        <ele>149</ele>
        <time>2013-03-30T15:08:46Z</time>
      </trkpt>
      <trkpt lat="48.48902" lon="7.60611">
        <ele>149</ele>
        <time>2013-03-30T15:08:51Z</time>
      </trkpt>
      <trkpt lat="48.48897" lon="7.60598">
        <ele>149</ele>
        <time>2013-03-30T15:08:58Z</time>
      </trkpt>
      <trkpt lat="48.48895" lon="7.60583">
        <ele>149</ele>
        <time>2013-03-30T15:09:06Z</time>
      </trkpt>
      <trkpt lat="48.48893" lon="7.60567">
        <ele>149</ele>
        <time>2013-03-30T15:09:13Z</time>
      </trkpt>
      <trkpt lat="48.4889" lon="7.60553">
        <ele>149.2</ele>
        <time>2013-03-30T15:09:19Z</time>
      </trkpt>
      <trkpt lat="48.48889" lon="7.60539">
        <ele>149.4</ele>
        <time>2013-03-30T15:09:25Z</time>
      </trkpt>
      <trkpt lat="48.48888" lon="7.60525">
        <ele>149.5</ele>
        <time>2013-03-30T15:09:35Z</time>
      </trkpt>
      <trkpt lat="48.48887" lon="7.6051">
        <ele>149.5</ele>
        <time>2013-03-30T15:09:41Z</time>
      </trkpt>
      <trkpt lat="48.48882" lon="7.60497">
        <ele>149.6</ele>
        <time>2013-03-30T15:09:48Z</time>
      </trkpt>
      <trkpt lat="48.48881" lon="7.60482">
        <ele>149.7</ele>
        <time>2013-03-30T15:10:00Z</time>
      </trkpt>
      <trkpt lat="48.48877" lon="7.60467">
        <ele>149.8</ele>
        <time>2013-03-30T15:10:06Z</time>
      </trkpt>
      <trkpt lat="48.48877" lon="7.60452">
        <ele>149.9</ele>
        <time>2013-03-30T15:10:13Z</time>
      </trkpt>
      <trkpt lat="48.48875" lon="7.60438">
        <ele>150</ele>
        <time>2013-03-30T15:10:23Z</time>
      </trkpt>
      <trkpt lat="48.48872" lon="7.60425">
        <ele>150.1</ele>
        <time>2013-03-30T15:10:30Z</time>
      </trkpt>
      <trkpt lat="48.4887" lon="7.60411">
        <ele>150.2</ele>
        <time>2013-03-30T15:10:38Z</time>
      </trkpt>
      <trkpt lat="48.48868" lon="7.60398">
        <ele>150.2</ele>
        <time>2013-03-30T15:10:45Z</time>
      </trkpt>
      <trkpt lat="48.48867" lon="7.60383">
        <ele>150.2</ele>
        <time>2013-03-30T15:10:53Z</time>
      </trkpt>
      <trkpt lat="48.48868" lon="7.60369">
        <ele>150.3</ele>
        <time>2013-03-30T15:11:00Z</time>
      </trkpt>
      <trkpt lat="48.48871" lon="7.60356">
        <ele>150.4</ele>
        <time>2013-03-30T15:11:08Z</time>
      </trkpt>
      <trkpt lat="48.48877" lon="7.60344">
        <ele>150.5</ele>
        <time>2013-03-30T15:11:15Z</time>
      </trkpt>
      <trkpt lat="48.48886" lon="7.6034">
        <ele>150.5</ele>
        <time>2013-03-30T15:11:26Z</time>
      </trkpt>
      <trkpt lat="48.48895" lon="7.60341">
        <ele>150.6</ele>
        <time>2013-03-30T15:11:35Z</time>
      </trkpt>
      <trkpt lat="48.48914" lon="7.60346">
        <ele>150.6</ele>
        <time>2013-03-30T15:11:56Z</time>
      </trkpt>
      <trkpt lat="48.48923" lon="7.6035">
        <ele>150.6</ele>
        <time>2013-03-30T15:12:06Z</time>
      </trkpt>
      <trkpt lat="48.48934" lon="7.60354">
        <ele>150.6</ele>
        <time>2013-03-30T15:12:15Z</time>
      </trkpt>
      <trkpt lat="48.48943" lon="7.60354">
        <ele>150.6</ele>
        <time>2013-03-30T15:12:21Z</time>
      </trkpt>
      <trkpt lat="48.48954" lon="7.60357">
        <ele>150.5</ele>
        <time>2013-03-30T15:12:29Z</time>
      </trkpt>
      <trkpt lat="48.48965" lon="7.60359">
        <ele>150.5</ele>
        <time>2013-03-30T15:12:36Z</time>
      </trkpt>
      <trkpt lat="48.48974" lon="7.60359">
        <ele>150.4</ele>
        <time>2013-03-30T15:12:40Z</time>
      </trkpt>
      <trkpt lat="48.48983" lon="7.60359">
        <ele>150.3</ele>
        <time>2013-03-30T15:12:54Z</time>
      </trkpt>
      <trkpt lat="48.48993" lon="7.60359">
        <ele>150.2</ele>
        <time>2013-03-30T15:13:05Z</time>
      </trkpt>
      <trkpt lat="48.49004" lon="7.60359">
        <ele>150.5</ele>
        <time>2013-03-30T15:13:14Z</time>
      </trkpt>
      <trkpt lat="48.49014" lon="7.60358">
        <ele>150.7</ele>
        <time>2013-03-30T15:13:20Z</time>
      </trkpt>
      <trkpt lat="48.49024" lon="7.60359">
        <ele>151.1</ele>
        <time>2013-03-30T15:13:32Z</time>
      </trkpt>
      <trkpt lat="48.49033" lon="7.60359">
        <ele>151.5</ele>
        <time>2013-03-30T15:13:38Z</time>
      </trkpt>
      <trkpt lat="48.49043" lon="7.60357">
        <ele>151.8</ele>
        <time>2013-03-30T15:13:50Z</time>
      </trkpt>
      <trkpt lat="48.49051" lon="7.60351">
        <ele>152.2</ele>
        <time>2013-03-30T15:13:58Z</time>
      </trkpt>
      <trkpt lat="48.49058" lon="7.6034">
        <ele>152.5</ele>
        <time>2013-03-30T15:14:06Z</time>
      </trkpt>
      <trkpt lat="48.4906" lon="7.60327">
        <ele>152.9</ele>
        <time>2013-03-30T15:14:15Z</time>
      </trkpt>
      <trkpt lat="48.49061" lon="7.6031">
        <ele>153.3</ele>
        <time>2013-03-30T15:14:27Z</time>
      </trkpt>
      <trkpt lat="48.49064" lon="7.60297">
        <ele>153.6</ele>
        <time>2013-03-30T15:14:32Z</time>
      </trkpt>
      <trkpt lat="48.49066" lon="7.60283">
        <ele>154</ele>
        <time>2013-03-30T15:14:42Z</time>
      </trkpt>
      <trkpt lat="48.49068" lon="7.60269">
        <ele>154.3</ele>
        <time>2013-03-30T15:14:54Z</time>
      </trkpt>
      <trkpt lat="48.49073" lon="7.60256">
        <ele>154.5</ele>
        <time>2013-03-30T15:15:03Z</time>
      </trkpt>
      <trkpt lat="48.49079" lon="7.60243">
        <ele>154.8</ele>
        <time>2013-03-30T15:15:14Z</time>
      </trkpt>
      <trkpt lat="48.49084" lon="7.60233">
        <ele>155.1</ele>
        <time>2013-03-30T15:15:22Z</time>
      </trkpt>
      <trkpt lat="48.4909" lon="7.6022">
        <ele>155.4</ele>
        <time>2013-03-30T15:15:30Z</time>
      </trkpt>
      <trkpt lat="48.49094" lon="7.60206">
        <ele>155.6</ele>
        <time>2013-03-30T15:15:38Z</time>
      </trkpt>
      <trkpt lat="48.49102" lon="7.60197">
        <ele>155.9</ele>
        <time>2013-03-30T15:15:43Z</time>
      </trkpt>
      <trkpt lat="48.49108" lon="7.60186">
        <ele>156.2</ele>
        <time>2013-03-30T15:15:51Z</time>
      </trkpt>
      <trkpt lat="48.49104" lon="7.60173">
        <ele>156.5</ele>
        <time>2013-03-30T15:15:55Z</time>
      </trkpt>
      <trkpt lat="48.49107" lon="7.60159">
        <ele>156.7</ele>
        <time>2013-03-30T15:16:03Z</time>
      </trkpt>
      <trkpt lat="48.49108" lon="7.60145">
        <ele>156.4</ele>
        <time>2013-03-30T15:16:12Z</time>
      </trkpt>
      <trkpt lat="48.49109" lon="7.6013">
        <ele>155.7</ele>
        <time>2013-03-30T15:16:19Z</time>
      </trkpt>
      <trkpt lat="48.49117" lon="7.6012">
        <ele>155.1</ele>
        <time>2013-03-30T15:16:24Z</time>
      </trkpt>
      <trkpt lat="48.49122" lon="7.60109">
        <ele>154.6</ele>
        <time>2013-03-30T15:16:30Z</time>
      </trkpt>
      <trkpt lat="48.49125" lon="7.60094">
        <ele>154.2</ele>
        <time>2013-03-30T15:16:37Z</time>
      </trkpt>
      <trkpt lat="48.49128" lon="7.60081">
        <ele>153.7</ele>
        <time>2013-03-30T15:16:46Z</time>
      </trkpt>
      <trkpt lat="48.49135" lon="7.60071">
        <ele>153.7</ele>
        <time>2013-03-30T15:16:57Z</time>
      </trkpt>
      <trkpt lat="48.49138" lon="7.60055">
        <ele>153.7</ele>
        <time>2013-03-30T15:17:04Z</time>
      </trkpt>
      <trkpt lat="48.49139" lon="7.60041">
        <ele>153.7</ele>
        <time>2013-03-30T15:17:13Z</time>
      </trkpt>
      <trkpt lat="48.49133" lon="7.60029">
        <ele>153.7</ele>
        <time>2013-03-30T15:17:24Z</time>
      </trkpt>
      <trkpt lat="48.49129" lon="7.60015">
        <ele>153.6</ele>
        <time>2013-03-30T15:17:32Z</time>
      </trkpt>
      <trkpt lat="48.49122" lon="7.60003">
        <ele>154.2</ele>
        <time>2013-03-30T15:17:39Z</time>
      </trkpt>
      <trkpt lat="48.49116" lon="7.59991">
        <ele>154.7</ele>
        <time>2013-03-30T15:17:48Z</time>
      </trkpt>
      <trkpt lat="48.49109" lon="7.59982">
        <ele>155.3</ele>
        <time>2013-03-30T15:17:55Z</time>
      </trkpt>
      <trkpt lat="48.49101" lon="7.59974">
        <ele>155.6</ele>
        <time>2013-03-30T15:18:05Z</time>
      </trkpt>
      <trkpt lat="48.49092" lon="7.59965">
        <ele>156</ele>
        <time>2013-03-30T15:18:12Z</time>
      </trkpt>
      <trkpt lat="48.49085" lon="7.59955">
        <ele>156.4</ele>
        <time>2013-03-30T15:18:18Z</time>
      </trkpt>
      <trkpt lat="48.49081" lon="7.59943">
        <ele>156.3</ele>
        <time>2013-03-30T15:18:28Z</time>
      </trkpt>
      <trkpt lat="48.49078" lon="7.59928">
        <ele>156.3</ele>
        <time>2013-03-30T15:18:37Z</time>
      </trkpt>
      <trkpt lat="48.49071" lon="7.59917">
        <ele>156.4</ele>
        <time>2013-03-30T15:18:44Z</time>
      </trkpt>
      <trkpt lat="48.49064" lon="7.5991">
        <ele>156.5</ele>
        <time>2013-03-30T15:18:52Z</time>
      </trkpt>
      <trkpt lat="48.49058" lon="7.59896">
        <ele>156.6</ele>
        <time>2013-03-30T15:18:59Z</time>
      </trkpt>
      <trkpt lat="48.49053" lon="7.59884">
        <ele>156.8</ele>
        <time>2013-03-30T15:19:05Z</time>
      </trkpt>
      <trkpt lat="48.49047" lon="7.59872">
        <ele>157</ele>
        <time>2013-03-30T15:19:15Z</time>
      </trkpt>
      <trkpt lat="48.49037" lon="7.59869">
        <ele>157.2</ele>
        <time>2013-03-30T15:19:22Z</time>
      </trkpt>
      <trkpt lat="48.49029" lon="7.59862">
        <ele>157.4</ele>
        <time>2013-03-30T15:19:35Z</time>
      </trkpt>
      <trkpt lat="48.49028" lon="7.59847">
        <ele>157.5</ele>
        <time>2013-03-30T15:19:44Z</time>
      </trkpt>
      <trkpt lat="48.49021" lon="7.59838">
        <ele>157.5</ele>
        <time>2013-03-30T15:19:55Z</time>
      </trkpt>
      <trkpt lat="48.49014" lon="7.59829">
        <ele>157.6</ele>
        <time>2013-03-30T15:20:03Z</time>
      </trkpt>
      <trkpt lat="48.49007" lon="7.59818">
        <ele>157.6</ele>
        <time>2013-03-30T15:20:11Z</time>
      </trkpt>
      <trkpt lat="48.49003" lon="7.59806">
        <ele>157.5</ele>
        <time>2013-03-30T15:20:22Z</time>
      </trkpt>
      <trkpt lat="48.48996" lon="7.59797">
        <ele>157.5</ele>
        <time>2013-03-30T15:20:30Z</time>
      </trkpt>
      <trkpt lat="48.48991" lon="7.59784">
        <ele>157.2</ele>
        <time>2013-03-30T15:20:39Z</time>
      </trkpt>
      <trkpt lat="48.48985" lon="7.59773">
        <ele>156.9</ele>
        <time>2013-03-30T15:20:51Z</time>
      </trkpt>
      <trkpt lat="48.48978" lon="7.59765">
        <ele>156.7</ele>
        <time>2013-03-30T15:20:57Z</time>
      </trkpt>
      <trkpt lat="48.48972" lon="7.59755">
        <ele>156.5</ele>
        <time>2013-03-30T15:21:06Z</time>
      </trkpt>
      <trkpt lat="48.48966" lon="7.59744">
        <ele>156.4</ele>
        <time>2013-03-30T15:21:16Z</time>
      </trkpt>
      <trkpt lat="48.48957" lon="7.59736">
        <ele>156.3</ele>
        <time>2013-03-30T15:21:27Z</time>
      </trkpt>
      <trkpt lat="48.48948" lon="7.59728">
        <ele>156.2</ele>
        <time>2013-03-30T15:21:32Z</time>
      </trkpt>
      <trkpt lat="48.48944" lon="7.59716">
        <ele>156.1</ele>
        <time>2013-03-30T15:21:46Z</time>
      </trkpt>
      <trkpt lat="48.48937" lon="7.59704">
        <ele>156</ele>
        <time>2013-03-30T15:21:52Z</time>
      </trkpt>
      <trkpt lat="48.48936" lon="7.59689">
        <ele>155.9</ele>
        <time>2013-03-30T15:22:00Z</time>
      </trkpt>
      <trkpt lat="48.48934" lon="7.59675">
        <ele>155.9</ele>
        <time>2013-03-30T15:22:07Z</time>
      </trkpt>
      <trkpt lat="48.48925" lon="7.5967">
        <ele>156.1</ele>
        <time>2013-03-30T15:22:12Z</time>
      </trkpt>
      <trkpt lat="48.48918" lon="7.59661">
        <ele>156.3</ele>
        <time>2013-03-30T15:22:22Z</time>
      </trkpt>
      <trkpt lat="48.48911" lon="7.59652">
        <ele>156.3</ele>
        <time>2013-03-30T15:22:28Z</time>
      </trkpt>
      <trkpt lat="48.48907" lon="7.59639">
        <ele>156.3</ele>
        <time>2013-03-30T15:22:36Z</time>
      </trkpt>
      <trkpt lat="48.48901" lon="7.59627">
        <ele>156.3</ele>
        <time>2013-03-30T15:22:45Z</time>
      </trkpt>
      <trkpt lat="48.48893" lon="7.59619">
        <ele>156.3</ele>
        <time>2013-03-30T15:22:54Z</time>
      </trkpt>
      <trkpt lat="48.48886" lon="7.59609">
        <ele>156.3</ele>
        <time>2013-03-30T15:23:05Z</time>
      </trkpt>
      <trkpt lat="48.48877" lon="7.59605">
        <ele>156.4</ele>
        <time>2013-03-30T15:23:14Z</time>
      </trkpt>
      <trkpt lat="48.48874" lon="7.59618">
        <ele>156.4</ele>
        <time>2013-03-30T15:23:38Z</time>
      </trkpt>
      <trkpt lat="48.48874" lon="7.59631">
        <ele>156.5</ele>
        <time>2013-03-30T15:23:55Z</time>
      </trkpt>
      <trkpt lat="48.4887" lon="7.59619">
        <ele>156</ele>
        <time>2013-03-30T15:24:13Z</time>
      </trkpt>
      <trkpt lat="48.4887" lon="7.59616">
        <ele>156</ele>
        <time>2013-03-30T15:24:14Z</time>
      </trkpt>
      <trkpt lat="48.48874" lon="7.59604">
        <ele>156</ele>
        <time>2013-03-30T15:24:19Z</time>
      </trkpt>
      <trkpt lat="48.48875" lon="7.59589">
        <ele>156</ele>
        <time>2013-03-30T15:24:25Z</time>
      </trkpt>
      <trkpt lat="48.48868" lon="7.59577">
        <ele>156</ele>
        <time>2013-03-30T15:24:34Z</time>
      </trkpt>
      <trkpt lat="48.48863" lon="7.59564">
        <ele>156</ele>
        <time>2013-03-30T15:24:41Z</time>
      </trkpt>
      <trkpt lat="48.48856" lon="7.59553">
        <ele>156</ele>
        <time>2013-03-30T15:24:47Z</time>
      </trkpt>
      <trkpt lat="48.48853" lon="7.59539">
        <ele>156</ele>
        <time>2013-03-30T15:24:56Z</time>
      </trkpt>
      <trkpt lat="48.48846" lon="7.59529">
        <ele>156</ele>
        <time>2013-03-30T15:25:04Z</time>
      </trkpt>
      <trkpt lat="48.48839" lon="7.59521">
        <ele>156</ele>
        <time>2013-03-30T15:25:12Z</time>
      </trkpt>
      <trkpt lat="48.48831" lon="7.59513">
        <ele>156.1</ele>
        <time>2013-03-30T15:25:20Z</time>
      </trkpt>
      <trkpt lat="48.48825" lon="7.59501">
        <ele>156.2</ele>
        <time>2013-03-30T15:25:28Z</time>
      </trkpt>
      <trkpt lat="48.48821" lon="7.59487">
        <ele>156.3</ele>
        <time>2013-03-30T15:25:35Z</time>
      </trkpt>
      <trkpt lat="48.48819" lon="7.59472">
        <ele>156.4</ele>
        <time>2013-03-30T15:25:46Z</time>
      </trkpt>
      <trkpt lat="48.4881" lon="7.59466">
        <ele>156.5</ele>
        <time>2013-03-30T15:25:52Z</time>
      </trkpt>
      <trkpt lat="48.48801" lon="7.59457">
        <ele>156.5</ele>
        <time>2013-03-30T15:25:59Z</time>
      </trkpt>
      <trkpt lat="48.48794" lon="7.59446">
        <ele>156.6</ele>
        <time>2013-03-30T15:26:06Z</time>
      </trkpt>
      <trkpt lat="48.48788" lon="7.59434">
        <ele>156.8</ele>
        <time>2013-03-30T15:26:11Z</time>
      </trkpt>
      <trkpt lat="48.48783" lon="7.59422">
        <ele>157</ele>
        <time>2013-03-30T15:26:21Z</time>
      </trkpt>
      <trkpt lat="48.48776" lon="7.59411">
        <ele>157.2</ele>
        <time>2013-03-30T15:26:31Z</time>
      </trkpt>
      <trkpt lat="48.48769" lon="7.594">
        <ele>157.4</ele>
        <time>2013-03-30T15:26:38Z</time>
      </trkpt>
      <trkpt lat="48.48757" lon="7.59377">
        <ele>157.5</ele>
        <time>2013-03-30T15:27:00Z</time>
      </trkpt>
      <trkpt lat="48.48753" lon="7.59364">
        <ele>157.5</ele>
        <time>2013-03-30T15:27:05Z</time>
      </trkpt>
      <trkpt lat="48.48747" lon="7.59353">
        <ele>157.5</ele>
        <time>2013-03-30T15:27:12Z</time>
      </trkpt>
      <trkpt lat="48.48739" lon="7.59343">
        <ele>157.5</ele>
        <time>2013-03-30T15:27:19Z</time>
      </trkpt>
      <trkpt lat="48.48731" lon="7.59332">
        <ele>157.4</ele>
        <time>2013-03-30T15:27:25Z</time>
      </trkpt>
      <trkpt lat="48.48728" lon="7.59319">
        <ele>157.2</ele>
        <time>2013-03-30T15:27:33Z</time>
      </trkpt>
      <trkpt lat="48.48726" lon="7.59306">
        <ele>157</ele>
        <time>2013-03-30T15:27:40Z</time>
      </trkpt>
      <trkpt lat="48.48722" lon="7.59291">
        <ele>156.7</ele>
        <time>2013-03-30T15:27:47Z</time>
      </trkpt>
      <trkpt lat="48.48718" lon="7.59278">
        <ele>156.5</ele>
        <time>2013-03-30T15:27:56Z</time>
      </trkpt>
      <trkpt lat="48.4871" lon="7.59271">
        <ele>156.2</ele>
        <time>2013-03-30T15:28:02Z</time>
      </trkpt>
      <trkpt lat="48.48702" lon="7.59262">
        <ele>155.9</ele>
        <time>2013-03-30T15:28:10Z</time>
      </trkpt>
      <trkpt lat="48.48696" lon="7.59252">
        <ele>155.6</ele>
        <time>2013-03-30T15:28:18Z</time>
      </trkpt>
      <trkpt lat="48.4869" lon="7.59241">
        <ele>155.4</ele>
        <time>2013-03-30T15:28:28Z</time>
      </trkpt>
      <trkpt lat="48.48682" lon="7.59232">
        <ele>155.2</ele>
        <time>2013-03-30T15:28:42Z</time>
      </trkpt>
      <trkpt lat="48.48673" lon="7.59237">
        <ele>154.7</ele>
        <time>2013-03-30T15:29:01Z</time>
      </trkpt>
      <trkpt lat="48.48664" lon="7.59233">
        <ele>154.3</ele>
        <time>2013-03-30T15:29:11Z</time>
      </trkpt>
      <trkpt lat="48.48654" lon="7.59231">
        <ele>153.8</ele>
        <time>2013-03-30T15:29:18Z</time>
      </trkpt>
      <trkpt lat="48.48645" lon="7.59225">
        <ele>153.4</ele>
        <time>2013-03-30T15:29:26Z</time>
      </trkpt>
      <trkpt lat="48.48636" lon="7.59223">
        <ele>152.9</ele>
        <time>2013-03-30T15:29:33Z</time>
      </trkpt>
      <trkpt lat="48.48627" lon="7.59216">
        <ele>152.5</ele>
        <time>2013-03-30T15:29:40Z</time>
      </trkpt>
      <trkpt lat="48.48619" lon="7.59211">
        <ele>152.2</ele>
        <time>2013-03-30T15:29:48Z</time>
      </trkpt>
      <trkpt lat="48.4861" lon="7.59207">
        <ele>151.9</ele>
        <time>2013-03-30T15:29:57Z</time>
      </trkpt>
      <trkpt lat="48.486" lon="7.59206">
        <ele>151.6</ele>
        <time>2013-03-30T15:30:05Z</time>
      </trkpt>
      <trkpt lat="48.4859" lon="7.59207">
        <ele>151.4</ele>
        <time>2013-03-30T15:30:14Z</time>
      </trkpt>
      <trkpt lat="48.48581" lon="7.59211">
        <ele>151.1</ele>
        <time>2013-03-30T15:30:20Z</time>
      </trkpt>
      <trkpt lat="48.48583" lon="7.59239">
        <ele>151.1</ele>
        <time>2013-03-30T15:30:45Z</time>
      </trkpt>
      <trkpt lat="48.4858" lon="7.59253">
        <ele>151.2</ele>
        <time>2013-03-30T15:30:51Z</time>
      </trkpt>
      <trkpt lat="48.48573" lon="7.59263">
        <ele>151.3</ele>
        <time>2013-03-30T15:31:00Z</time>
      </trkpt>
      <trkpt lat="48.48567" lon="7.5925">
        <ele>151.4</ele>
        <time>2013-03-30T15:31:08Z</time>
      </trkpt>
      <trkpt lat="48.48558" lon="7.5924">
        <ele>151.5</ele>
        <time>2013-03-30T15:31:15Z</time>
      </trkpt>
      <trkpt lat="48.48551" lon="7.5923">
        <ele>151.5</ele>
        <time>2013-03-30T15:31:22Z</time>
      </trkpt>
      <trkpt lat="48.48541" lon="7.59229">
        <ele>151.5</ele>
        <time>2013-03-30T15:31:30Z</time>
      </trkpt>
      <trkpt lat="48.48532" lon="7.59235">
        <ele>151.3</ele>
        <time>2013-03-30T15:31:39Z</time>
      </trkpt>
      <trkpt lat="48.48526" lon="7.59246">
        <ele>151.1</ele>
        <time>2013-03-30T15:31:50Z</time>
      </trkpt>
      <trkpt lat="48.48517" lon="7.59254">
        <ele>150.9</ele>
        <time>2013-03-30T15:31:58Z</time>
      </trkpt>
      <trkpt lat="48.48514" lon="7.59268">
        <ele>150.7</ele>
        <time>2013-03-30T15:32:05Z</time>
      </trkpt>
      <trkpt lat="48.4851" lon="7.59282">
        <ele>150.5</ele>
        <time>2013-03-30T15:32:11Z</time>
      </trkpt>
      <trkpt lat="48.48506" lon="7.59295">
        <ele>150.5</ele>
        <time>2013-03-30T15:32:22Z</time>
      </trkpt>
      <trkpt lat="48.48504" lon="7.5931">
        <ele>150.4</ele>
        <time>2013-03-30T15:32:29Z</time>
      </trkpt>
      <trkpt lat="48.48512" lon="7.59318">
        <ele>150.3</ele>
        <time>2013-03-30T15:32:37Z</time>
      </trkpt>
      <trkpt lat="48.48515" lon="7.59331">
        <ele>150.2</ele>
        <time>2013-03-30T15:32:46Z</time>
      </trkpt>
      <trkpt lat="48.48512" lon="7.59316">
        <ele>150.1</ele>
        <time>2013-03-30T15:33:03Z</time>
      </trkpt>
      <trkpt lat="48.48512" lon="7.59316">
        <ele>150</ele>
        <time>2013-03-30T15:33:13Z</time>
      </trkpt>
      <trkpt lat="48.48507" lon="7.59325">
        <ele>150</ele>
        <time>2013-03-30T15:33:44Z</time>
      </trkpt>
      <trkpt lat="48.48507" lon="7.59327">
        <ele>150.1</ele>
        <time>2013-03-30T15:33:45Z</time>
      </trkpt>
      <trkpt lat="48.48497" lon="7.59327">
        <ele>150.2</ele>
        <time>2013-03-30T15:34:00Z</time>
      </trkpt>
      <trkpt lat="48.48488" lon="7.59326">
        <ele>150.3</ele>
        <time>2013-03-30T15:34:08Z</time>
      </trkpt>
      <trkpt lat="48.48481" lon="7.59314">
        <ele>150.1</ele>
        <time>2013-03-30T15:34:18Z</time>
      </trkpt>
      <trkpt lat="48.48475" lon="7.59301">
        <ele>149.9</ele>
        <time>2013-03-30T15:34:25Z</time>
      </trkpt>
      <trkpt lat="48.4847" lon="7.5929">
        <ele>149.7</ele>
        <time>2013-03-30T15:34:34Z</time>
      </trkpt>
      <trkpt lat="48.48466" lon="7.59277">
        <ele>149.5</ele>
        <time>2013-03-30T15:34:45Z</time>
      </trkpt>
      <trkpt lat="48.48465" lon="7.59262">
        <ele>149.3</ele>
        <time>2013-03-30T15:34:55Z</time>
      </trkpt>
      <trkpt lat="48.4846" lon="7.59251">
        <ele>149</ele>
        <time>2013-03-30T15:35:04Z</time>
      </trkpt>
      <trkpt lat="48.48453" lon="7.59241">
        <ele>148.7</ele>
        <time>2013-03-30T15:35:10Z</time>
      </trkpt>
      <trkpt lat="48.48448" lon="7.5923">
        <ele>148.5</ele>
        <time>2013-03-30T15:35:16Z</time>
      </trkpt>
      <trkpt lat="48.48443" lon="7.59217">
        <ele>148.1</ele>
        <time>2013-03-30T15:35:24Z</time>
      </trkpt>
      <trkpt lat="48.48435" lon="7.5921">
        <ele>147.7</ele>
        <time>2013-03-30T15:35:33Z</time>
      </trkpt>
      <trkpt lat="48.48428" lon="7.59201">
        <ele>147.4</ele>
        <time>2013-03-30T15:35:42Z</time>
      </trkpt>
      <trkpt lat="48.48423" lon="7.59189">
        <ele>147.3</ele>
        <time>2013-03-30T15:35:47Z</time>
      </trkpt>
      <trkpt lat="48.48416" lon="7.59178">
        <ele>147</ele>
        <time>2013-03-30T15:35:56Z</time>
      </trkpt>
      <trkpt lat="48.4841" lon="7.59167">
        <ele>147</ele>
        <time>2013-03-30T15:36:04Z</time>
      </trkpt>
      <trkpt lat="48.48405" lon="7.59156">
        <ele>147</ele>
        <time>2013-03-30T15:36:12Z</time>
      </trkpt>
      <trkpt lat="48.48398" lon="7.59144">
        <ele>147.1</ele>
        <time>2013-03-30T15:36:21Z</time>
      </trkpt>
      <trkpt lat="48.48392" lon="7.59132">
        <ele>147.2</ele>
        <time>2013-03-30T15:36:27Z</time>
      </trkpt>
      <trkpt lat="48.48386" lon="7.5912">
        <ele>147.3</ele>
        <time>2013-03-30T15:36:38Z</time>
      </trkpt>
      <trkpt lat="48.48379" lon="7.5911">
        <ele>147.4</ele>
        <time>2013-03-30T15:36:45Z</time>
      </trkpt>
      <trkpt lat="48.48373" lon="7.591">
        <ele>147.5</ele>
        <time>2013-03-30T15:36:54Z</time>
      </trkpt>
      <trkpt lat="48.48366" lon="7.5909">
        <ele>147.5</ele>
        <time>2013-03-30T15:37:03Z</time>
      </trkpt>
      <trkpt lat="48.4836" lon="7.59079">
        <ele>147.6</ele>
        <time>2013-03-30T15:37:11Z</time>
      </trkpt>
      <trkpt lat="48.48353" lon="7.59069">
        <ele>147.7</ele>
        <time>2013-03-30T15:37:20Z</time>
      </trkpt>
      <trkpt lat="48.48346" lon="7.59059">
        <ele>148</ele>
        <time>2013-03-30T15:37:27Z</time>
      </trkpt>
      <trkpt lat="48.48342" lon="7.59046">
        <ele>148</ele>
        <time>2013-03-30T15:37:35Z</time>
      </trkpt>
      <trkpt lat="48.48336" lon="7.59036">
        <ele>148</ele>
        <time>2013-03-30T15:37:43Z</time>
      </trkpt>
      <trkpt lat="48.48328" lon="7.59028">
        <ele>148</ele>
        <time>2013-03-30T15:37:50Z</time>
      </trkpt>
      <trkpt lat="48.48324" lon="7.59016">
        <ele>148.1</ele>
        <time>2013-03-30T15:38:02Z</time>
      </trkpt>
      <trkpt lat="48.48319" lon="7.59004">
        <ele>148.2</ele>
        <time>2013-03-30T15:38:12Z</time>
      </trkpt>
      <trkpt lat="48.48313" lon="7.58993">
        <ele>148.3</ele>
        <time>2013-03-30T15:38:22Z</time>
      </trkpt>
      <trkpt lat="48.48305" lon="7.58985">
        <ele>148.4</ele>
        <time>2013-03-30T15:38:27Z</time>
      </trkpt>
      <trkpt lat="48.48298" lon="7.58975">
        <ele>148.5</ele>
        <time>2013-03-30T15:38:36Z</time>
      </trkpt>
      <trkpt lat="48.48291" lon="7.58965">
        <ele>148.5</ele>
        <time>2013-03-30T15:38:43Z</time>
      </trkpt>
      <trkpt lat="48.48285" lon="7.58955">
        <ele>148.6</ele>
        <time>2013-03-30T15:38:52Z</time>
      </trkpt>
      <trkpt lat="48.48278" lon="7.58944">
        <ele>148.7</ele>
        <time>2013-03-30T15:39:01Z</time>
      </trkpt>
      <trkpt lat="48.48275" lon="7.58931">
        <ele>148.7</ele>
        <time>2013-03-30T15:39:09Z</time>
      </trkpt>
      <trkpt lat="48.48266" lon="7.5892">
        <ele>148.7</ele>
        <time>2013-03-30T15:39:18Z</time>
      </trkpt>
      <trkpt lat="48.48259" lon="7.5891">
        <ele>148.7</ele>
        <time>2013-03-30T15:39:25Z</time>
      </trkpt>
      <trkpt lat="48.48253" lon="7.58899">
        <ele>148.6</ele>
        <time>2013-03-30T15:39:32Z</time>
      </trkpt>
      <trkpt lat="48.48252" lon="7.58885">
        <ele>148.5</ele>
        <time>2013-03-30T15:39:46Z</time>
      </trkpt>
      <trkpt lat="48.48244" lon="7.58873">
        <ele>148.5</ele>
        <time>2013-03-30T15:39:53Z</time>
      </trkpt>
      <trkpt lat="48.48237" lon="7.58864">
        <ele>148.5</ele>
        <time>2013-03-30T15:40:02Z</time>
      </trkpt>
      <trkpt lat="48.48229" lon="7.58855">
        <ele>148.6</ele>
        <time>2013-03-30T15:40:09Z</time>
      </trkpt>
      <trkpt lat="48.48222" lon="7.58846">
        <ele>148.7</ele>
        <time>2013-03-30T15:40:17Z</time>
      </trkpt>
      <trkpt lat="48.48217" lon="7.58833">
        <ele>148.8</ele>
        <time>2013-03-30T15:40:28Z</time>
      </trkpt>
      <trkpt lat="48.4821" lon="7.58823">
        <ele>148.9</ele>
        <time>2013-03-30T15:40:33Z</time>
      </trkpt>
      <trkpt lat="48.48205" lon="7.58811">
        <ele>149.1</ele>
        <time>2013-03-30T15:40:41Z</time>
      </trkpt>
      <trkpt lat="48.48199" lon="7.58799">
        <ele>149.3</ele>
        <time>2013-03-30T15:40:49Z</time>
      </trkpt>
      <trkpt lat="48.48193" lon="7.58789">
        <ele>149.5</ele>
        <time>2013-03-30T15:40:56Z</time>
      </trkpt>
      <trkpt lat="48.48187" lon="7.5878">
        <ele>149.6</ele>
        <time>2013-03-30T15:41:05Z</time>
      </trkpt>
      <trkpt lat="48.48183" lon="7.58766">
        <ele>149.8</ele>
        <time>2013-03-30T15:41:19Z</time>
      </trkpt>
      <trkpt lat="48.48175" lon="7.5876">
        <ele>150</ele>
        <time>2013-03-30T15:41:23Z</time>
      </trkpt>
      <trkpt lat="48.48166" lon="7.58751">
        <ele>150</ele>
        <time>2013-03-30T15:41:28Z</time>
      </trkpt>
      <trkpt lat="48.48163" lon="7.58737">
        <ele>150</ele>
        <time>2013-03-30T15:41:40Z</time>
      </trkpt>
      <trkpt lat="48.48155" lon="7.58727">
        <ele>150</ele>
        <time>2013-03-30T15:41:46Z</time>
      </trkpt>
      <trkpt lat="48.48156" lon="7.58713">
        <ele>150</ele>
        <time>2013-03-30T15:41:57Z</time>
      </trkpt>
      <trkpt lat="48.48163" lon="7.58704">
        <ele>150</ele>
        <time>2013-03-30T15:42:06Z</time>
      </trkpt>
      <trkpt lat="48.48165" lon="7.58702">
        <ele>150</ele>
        <time>2013-03-30T15:42:18Z</time>
      </trkpt>
      <trkpt lat="48.48165" lon="7.5869">
        <ele>149.7</ele>
        <time>2013-03-30T15:42:46Z</time>
      </trkpt>
      <trkpt lat="48.4817" lon="7.58678">
        <ele>149.4</ele>
        <time>2013-03-30T15:42:52Z</time>
      </trkpt>
      <trkpt lat="48.48175" lon="7.58667">
        <ele>149.2</ele>
        <time>2013-03-30T15:42:58Z</time>
      </trkpt>
      <trkpt lat="48.48179" lon="7.58653">
        <ele>149.1</ele>
        <time>2013-03-30T15:43:04Z</time>
      </trkpt>
      <trkpt lat="48.48185" lon="7.58641">
        <ele>149</ele>
        <time>2013-03-30T15:43:10Z</time>
      </trkpt>
      <trkpt lat="48.48193" lon="7.58634">
        <ele>148.9</ele>
        <time>2013-03-30T15:43:20Z</time>
      </trkpt>
      <trkpt lat="48.48198" lon="7.58622">
        <ele>148.7</ele>
        <time>2013-03-30T15:43:28Z</time>
      </trkpt>
      <trkpt lat="48.48202" lon="7.58609">
        <ele>148.5</ele>
        <time>2013-03-30T15:43:32Z</time>
      </trkpt>
      <trkpt lat="48.48208" lon="7.58598">
        <ele>148.4</ele>
        <time>2013-03-30T15:43:40Z</time>
      </trkpt>
      <trkpt lat="48.48214" lon="7.58587">
        <ele>148.2</ele>
        <time>2013-03-30T15:43:47Z</time>
      </trkpt>
      <trkpt lat="48.4822" lon="7.58574">
        <ele>148</ele>
        <time>2013-03-30T15:43:53Z</time>
      </trkpt>
      <trkpt lat="48.48225" lon="7.58562">
        <ele>148</ele>
        <time>2013-03-30T15:44:01Z</time>
      </trkpt>
      <trkpt lat="48.48231" lon="7.5855">
        <ele>148</ele>
        <time>2013-03-30T15:44:08Z</time>
      </trkpt>
      <trkpt lat="48.48235" lon="7.58537">
        <ele>148</ele>
        <time>2013-03-30T15:44:16Z</time>
      </trkpt>
      <trkpt lat="48.4824" lon="7.58523">
        <ele>148</ele>
        <time>2013-03-30T15:44:23Z</time>
      </trkpt>
      <trkpt lat="48.48247" lon="7.58513">
        <ele>148</ele>
        <time>2013-03-30T15:44:29Z</time>
      </trkpt>
      <trkpt lat="48.48252" lon="7.58502">
        <ele>148</ele>
        <time>2013-03-30T15:44:35Z</time>
      </trkpt>
      <trkpt lat="48.48258" lon="7.58491">
        <ele>148</ele>
        <time>2013-03-30T15:44:41Z</time>
      </trkpt>
      <trkpt lat="48.48264" lon="7.58481">
        <ele>147.8</ele>
        <time>2013-03-30T15:44:47Z</time>
      </trkpt>
      <trkpt lat="48.48269" lon="7.58468">
        <ele>147.6</ele>
        <time>2013-03-30T15:44:53Z</time>
      </trkpt>
      <trkpt lat="48.48275" lon="7.58457">
        <ele>147.5</ele>
        <time>2013-03-30T15:44:59Z</time>
      </trkpt>
      <trkpt lat="48.48283" lon="7.58448">
        <ele>147.3</ele>
        <time>2013-03-30T15:45:05Z</time>
      </trkpt>
      <trkpt lat="48.48286" lon="7.58434">
        <ele>147.1</ele>
        <time>2013-03-30T15:45:11Z</time>
      </trkpt>
      <trkpt lat="48.48294" lon="7.58423">
        <ele>147</ele>
        <time>2013-03-30T15:45:16Z</time>
      </trkpt>
      <trkpt lat="48.483" lon="7.58413">
        <ele>146.9</ele>
        <time>2013-03-30T15:45:22Z</time>
      </trkpt>
      <trkpt lat="48.48304" lon="7.584">
        <ele>146.8</ele>
        <time>2013-03-30T15:45:30Z</time>
      </trkpt>
      <trkpt lat="48.48308" lon="7.58388">
        <ele>146.7</ele>
        <time>2013-03-30T15:45:39Z</time>
      </trkpt>
      <trkpt lat="48.48315" lon="7.58378">
        <ele>146.6</ele>
        <time>2013-03-30T15:45:48Z</time>
      </trkpt>
      <trkpt lat="48.48323" lon="7.5837">
        <ele>146.5</ele>
        <time>2013-03-30T15:45:56Z</time>
      </trkpt>
      <trkpt lat="48.48328" lon="7.58358">
        <ele>146.6</ele>
        <time>2013-03-30T15:46:03Z</time>
      </trkpt>
      <trkpt lat="48.48333" lon="7.58347">
        <ele>146.8</ele>
        <time>2013-03-30T15:46:08Z</time>
      </trkpt>
      <trkpt lat="48.48335" lon="7.58332">
        <ele>147</ele>
        <time>2013-03-30T15:46:16Z</time>
      </trkpt>
      <trkpt lat="48.4834" lon="7.58319">
        <ele>147.2</ele>
        <time>2013-03-30T15:46:25Z</time>
      </trkpt>
      <trkpt lat="48.48345" lon="7.58308">
        <ele>147.4</ele>
        <time>2013-03-30T15:46:32Z</time>
      </trkpt>
      <trkpt lat="48.48352" lon="7.58297">
        <ele>147.5</ele>
        <time>2013-03-30T15:46:40Z</time>
      </trkpt>
      <trkpt lat="48.48356" lon="7.58285">
        <ele>147.5</ele>
        <time>2013-03-30T15:46:49Z</time>
      </trkpt>
      <trkpt lat="48.48361" lon="7.58272">
        <ele>147.5</ele>
        <time>2013-03-30T15:46:57Z</time>
      </trkpt>
      <trkpt lat="48.48364" lon="7.58259">
        <ele>147.5</ele>
        <time>2013-03-30T15:47:02Z</time>
      </trkpt>
      <trkpt lat="48.48369" lon="7.58246">
        <ele>147.6</ele>
        <time>2013-03-30T15:47:11Z</time>
      </trkpt>
      <trkpt lat="48.48375" lon="7.58236">
        <ele>147.7</ele>
        <time>2013-03-30T15:47:17Z</time>
      </trkpt>
      <trkpt lat="48.48381" lon="7.58224">
        <ele>147.8</ele>
        <time>2013-03-30T15:47:26Z</time>
      </trkpt>
      <trkpt lat="48.48387" lon="7.58213">
        <ele>147.8</ele>
        <time>2013-03-30T15:47:34Z</time>
      </trkpt>
      <trkpt lat="48.48393" lon="7.582">
        <ele>147.8</ele>
        <time>2013-03-30T15:47:42Z</time>
      </trkpt>
      <trkpt lat="48.48398" lon="7.58189">
        <ele>147.8</ele>
        <time>2013-03-30T15:47:52Z</time>
      </trkpt>
      <trkpt lat="48.48405" lon="7.58178">
        <ele>147.7</ele>
        <time>2013-03-30T15:48:01Z</time>
      </trkpt>
      <trkpt lat="48.48411" lon="7.58166">
        <ele>147.6</ele>
        <time>2013-03-30T15:48:09Z</time>
      </trkpt>
      <trkpt lat="48.48416" lon="7.58153">
        <ele>147.6</ele>
        <time>2013-03-30T15:48:20Z</time>
      </trkpt>
      <trkpt lat="48.48422" lon="7.58141">
        <ele>147.6</ele>
        <time>2013-03-30T15:48:28Z</time>
      </trkpt>
      <trkpt lat="48.48429" lon="7.58131">
        <ele>147.5</ele>
        <time>2013-03-30T15:48:36Z</time>
      </trkpt>
      <trkpt lat="48.48435" lon="7.58119">
        <ele>147.5</ele>
        <time>2013-03-30T15:48:44Z</time>
      </trkpt>
      <trkpt lat="48.48442" lon="7.58109">
        <ele>147.4</ele>
        <time>2013-03-30T15:48:51Z</time>
      </trkpt>
      <trkpt lat="48.48447" lon="7.58097">
        <ele>147.3</ele>
        <time>2013-03-30T15:48:59Z</time>
      </trkpt>
      <trkpt lat="48.48451" lon="7.58084">
        <ele>147.2</ele>
        <time>2013-03-30T15:49:07Z</time>
      </trkpt>
      <trkpt lat="48.48458" lon="7.58072">
        <ele>147.1</ele>
        <time>2013-03-30T15:49:15Z</time>
      </trkpt>
      <trkpt lat="48.48464" lon="7.58061">
        <ele>147</ele>
        <time>2013-03-30T15:49:24Z</time>
      </trkpt>
      <trkpt lat="48.48468" lon="7.58047">
        <ele>147</ele>
        <time>2013-03-30T15:49:35Z</time>
      </trkpt>
      <trkpt lat="48.48474" lon="7.58038">
        <ele>147</ele>
        <time>2013-03-30T15:49:42Z</time>
      </trkpt>
      <trkpt lat="48.48481" lon="7.58026">
        <ele>147</ele>
        <time>2013-03-30T15:49:51Z</time>
      </trkpt>
      <trkpt lat="48.48486" lon="7.58013">
        <ele>147.1</ele>
        <time>2013-03-30T15:50:00Z</time>
      </trkpt>
      <trkpt lat="48.48492" lon="7.58002">
        <ele>147.2</ele>
        <time>2013-03-30T15:50:09Z</time>
      </trkpt>
      <trkpt lat="48.48498" lon="7.57992">
        <ele>147.3</ele>
        <time>2013-03-30T15:50:17Z</time>
      </trkpt>
      <trkpt lat="48.48501" lon="7.57978">
        <ele>147.4</ele>
        <time>2013-03-30T15:50:26Z</time>
      </trkpt>
      <trkpt lat="48.48508" lon="7.57969">
        <ele>147.5</ele>
        <time>2013-03-30T15:50:33Z</time>
      </trkpt>
      <trkpt lat="48.48515" lon="7.57961">
        <ele>147.5</ele>
        <time>2013-03-30T15:50:42Z</time>
      </trkpt>
      <trkpt lat="48.4852" lon="7.57947">
        <ele>147.8</ele>
        <time>2013-03-30T15:50:50Z</time>
      </trkpt>
      <trkpt lat="48.48524" lon="7.57933">
        <ele>148</ele>
        <time>2013-03-30T15:50:57Z</time>
      </trkpt>
      <trkpt lat="48.48528" lon="7.57921">
        <ele>148.2</ele>
        <time>2013-03-30T15:51:06Z</time>
      </trkpt>
      <trkpt lat="48.48535" lon="7.5791">
        <ele>148.4</ele>
        <time>2013-03-30T15:51:16Z</time>
      </trkpt>
      <trkpt lat="48.48541" lon="7.579">
        <ele>148.5</ele>
        <time>2013-03-30T15:51:22Z</time>
      </trkpt>
      <trkpt lat="48.48546" lon="7.57888">
        <ele>148.6</ele>
        <time>2013-03-30T15:51:29Z</time>
      </trkpt>
      <trkpt lat="48.48549" lon="7.57875">
        <ele>148.7</ele>
        <time>2013-03-30T15:51:36Z</time>
      </trkpt>
      <trkpt lat="48.48556" lon="7.57865">
        <ele>148.8</ele>
        <time>2013-03-30T15:51:44Z</time>
      </trkpt>
      <trkpt lat="48.48563" lon="7.57855">
        <ele>148.9</ele>
        <time>2013-03-30T15:51:51Z</time>
      </trkpt>
      <trkpt lat="48.48569" lon="7.57844">
        <ele>149</ele>
        <time>2013-03-30T15:51:58Z</time>
      </trkpt>
      <trkpt lat="48.48575" lon="7.57834">
        <ele>149.1</ele>
        <time>2013-03-30T15:52:08Z</time>
      </trkpt>
      <trkpt lat="48.48581" lon="7.57823">
        <ele>149</ele>
        <time>2013-03-30T15:52:16Z</time>
      </trkpt>
      <trkpt lat="48.48584" lon="7.57808">
        <ele>149</ele>
        <time>2013-03-30T15:52:22Z</time>
      </trkpt>
      <trkpt lat="48.48593" lon="7.57799">
        <ele>149</ele>
        <time>2013-03-30T15:52:36Z</time>
      </trkpt>
      <trkpt lat="48.48599" lon="7.57791">
        <ele>149</ele>
        <time>2013-03-30T15:52:45Z</time>
      </trkpt>
      <trkpt lat="48.48606" lon="7.5778">
        <ele>149.1</ele>
        <time>2013-03-30T15:52:53Z</time>
      </trkpt>
      <trkpt lat="48.48611" lon="7.57768">
        <ele>149.2</ele>
        <time>2013-03-30T15:53:02Z</time>
      </trkpt>
      <trkpt lat="48.48614" lon="7.57754">
        <ele>149.3</ele>
        <time>2013-03-30T15:53:09Z</time>
      </trkpt>
      <trkpt lat="48.48615" lon="7.5774">
        <ele>149.4</ele>
        <time>2013-03-30T15:53:17Z</time>
      </trkpt>
      <trkpt lat="48.48612" lon="7.57725">
        <ele>149.5</ele>
        <time>2013-03-30T15:53:24Z</time>
      </trkpt>
      <trkpt lat="48.4861" lon="7.57711">
        <ele>149.5</ele>
        <time>2013-03-30T15:53:29Z</time>
      </trkpt>
      <trkpt lat="48.48608" lon="7.57697">
        <ele>149.4</ele>
        <time>2013-03-30T15:53:37Z</time>
      </trkpt>
      <trkpt lat="48.48606" lon="7.57683">
        <ele>149.2</ele>
        <time>2013-03-30T15:53:46Z</time>
      </trkpt>
      <trkpt lat="48.48603" lon="7.57668">
        <ele>149</ele>
        <time>2013-03-30T15:53:56Z</time>
      </trkpt>
      <trkpt lat="48.48599" lon="7.57655">
        <ele>148.8</ele>
        <time>2013-03-30T15:54:02Z</time>
      </trkpt>
      <trkpt lat="48.48598" lon="7.57642">
        <ele>148.6</ele>
        <time>2013-03-30T15:54:11Z</time>
      </trkpt>
      <trkpt lat="48.48597" lon="7.57628">
        <ele>148.4</ele>
        <time>2013-03-30T15:54:19Z</time>
      </trkpt>
      <trkpt lat="48.48597" lon="7.57614">
        <ele>148.1</ele>
        <time>2013-03-30T15:54:26Z</time>
      </trkpt>
      <trkpt lat="48.48595" lon="7.576">
        <ele>148</ele>
        <time>2013-03-30T15:54:30Z</time>
      </trkpt>
      <trkpt lat="48.48599" lon="7.57587">
        <ele>148.1</ele>
        <time>2013-03-30T15:54:37Z</time>
      </trkpt>
      <trkpt lat="48.48606" lon="7.57578">
        <ele>148.2</ele>
        <time>2013-03-30T15:54:47Z</time>
      </trkpt>
      <trkpt lat="48.4861" lon="7.57565">
        <ele>148.3</ele>
        <time>2013-03-30T15:54:56Z</time>
      </trkpt>
      <trkpt lat="48.48617" lon="7.57556">
        <ele>148.6</ele>
        <time>2013-03-30T15:55:04Z</time>
      </trkpt>
      <trkpt lat="48.48625" lon="7.57548">
        <ele>149</ele>
        <time>2013-03-30T15:55:10Z</time>
      </trkpt>
      <trkpt lat="48.48639" lon="7.57528">
        <ele>149.4</ele>
        <time>2013-03-30T15:55:33Z</time>
      </trkpt>
      <trkpt lat="48.48645" lon="7.57517">
        <ele>149.7</ele>
        <time>2013-03-30T15:55:42Z</time>
      </trkpt>
      <trkpt lat="48.48651" lon="7.57505">
        <ele>150.1</ele>
        <time>2013-03-30T15:55:50Z</time>
      </trkpt>
      <trkpt lat="48.48657" lon="7.57493">
        <ele>150.5</ele>
        <time>2013-03-30T15:55:57Z</time>
      </trkpt>
      <trkpt lat="48.48665" lon="7.57484">
        <ele>150.8</ele>
        <time>2013-03-30T15:56:04Z</time>
      </trkpt>
      <trkpt lat="48.48667" lon="7.57468">
        <ele>151</ele>
        <time>2013-03-30T15:56:11Z</time>
      </trkpt>
      <trkpt lat="48.48668" lon="7.57454">
        <ele>151</ele>
        <time>2013-03-30T15:56:18Z</time>
      </trkpt>
      <trkpt lat="48.48669" lon="7.57439">
        <ele>150.8</ele>
        <time>2013-03-30T15:56:27Z</time>
      </trkpt>
      <trkpt lat="48.4867" lon="7.57426">
        <ele>150.6</ele>
        <time>2013-03-30T15:56:34Z</time>
      </trkpt>
      <trkpt lat="48.48669" lon="7.5741">
        <ele>150.5</ele>
        <time>2013-03-30T15:56:43Z</time>
      </trkpt>
      <trkpt lat="48.48665" lon="7.57397">
        <ele>150.3</ele>
        <time>2013-03-30T15:56:54Z</time>
      </trkpt>
      <trkpt lat="48.4867" lon="7.57386">
        <ele>150.1</ele>
        <time>2013-03-30T15:57:03Z</time>
      </trkpt>
      <trkpt lat="48.48674" lon="7.57373">
        <ele>149.9</ele>
        <time>2013-03-30T15:57:10Z</time>
      </trkpt>
      <trkpt lat="48.48676" lon="7.57358">
        <ele>149.7</ele>
        <time>2013-03-30T15:57:19Z</time>
      </trkpt>
      <trkpt lat="48.48677" lon="7.57343">
        <ele>149.5</ele>
        <time>2013-03-30T15:57:26Z</time>
      </trkpt>
      <trkpt lat="48.48675" lon="7.57328">
        <ele>149.4</ele>
        <time>2013-03-30T15:57:34Z</time>
      </trkpt>
      <trkpt lat="48.48675" lon="7.57314">
        <ele>149.2</ele>
        <time>2013-03-30T15:57:42Z</time>
      </trkpt>
      <trkpt lat="48.48675" lon="7.57299">
        <ele>149</ele>
        <time>2013-03-30T15:57:53Z</time>
      </trkpt>
      <trkpt lat="48.48673" lon="7.57283">
        <ele>149</ele>
        <time>2013-03-30T15:58:00Z</time>
      </trkpt>
      <trkpt lat="48.48674" lon="7.5727">
        <ele>149</ele>
        <time>2013-03-30T15:58:09Z</time>
      </trkpt>
      <trkpt lat="48.48675" lon="7.57255">
        <ele>149</ele>
        <time>2013-03-30T15:58:15Z</time>
      </trkpt>
      <trkpt lat="48.48674" lon="7.57241">
        <ele>149</ele>
        <time>2013-03-30T15:58:23Z</time>
      </trkpt>
      <trkpt lat="48.48676" lon="7.57227">
        <ele>149</ele>
        <time>2013-03-30T15:58:32Z</time>
      </trkpt>
      <trkpt lat="48.48679" lon="7.57213">
        <ele>149</ele>
        <time>2013-03-30T15:58:39Z</time>
      </trkpt>
      <trkpt lat="48.48679" lon="7.57198">
        <ele>149</ele>
        <time>2013-03-30T15:58:47Z</time>
      </trkpt>
      <trkpt lat="48.48679" lon="7.57184">
        <ele>149</ele>
        <time>2013-03-30T15:58:55Z</time>
      </trkpt>
      <trkpt lat="48.48682" lon="7.57169">
        <ele>149</ele>
        <time>2013-03-30T15:59:07Z</time>
      </trkpt>
      <trkpt lat="48.48681" lon="7.57154">
        <ele>149</ele>
        <time>2013-03-30T15:59:14Z</time>
      </trkpt>
      <trkpt lat="48.4868" lon="7.5714">
        <ele>149</ele>
        <time>2013-03-30T15:59:21Z</time>
      </trkpt>
      <trkpt lat="48.48682" lon="7.57127">
        <ele>149</ele>
        <time>2013-03-30T15:59:29Z</time>
      </trkpt>
      <trkpt lat="48.48683" lon="7.57113">
        <ele>149</ele>
        <time>2013-03-30T15:59:37Z</time>
      </trkpt>
      <trkpt lat="48.48685" lon="7.57099">
        <ele>149</ele>
        <time>2013-03-30T15:59:46Z</time>
      </trkpt>
      <trkpt lat="48.48687" lon="7.57085">
        <ele>149</ele>
        <time>2013-03-30T15:59:56Z</time>
      </trkpt>
      <trkpt lat="48.48688" lon="7.57071">
        <ele>149</ele>
        <time>2013-03-30T16:00:07Z</time>
      </trkpt>
      <trkpt lat="48.48688" lon="7.57057">
        <ele>149</ele>
        <time>2013-03-30T16:00:15Z</time>
      </trkpt>
      <trkpt lat="48.4869" lon="7.57043">
        <ele>149</ele>
        <time>2013-03-30T16:00:22Z</time>
      </trkpt>
      <trkpt lat="48.48689" lon="7.57028">
        <ele>149.2</ele>
        <time>2013-03-30T16:00:30Z</time>
      </trkpt>
      <trkpt lat="48.48689" lon="7.57013">
        <ele>149.4</ele>
        <time>2013-03-30T16:00:38Z</time>
      </trkpt>
      <trkpt lat="48.4869" lon="7.57">
        <ele>149.4</ele>
        <time>2013-03-30T16:00:46Z</time>
      </trkpt>
      <trkpt lat="48.48687" lon="7.56985">
        <ele>149.4</ele>
        <time>2013-03-30T16:00:56Z</time>
      </trkpt>
      <trkpt lat="48.48687" lon="7.5697">
        <ele>149.5</ele>
        <time>2013-03-30T16:01:03Z</time>
      </trkpt>
      <trkpt lat="48.48685" lon="7.56955">
        <ele>149.6</ele>
        <time>2013-03-30T16:01:10Z</time>
      </trkpt>
      <trkpt lat="48.48686" lon="7.56945">
        <ele>149.7</ele>
        <time>2013-03-30T16:01:22Z</time>
      </trkpt>
      <trkpt lat="48.48683" lon="7.56933">
        <ele>150.8</ele>
        <time>2013-03-30T16:01:36Z</time>
      </trkpt>
      <trkpt lat="48.48681" lon="7.56927">
        <ele>150.7</ele>
        <time>2013-03-30T16:01:39Z</time>
      </trkpt>
      <trkpt lat="48.48675" lon="7.56915">
        <ele>150.6</ele>
        <time>2013-03-30T16:01:47Z</time>
      </trkpt>
      <trkpt lat="48.48673" lon="7.56902">
        <ele>150.6</ele>
        <time>2013-03-30T16:01:58Z</time>
      </trkpt>
      <trkpt lat="48.48668" lon="7.56889">
        <ele>150.5</ele>
        <time>2013-03-30T16:02:08Z</time>
      </trkpt>
      <trkpt lat="48.48664" lon="7.56875">
        <ele>150.5</ele>
        <time>2013-03-30T16:02:15Z</time>
      </trkpt>
      <trkpt lat="48.48658" lon="7.56863">
        <ele>150.4</ele>
        <time>2013-03-30T16:02:23Z</time>
      </trkpt>
      <trkpt lat="48.48655" lon="7.5685">
        <ele>150.4</ele>
        <time>2013-03-30T16:02:29Z</time>
      </trkpt>
      <trkpt lat="48.48658" lon="7.56836">
        <ele>150.3</ele>
        <time>2013-03-30T16:02:35Z</time>
      </trkpt>
      <trkpt lat="48.48664" lon="7.5684">
        <ele>150.2</ele>
        <time>2013-03-30T16:02:49Z</time>
      </trkpt>
      <trkpt lat="48.48673" lon="7.56843">
        <ele>149.8</ele>
        <time>2013-03-30T16:03:03Z</time>
      </trkpt>
      <trkpt lat="48.48675" lon="7.56846">
        <ele>149.7</ele>
        <time>2013-03-30T16:03:05Z</time>
      </trkpt>
      <trkpt lat="48.48684" lon="7.5685">
        <ele>149.6</ele>
        <time>2013-03-30T16:03:12Z</time>
      </trkpt>
      <trkpt lat="48.48694" lon="7.56848">
        <ele>149.6</ele>
        <time>2013-03-30T16:03:21Z</time>
      </trkpt>
      <trkpt lat="48.48703" lon="7.56851">
        <ele>149.5</ele>
        <time>2013-03-30T16:03:30Z</time>
      </trkpt>
      <trkpt lat="48.48713" lon="7.56855">
        <ele>149.5</ele>
        <time>2013-03-30T16:03:37Z</time>
      </trkpt>
      <trkpt lat="48.48722" lon="7.56857">
        <ele>149.4</ele>
        <time>2013-03-30T16:03:46Z</time>
      </trkpt>
      <trkpt lat="48.48732" lon="7.56858">
        <ele>149.3</ele>
        <time>2013-03-30T16:03:53Z</time>
      </trkpt>
      <trkpt lat="48.48742" lon="7.5686">
        <ele>149.2</ele>
        <time>2013-03-30T16:04:02Z</time>
      </trkpt>
      <trkpt lat="48.48751" lon="7.56862">
        <ele>149.1</ele>
        <time>2013-03-30T16:04:09Z</time>
      </trkpt>
      <trkpt lat="48.48771" lon="7.56864">
        <ele>149</ele>
        <time>2013-03-30T16:04:40Z</time>
      </trkpt>
      <trkpt lat="48.48781" lon="7.56867">
        <ele>149</ele>
        <time>2013-03-30T16:04:46Z</time>
      </trkpt>
      <trkpt lat="48.48792" lon="7.5687">
        <ele>149</ele>
        <time>2013-03-30T16:04:54Z</time>
      </trkpt>
      <trkpt lat="48.48801" lon="7.56873">
        <ele>149</ele>
        <time>2013-03-30T16:05:02Z</time>
      </trkpt>
      <trkpt lat="48.4881" lon="7.56876">
        <ele>149</ele>
        <time>2013-03-30T16:05:11Z</time>
      </trkpt>
      <trkpt lat="48.48819" lon="7.56878">
        <ele>149</ele>
        <time>2013-03-30T16:05:19Z</time>
      </trkpt>
      <trkpt lat="48.48829" lon="7.56882">
        <ele>149</ele>
        <time>2013-03-30T16:05:23Z</time>
      </trkpt>
      <trkpt lat="48.48838" lon="7.56881">
        <ele>149.1</ele>
        <time>2013-03-30T16:05:32Z</time>
      </trkpt>
      <trkpt lat="48.48847" lon="7.56883">
        <ele>149.1</ele>
        <time>2013-03-30T16:05:37Z</time>
      </trkpt>
      <trkpt lat="48.48858" lon="7.56882">
        <ele>149.1</ele>
        <time>2013-03-30T16:05:45Z</time>
      </trkpt>
      <trkpt lat="48.48868" lon="7.56886">
        <ele>149.1</ele>
        <time>2013-03-30T16:05:51Z</time>
      </trkpt>
      <trkpt lat="48.48879" lon="7.56885">
        <ele>149.1</ele>
        <time>2013-03-30T16:05:56Z</time>
      </trkpt>
      <trkpt lat="48.48887" lon="7.56888">
        <ele>149.2</ele>
        <time>2013-03-30T16:06:10Z</time>
      </trkpt>
      <trkpt lat="48.48896" lon="7.56893">
        <ele>150</ele>
        <time>2013-03-30T16:06:26Z</time>
      </trkpt>
      <trkpt lat="48.48906" lon="7.56893">
        <ele>150</ele>
        <time>2013-03-30T16:06:31Z</time>
      </trkpt>
      <trkpt lat="48.48917" lon="7.56894">
        <ele>150</ele>
        <time>2013-03-30T16:06:35Z</time>
      </trkpt>
      <trkpt lat="48.48926" lon="7.56895">
        <ele>150</ele>
        <time>2013-03-30T16:06:39Z</time>
      </trkpt>
      <trkpt lat="48.48935" lon="7.56898">
        <ele>150</ele>
        <time>2013-03-30T16:06:49Z</time>
      </trkpt>
      <trkpt lat="48.48946" lon="7.56901">
        <ele>150</ele>
        <time>2013-03-30T16:06:52Z</time>
      </trkpt>
      <trkpt lat="48.48955" lon="7.56903">
        <ele>150</ele>
        <time>2013-03-30T16:06:57Z</time>
      </trkpt>
      <trkpt lat="48.48973" lon="7.56903">
        <ele>150</ele>
        <time>2013-03-30T16:07:20Z</time>
      </trkpt>
      <trkpt lat="48.48983" lon="7.56905">
        <ele>150</ele>
        <time>2013-03-30T16:07:28Z</time>
      </trkpt>
      <trkpt lat="48.48993" lon="7.56907">
        <ele>150</ele>
        <time>2013-03-30T16:07:37Z</time>
      </trkpt>
      <trkpt lat="48.49003" lon="7.56907">
        <ele>149.9</ele>
        <time>2013-03-30T16:07:47Z</time>
      </trkpt>
      <trkpt lat="48.49012" lon="7.56907">
        <ele>149.8</ele>
        <time>2013-03-30T16:07:54Z</time>
      </trkpt>
      <trkpt lat="48.49021" lon="7.56908">
        <ele>149.7</ele>
        <time>2013-03-30T16:08:01Z</time>
      </trkpt>
      <trkpt lat="48.49031" lon="7.56905">
        <ele>149.6</ele>
        <time>2013-03-30T16:08:08Z</time>
      </trkpt>
      <trkpt lat="48.49041" lon="7.56904">
        <ele>149.5</ele>
        <time>2013-03-30T16:08:16Z</time>
      </trkpt>
      <trkpt lat="48.4905" lon="7.56901">
        <ele>149.5</ele>
        <time>2013-03-30T16:08:22Z</time>
      </trkpt>
      <trkpt lat="48.4906" lon="7.56904">
        <ele>149.4</ele>
        <time>2013-03-30T16:08:31Z</time>
      </trkpt>
      <trkpt lat="48.49069" lon="7.56904">
        <ele>149.3</ele>
        <time>2013-03-30T16:08:37Z</time>
      </trkpt>
      <trkpt lat="48.49078" lon="7.5691">
        <ele>149.2</ele>
        <time>2013-03-30T16:08:51Z</time>
      </trkpt>
      <trkpt lat="48.49085" lon="7.56901">
        <ele>149.1</ele>
        <time>2013-03-30T16:08:57Z</time>
      </trkpt>
      <trkpt lat="48.49093" lon="7.56897">
        <ele>148.9</ele>
        <time>2013-03-30T16:09:07Z</time>
      </trkpt>
      <trkpt lat="48.49103" lon="7.56893">
        <ele>148.8</ele>
        <time>2013-03-30T16:09:16Z</time>
      </trkpt>
      <trkpt lat="48.49113" lon="7.56891">
        <ele>148.7</ele>
        <time>2013-03-30T16:09:23Z</time>
      </trkpt>
      <trkpt lat="48.49122" lon="7.56889">
        <ele>148.6</ele>
        <time>2013-03-30T16:09:31Z</time>
      </trkpt>
      <trkpt lat="48.49131" lon="7.56884">
        <ele>148.5</ele>
        <time>2013-03-30T16:09:38Z</time>
      </trkpt>
      <trkpt lat="48.4914" lon="7.56879">
        <ele>148.5</ele>
        <time>2013-03-30T16:09:48Z</time>
      </trkpt>
      <trkpt lat="48.4915" lon="7.56876">
        <ele>148.4</ele>
        <time>2013-03-30T16:09:56Z</time>
      </trkpt>
      <trkpt lat="48.49159" lon="7.56873">
        <ele>148.3</ele>
        <time>2013-03-30T16:10:03Z</time>
      </trkpt>
      <trkpt lat="48.49169" lon="7.56874">
        <ele>148.4</ele>
        <time>2013-03-30T16:10:11Z</time>
      </trkpt>
      <trkpt lat="48.49178" lon="7.56873">
        <ele>148.5</ele>
        <time>2013-03-30T16:10:18Z</time>
      </trkpt>
      <trkpt lat="48.49187" lon="7.56872">
        <ele>148.5</ele>
        <time>2013-03-30T16:10:27Z</time>
      </trkpt>
      <trkpt lat="48.49197" lon="7.56871">
        <ele>148.7</ele>
        <time>2013-03-30T16:10:35Z</time>
      </trkpt>
      <trkpt lat="48.49207" lon="7.56869">
        <ele>148.9</ele>
        <time>2013-03-30T16:10:42Z</time>
      </trkpt>
      <trkpt lat="48.49215" lon="7.56865">
        <ele>149.1</ele>
        <time>2013-03-30T16:10:51Z</time>
      </trkpt>
      <trkpt lat="48.49224" lon="7.56858">
        <ele>149.3</ele>
        <time>2013-03-30T16:10:58Z</time>
      </trkpt>
      <trkpt lat="48.49233" lon="7.56853">
        <ele>149.5</ele>
        <time>2013-03-30T16:11:04Z</time>
      </trkpt>
      <trkpt lat="48.49242" lon="7.56846">
        <ele>149.6</ele>
        <time>2013-03-30T16:11:09Z</time>
      </trkpt>
      <trkpt lat="48.49251" lon="7.56841">
        <ele>149.8</ele>
        <time>2013-03-30T16:11:18Z</time>
      </trkpt>
      <trkpt lat="48.4926" lon="7.56839">
        <ele>150</ele>
        <time>2013-03-30T16:11:24Z</time>
      </trkpt>
      <trkpt lat="48.49267" lon="7.5685">
        <ele>150</ele>
        <time>2013-03-30T16:11:33Z</time>
      </trkpt>
      <trkpt lat="48.4927" lon="7.56863">
        <ele>150</ele>
        <time>2013-03-30T16:11:41Z</time>
      </trkpt>
      <trkpt lat="48.49273" lon="7.56876">
        <ele>150</ele>
        <time>2013-03-30T16:11:48Z</time>
      </trkpt>
      <trkpt lat="48.49278" lon="7.5689">
        <ele>150</ele>
        <time>2013-03-30T16:11:56Z</time>
      </trkpt>
      <trkpt lat="48.49283" lon="7.56903">
        <ele>150</ele>
        <time>2013-03-30T16:12:02Z</time>
      </trkpt>
      <trkpt lat="48.49287" lon="7.56916">
        <ele>150.2</ele>
        <time>2013-03-30T16:12:09Z</time>
      </trkpt>
      <trkpt lat="48.49293" lon="7.56926">
        <ele>150.4</ele>
        <time>2013-03-30T16:12:16Z</time>
      </trkpt>
      <trkpt lat="48.49302" lon="7.56929">
        <ele>150.5</ele>
        <time>2013-03-30T16:12:24Z</time>
      </trkpt>
      <trkpt lat="48.49306" lon="7.56944">
        <ele>150.7</ele>
        <time>2013-03-30T16:12:32Z</time>
      </trkpt>
      <trkpt lat="48.4931" lon="7.56957">
        <ele>150.9</ele>
        <time>2013-03-30T16:12:39Z</time>
      </trkpt>
      <trkpt lat="48.49315" lon="7.5697">
        <ele>151.1</ele>
        <time>2013-03-30T16:12:48Z</time>
      </trkpt>
      <trkpt lat="48.49322" lon="7.56979">
        <ele>151.3</ele>
        <time>2013-03-30T16:12:58Z</time>
      </trkpt>
      <trkpt lat="48.49332" lon="7.56978">
        <ele>151.5</ele>
        <time>2013-03-30T16:13:08Z</time>
      </trkpt>
      <trkpt lat="48.49342" lon="7.56976">
        <ele>151.6</ele>
        <time>2013-03-30T16:13:16Z</time>
      </trkpt>
      <trkpt lat="48.49349" lon="7.56987">
        <ele>151.8</ele>
        <time>2013-03-30T16:13:24Z</time>
      </trkpt>
      <trkpt lat="48.49354" lon="7.56998">
        <ele>152</ele>
        <time>2013-03-30T16:13:31Z</time>
      </trkpt>
      <trkpt lat="48.49347" lon="7.57006">
        <ele>152.1</ele>
        <time>2013-03-30T16:13:37Z</time>
      </trkpt>
      <trkpt lat="48.49339" lon="7.57014">
        <ele>152.2</ele>
        <time>2013-03-30T16:13:44Z</time>
      </trkpt>
      <trkpt lat="48.4933" lon="7.57019">
        <ele>152.3</ele>
        <time>2013-03-30T16:13:52Z</time>
      </trkpt>
      <trkpt lat="48.49324" lon="7.57029">
        <ele>152.4</ele>
        <time>2013-03-30T16:13:59Z</time>
      </trkpt>
      <trkpt lat="48.49318" lon="7.57039">
        <ele>152.5</ele>
        <time>2013-03-30T16:14:07Z</time>
      </trkpt>
      <trkpt lat="48.49313" lon="7.57052">
        <ele>152.5</ele>
        <time>2013-03-30T16:14:15Z</time>
      </trkpt>
      <trkpt lat="48.4931" lon="7.57066">
        <ele>152.5</ele>
        <time>2013-03-30T16:14:22Z</time>
      </trkpt>
      <trkpt lat="48.49313" lon="7.5708">
        <ele>152.5</ele>
        <time>2013-03-30T16:14:39Z</time>
      </trkpt>
      <trkpt lat="48.49314" lon="7.57094">
        <ele>152.5</ele>
        <time>2013-03-30T16:14:42Z</time>
      </trkpt>
      <trkpt lat="48.49315" lon="7.57109">
        <ele>152.5</ele>
        <time>2013-03-30T16:14:47Z</time>
      </trkpt>
      <trkpt lat="48.49315" lon="7.57127">
        <ele>152.5</ele>
        <time>2013-03-30T16:14:54Z</time>
      </trkpt>
      <trkpt lat="48.49311" lon="7.5714">
        <ele>152.5</ele>
        <time>2013-03-30T16:14:57Z</time>
      </trkpt>
      <trkpt lat="48.4931" lon="7.57155">
        <ele>152.4</ele>
        <time>2013-03-30T16:15:06Z</time>
      </trkpt>
      <trkpt lat="48.4931" lon="7.57169">
        <ele>152.3</ele>
        <time>2013-03-30T16:15:14Z</time>
      </trkpt>
      <trkpt lat="48.49311" lon="7.57184">
        <ele>152.2</ele>
        <time>2013-03-30T16:15:23Z</time>
      </trkpt>
      <trkpt lat="48.49311" lon="7.57198">
        <ele>152.1</ele>
        <time>2013-03-30T16:15:29Z</time>
      </trkpt>
      <trkpt lat="48.49314" lon="7.57213">
        <ele>152</ele>
        <time>2013-03-30T16:15:38Z</time>
      </trkpt>
      <trkpt lat="48.49318" lon="7.572">
        <ele>152</ele>
        <time>2013-03-30T16:15:46Z</time>
      </trkpt>
      <trkpt lat="48.49315" lon="7.57215">
        <ele>152</ele>
        <time>2013-03-30T16:15:52Z</time>
      </trkpt>
      <trkpt lat="48.49313" lon="7.57231">
        <ele>152</ele>
        <time>2013-03-30T16:15:56Z</time>
      </trkpt>
      <trkpt lat="48.49315" lon="7.57246">
        <ele>152</ele>
        <time>2013-03-30T16:15:59Z</time>
      </trkpt>
      <trkpt lat="48.4932" lon="7.57258">
        <ele>152</ele>
        <time>2013-03-30T16:16:05Z</time>
      </trkpt>
      <trkpt lat="48.49323" lon="7.57273">
        <ele>152</ele>
        <time>2013-03-30T16:16:12Z</time>
      </trkpt>
      <trkpt lat="48.49326" lon="7.57286">
        <ele>152</ele>
        <time>2013-03-30T16:16:22Z</time>
      </trkpt>
      <trkpt lat="48.49331" lon="7.57299">
        <ele>152</ele>
        <time>2013-03-30T16:16:29Z</time>
      </trkpt>
      <trkpt lat="48.49337" lon="7.57309">
        <ele>152</ele>
        <time>2013-03-30T16:16:36Z</time>
      </trkpt>
      <trkpt lat="48.49338" lon="7.57324">
        <ele>152.1</ele>
        <time>2013-03-30T16:16:44Z</time>
      </trkpt>
      <trkpt lat="48.49341" lon="7.57339">
        <ele>152.2</ele>
        <time>2013-03-30T16:16:52Z</time>
      </trkpt>
      <trkpt lat="48.49347" lon="7.57351">
        <ele>152.1</ele>
        <time>2013-03-30T16:16:59Z</time>
      </trkpt>
      <trkpt lat="48.49353" lon="7.57362">
        <ele>152</ele>
        <time>2013-03-30T16:17:08Z</time>
      </trkpt>
      <trkpt lat="48.49361" lon="7.57369">
        <ele>151.9</ele>
        <time>2013-03-30T16:17:13Z</time>
      </trkpt>
      <trkpt lat="48.4937" lon="7.57378">
        <ele>151.8</ele>
        <time>2013-03-30T16:17:19Z</time>
      </trkpt>
      <trkpt lat="48.49381" lon="7.57382">
        <ele>151.7</ele>
        <time>2013-03-30T16:17:25Z</time>
      </trkpt>
      <trkpt lat="48.49386" lon="7.57393">
        <ele>151.6</ele>
        <time>2013-03-30T16:17:32Z</time>
      </trkpt>
      <trkpt lat="48.49387" lon="7.57407">
        <ele>151.5</ele>
        <time>2013-03-30T16:17:40Z</time>
      </trkpt>
      <trkpt lat="48.49395" lon="7.57415">
        <ele>151.5</ele>
        <time>2013-03-30T16:17:47Z</time>
      </trkpt>
      <trkpt lat="48.49397" lon="7.57429">
        <ele>151.4</ele>
        <time>2013-03-30T16:17:56Z</time>
      </trkpt>
      <trkpt lat="48.49404" lon="7.5744">
        <ele>151.2</ele>
        <time>2013-03-30T16:18:06Z</time>
      </trkpt>
      <trkpt lat="48.49407" lon="7.57453">
        <ele>151</ele>
        <time>2013-03-30T16:18:13Z</time>
      </trkpt>
      <trkpt lat="48.49413" lon="7.57466">
        <ele>151</ele>
        <time>2013-03-30T16:18:21Z</time>
      </trkpt>
      <trkpt lat="48.49417" lon="7.57478">
        <ele>151</ele>
        <time>2013-03-30T16:18:29Z</time>
      </trkpt>
      <trkpt lat="48.49419" lon="7.57492">
        <ele>151</ele>
        <time>2013-03-30T16:18:36Z</time>
      </trkpt>
      <trkpt lat="48.49423" lon="7.57504">
        <ele>151</ele>
        <time>2013-03-30T16:18:42Z</time>
      </trkpt>
      <trkpt lat="48.4943" lon="7.57513">
        <ele>151.1</ele>
        <time>2013-03-30T16:18:49Z</time>
      </trkpt>
      <trkpt lat="48.49433" lon="7.57526">
        <ele>151.2</ele>
        <time>2013-03-30T16:19:01Z</time>
      </trkpt>
      <trkpt lat="48.49438" lon="7.5754">
        <ele>151.3</ele>
        <time>2013-03-30T16:19:04Z</time>
      </trkpt>
      <trkpt lat="48.49442" lon="7.57553">
        <ele>151.4</ele>
        <time>2013-03-30T16:19:06Z</time>
      </trkpt>
      <trkpt lat="48.49461" lon="7.57554">
        <ele>151.5</ele>
        <time>2013-03-30T16:19:27Z</time>
      </trkpt>
      <trkpt lat="48.4947" lon="7.57561">
        <ele>151.5</ele>
        <time>2013-03-30T16:19:35Z</time>
      </trkpt>
      <trkpt lat="48.49474" lon="7.57575">
        <ele>151.6</ele>
        <time>2013-03-30T16:19:47Z</time>
      </trkpt>
      <trkpt lat="48.49476" lon="7.57589">
        <ele>151.7</ele>
        <time>2013-03-30T16:19:59Z</time>
      </trkpt>
      <trkpt lat="48.49478" lon="7.57603">
        <ele>151.8</ele>
        <time>2013-03-30T16:20:05Z</time>
      </trkpt>
      <trkpt lat="48.49479" lon="7.57617">
        <ele>151.9</ele>
        <time>2013-03-30T16:20:10Z</time>
      </trkpt>
      <trkpt lat="48.49489" lon="7.57623">
        <ele>152</ele>
        <time>2013-03-30T16:20:18Z</time>
      </trkpt>
      <trkpt lat="48.49498" lon="7.5762">
        <ele>152</ele>
        <time>2013-03-30T16:20:22Z</time>
      </trkpt>
      <trkpt lat="48.49507" lon="7.57625">
        <ele>151.8</ele>
        <time>2013-03-30T16:20:32Z</time>
      </trkpt>
      <trkpt lat="48.49516" lon="7.57628">
        <ele>151.6</ele>
        <time>2013-03-30T16:20:39Z</time>
      </trkpt>
      <trkpt lat="48.49526" lon="7.57632">
        <ele>151.5</ele>
        <time>2013-03-30T16:20:45Z</time>
      </trkpt>
      <trkpt lat="48.49534" lon="7.57637">
        <ele>151.3</ele>
        <time>2013-03-30T16:20:52Z</time>
      </trkpt>
      <trkpt lat="48.49543" lon="7.57637">
        <ele>151.1</ele>
        <time>2013-03-30T16:21:00Z</time>
      </trkpt>
      <trkpt lat="48.49552" lon="7.57643">
        <ele>150.9</ele>
        <time>2013-03-30T16:21:12Z</time>
      </trkpt>
      <trkpt lat="48.49562" lon="7.57642">
        <ele>150.7</ele>
        <time>2013-03-30T16:21:20Z</time>
      </trkpt>
      <trkpt lat="48.49572" lon="7.57642">
        <ele>150.5</ele>
        <time>2013-03-30T16:21:28Z</time>
      </trkpt>
      <trkpt lat="48.49581" lon="7.57644">
        <ele>150.4</ele>
        <time>2013-03-30T16:21:35Z</time>
      </trkpt>
      <trkpt lat="48.4959" lon="7.57645">
        <ele>150.2</ele>
        <time>2013-03-30T16:21:42Z</time>
      </trkpt>
      <trkpt lat="48.496" lon="7.5765">
        <ele>150</ele>
        <time>2013-03-30T16:21:48Z</time>
      </trkpt>
      <trkpt lat="48.4961" lon="7.57651">
        <ele>150</ele>
        <time>2013-03-30T16:21:58Z</time>
      </trkpt>
      <trkpt lat="48.49619" lon="7.57654">
        <ele>150</ele>
        <time>2013-03-30T16:22:04Z</time>
      </trkpt>
      <trkpt lat="48.4963" lon="7.57655">
        <ele>150</ele>
        <time>2013-03-30T16:22:13Z</time>
      </trkpt>
      <trkpt lat="48.49639" lon="7.57657">
        <ele>150</ele>
        <time>2013-03-30T16:22:22Z</time>
      </trkpt>
      <trkpt lat="48.49648" lon="7.5766">
        <ele>150</ele>
        <time>2013-03-30T16:22:31Z</time>
      </trkpt>
      <trkpt lat="48.49657" lon="7.57663">
        <ele>150.2</ele>
        <time>2013-03-30T16:22:38Z</time>
      </trkpt>
      <trkpt lat="48.49667" lon="7.57665">
        <ele>150.4</ele>
        <time>2013-03-30T16:22:48Z</time>
      </trkpt>
      <trkpt lat="48.49676" lon="7.57671">
        <ele>150.5</ele>
        <time>2013-03-30T16:22:55Z</time>
      </trkpt>
      <trkpt lat="48.49685" lon="7.57676">
        <ele>150.7</ele>
        <time>2013-03-30T16:23:01Z</time>
      </trkpt>
      <trkpt lat="48.49694" lon="7.5768">
        <ele>150.9</ele>
        <time>2013-03-30T16:23:10Z</time>
      </trkpt>
      <trkpt lat="48.49712" lon="7.57687">
        <ele>151.1</ele>
        <time>2013-03-30T16:23:36Z</time>
      </trkpt>
      <trkpt lat="48.49719" lon="7.57697">
        <ele>151.1</ele>
        <time>2013-03-30T16:23:44Z</time>
      </trkpt>
      <trkpt lat="48.49727" lon="7.57703">
        <ele>151.1</ele>
        <time>2013-03-30T16:23:52Z</time>
      </trkpt>
      <trkpt lat="48.49735" lon="7.57708">
        <ele>151.1</ele>
        <time>2013-03-30T16:24:00Z</time>
      </trkpt>
      <trkpt lat="48.49745" lon="7.57714">
        <ele>151.1</ele>
        <time>2013-03-30T16:24:08Z</time>
      </trkpt>
      <trkpt lat="48.49754" lon="7.57718">
        <ele>151</ele>
        <time>2013-03-30T16:24:18Z</time>
      </trkpt>
      <trkpt lat="48.49762" lon="7.57725">
        <ele>150.7</ele>
        <time>2013-03-30T16:24:27Z</time>
      </trkpt>
      <trkpt lat="48.49771" lon="7.57732">
        <ele>150.5</ele>
        <time>2013-03-30T16:24:33Z</time>
      </trkpt>
      <trkpt lat="48.4978" lon="7.57738">
        <ele>150.2</ele>
        <time>2013-03-30T16:24:39Z</time>
      </trkpt>
      <trkpt lat="48.49788" lon="7.57746">
        <ele>149.9</ele>
        <time>2013-03-30T16:24:46Z</time>
      </trkpt>
      <trkpt lat="48.49796" lon="7.57752">
        <ele>149.6</ele>
        <time>2013-03-30T16:24:54Z</time>
      </trkpt>
      <trkpt lat="48.49805" lon="7.57759">
        <ele>149.4</ele>
        <time>2013-03-30T16:25:02Z</time>
      </trkpt>
      <trkpt lat="48.49813" lon="7.57764">
        <ele>149.1</ele>
        <time>2013-03-30T16:25:10Z</time>
      </trkpt>
      <trkpt lat="48.49821" lon="7.57772">
        <ele>148.8</ele>
        <time>2013-03-30T16:25:19Z</time>
      </trkpt>
      <trkpt lat="48.4983" lon="7.57778">
        <ele>148.5</ele>
        <time>2013-03-30T16:25:30Z</time>
      </trkpt>
      <trkpt lat="48.49839" lon="7.57783">
        <ele>148.3</ele>
        <time>2013-03-30T16:25:38Z</time>
      </trkpt>
      <trkpt lat="48.49847" lon="7.57792">
        <ele>148.2</ele>
        <time>2013-03-30T16:25:45Z</time>
      </trkpt>
      <trkpt lat="48.49855" lon="7.57801">
        <ele>148.1</ele>
        <time>2013-03-30T16:25:53Z</time>
      </trkpt>
      <trkpt lat="48.49863" lon="7.57811">
        <ele>148</ele>
        <time>2013-03-30T16:26:02Z</time>
      </trkpt>
      <trkpt lat="48.49871" lon="7.57821">
        <ele>147.9</ele>
        <time>2013-03-30T16:26:09Z</time>
      </trkpt>
      <trkpt lat="48.49878" lon="7.5783">
        <ele>147.8</ele>
        <time>2013-03-30T16:26:18Z</time>
      </trkpt>
      <trkpt lat="48.49886" lon="7.57836">
        <ele>147.7</ele>
        <time>2013-03-30T16:26:25Z</time>
      </trkpt>
      <trkpt lat="48.49894" lon="7.57845">
        <ele>147.6</ele>
        <time>2013-03-30T16:26:34Z</time>
      </trkpt>
      <trkpt lat="48.49902" lon="7.57855">
        <ele>147.7</ele>
        <time>2013-03-30T16:26:43Z</time>
      </trkpt>
      <trkpt lat="48.4991" lon="7.57862">
        <ele>147.8</ele>
        <time>2013-03-30T16:26:51Z</time>
      </trkpt>
      <trkpt lat="48.49918" lon="7.57868">
        <ele>147.9</ele>
        <time>2013-03-30T16:26:58Z</time>
      </trkpt>
      <trkpt lat="48.49925" lon="7.57877">
        <ele>148.2</ele>
        <time>2013-03-30T16:27:05Z</time>
      </trkpt>
      <trkpt lat="48.49933" lon="7.57886">
        <ele>148.4</ele>
        <time>2013-03-30T16:27:14Z</time>
      </trkpt>
      <trkpt lat="48.49939" lon="7.57897">
        <ele>148.5</ele>
        <time>2013-03-30T16:27:23Z</time>
      </trkpt>
      <trkpt lat="48.49947" lon="7.57905">
        <ele>148.7</ele>
        <time>2013-03-30T16:27:30Z</time>
      </trkpt>
      <trkpt lat="48.49957" lon="7.57908">
        <ele>148.9</ele>
        <time>2013-03-30T16:27:42Z</time>
      </trkpt>
      <trkpt lat="48.49965" lon="7.57916">
        <ele>149</ele>
        <time>2013-03-30T16:27:50Z</time>
      </trkpt>
      <trkpt lat="48.4997" lon="7.57929">
        <ele>149.1</ele>
        <time>2013-03-30T16:27:57Z</time>
      </trkpt>
      <trkpt lat="48.49976" lon="7.5794">
        <ele>149.2</ele>
        <time>2013-03-30T16:28:04Z</time>
      </trkpt>
      <trkpt lat="48.49984" lon="7.57948">
        <ele>149.3</ele>
        <time>2013-03-30T16:28:16Z</time>
      </trkpt>
      <trkpt lat="48.49991" lon="7.57958">
        <ele>149.4</ele>
        <time>2013-03-30T16:28:24Z</time>
      </trkpt>
      <trkpt lat="48.49999" lon="7.57967">
        <ele>149.5</ele>
        <time>2013-03-30T16:28:32Z</time>
      </trkpt>
      <trkpt lat="48.50006" lon="7.57974">
        <ele>149.4</ele>
        <time>2013-03-30T16:28:38Z</time>
      </trkpt>
      <trkpt lat="48.50015" lon="7.57984">
        <ele>149.4</ele>
        <time>2013-03-30T16:28:46Z</time>
      </trkpt>
      <trkpt lat="48.50023" lon="7.57992">
        <ele>149.4</ele>
        <time>2013-03-30T16:28:54Z</time>
      </trkpt>
      <trkpt lat="48.5003" lon="7.58">
        <ele>149.3</ele>
        <time>2013-03-30T16:29:01Z</time>
      </trkpt>
      <trkpt lat="48.50037" lon="7.58011">
        <ele>149.2</ele>
        <time>2013-03-30T16:29:08Z</time>
      </trkpt>
      <trkpt lat="48.50045" lon="7.58021">
        <ele>149.2</ele>
        <time>2013-03-30T16:29:15Z</time>
      </trkpt>
      <trkpt lat="48.50053" lon="7.58029">
        <ele>149.2</ele>
        <time>2013-03-30T16:29:20Z</time>
      </trkpt>
      <trkpt lat="48.5006" lon="7.58039">
        <ele>149.2</ele>
        <time>2013-03-30T16:29:32Z</time>
      </trkpt>
      <trkpt lat="48.50067" lon="7.58049">
        <ele>149.2</ele>
        <time>2013-03-30T16:29:39Z</time>
      </trkpt>
      <trkpt lat="48.50076" lon="7.58056">
        <ele>149.2</ele>
        <time>2013-03-30T16:29:47Z</time>
      </trkpt>
      <trkpt lat="48.50082" lon="7.58069">
        <ele>149.2</ele>
        <time>2013-03-30T16:29:53Z</time>
      </trkpt>
      <trkpt lat="48.50085" lon="7.58084">
        <ele>149.1</ele>
        <time>2013-03-30T16:30:03Z</time>
      </trkpt>
      <trkpt lat="48.50093" lon="7.58094">
        <ele>148.9</ele>
        <time>2013-03-30T16:30:09Z</time>
      </trkpt>
      <trkpt lat="48.50101" lon="7.58105">
        <ele>148.7</ele>
        <time>2013-03-30T16:30:16Z</time>
      </trkpt>
      <trkpt lat="48.50107" lon="7.58116">
        <ele>149</ele>
        <time>2013-03-30T16:30:23Z</time>
      </trkpt>
      <trkpt lat="48.50113" lon="7.58126">
        <ele>149.3</ele>
        <time>2013-03-30T16:30:32Z</time>
      </trkpt>
      <trkpt lat="48.50117" lon="7.58138">
        <ele>149.5</ele>
        <time>2013-03-30T16:30:41Z</time>
      </trkpt>
      <trkpt lat="48.50117" lon="7.58154">
        <ele>149.8</ele>
        <time>2013-03-30T16:30:47Z</time>
      </trkpt>
      <trkpt lat="48.50122" lon="7.58167">
        <ele>150.1</ele>
        <time>2013-03-30T16:30:52Z</time>
      </trkpt>
      <trkpt lat="48.50129" lon="7.58176">
        <ele>150.4</ele>
        <time>2013-03-30T16:31:00Z</time>
      </trkpt>
      <trkpt lat="48.50134" lon="7.58189">
        <ele>150.6</ele>
        <time>2013-03-30T16:31:09Z</time>
      </trkpt>
      <trkpt lat="48.50142" lon="7.58196">
        <ele>150.9</ele>
        <time>2013-03-30T16:31:18Z</time>
      </trkpt>
      <trkpt lat="48.50149" lon="7.58206">
        <ele>151.3</ele>
        <time>2013-03-30T16:31:28Z</time>
      </trkpt>
      <trkpt lat="48.50154" lon="7.58218">
        <ele>151.6</ele>
        <time>2013-03-30T16:31:35Z</time>
      </trkpt>
      <trkpt lat="48.50161" lon="7.58229">
        <ele>152</ele>
        <time>2013-03-30T16:31:42Z</time>
      </trkpt>
      <trkpt lat="48.50167" lon="7.5824">
        <ele>151.9</ele>
        <time>2013-03-30T16:31:47Z</time>
      </trkpt>
      <trkpt lat="48.50171" lon="7.58252">
        <ele>151.8</ele>
        <time>2013-03-30T16:31:54Z</time>
      </trkpt>
      <trkpt lat="48.50177" lon="7.58263">
        <ele>151.7</ele>
        <time>2013-03-30T16:32:00Z</time>
      </trkpt>
      <trkpt lat="48.50182" lon="7.58274">
        <ele>151.7</ele>
        <time>2013-03-30T16:32:08Z</time>
      </trkpt>
      <trkpt lat="48.50187" lon="7.58286">
        <ele>151.7</ele>
        <time>2013-03-30T16:32:18Z</time>
      </trkpt>
      <trkpt lat="48.50194" lon="7.58298">
        <ele>151.7</ele>
        <time>2013-03-30T16:32:27Z</time>
      </trkpt>
      <trkpt lat="48.50202" lon="7.58307">
        <ele>151.7</ele>
        <time>2013-03-30T16:32:34Z</time>
      </trkpt>
      <trkpt lat="48.50206" lon="7.58319">
        <ele>151.7</ele>
        <time>2013-03-30T16:32:44Z</time>
      </trkpt>
      <trkpt lat="48.50212" lon="7.5833">
        <ele>151.5</ele>
        <time>2013-03-30T16:32:52Z</time>
      </trkpt>
      <trkpt lat="48.50219" lon="7.5834">
        <ele>151.4</ele>
        <time>2013-03-30T16:32:59Z</time>
      </trkpt>
      <trkpt lat="48.50226" lon="7.5835">
        <ele>151.2</ele>
        <time>2013-03-30T16:33:07Z</time>
      </trkpt>
      <trkpt lat="48.50231" lon="7.58363">
        <ele>151.1</ele>
        <time>2013-03-30T16:33:16Z</time>
      </trkpt>
      <trkpt lat="48.50237" lon="7.58374">
        <ele>151</ele>
        <time>2013-03-30T16:33:26Z</time>
      </trkpt>
      <trkpt lat="48.50243" lon="7.58385">
        <ele>150.9</ele>
        <time>2013-03-30T16:33:32Z</time>
      </trkpt>
      <trkpt lat="48.50249" lon="7.58396">
        <ele>150.7</ele>
        <time>2013-03-30T16:33:39Z</time>
      </trkpt>
      <trkpt lat="48.50255" lon="7.58408">
        <ele>150.5</ele>
        <time>2013-03-30T16:33:50Z</time>
      </trkpt>
      <trkpt lat="48.50259" lon="7.58421">
        <ele>150.4</ele>
        <time>2013-03-30T16:33:58Z</time>
      </trkpt>
      <trkpt lat="48.50263" lon="7.58435">
        <ele>150.2</ele>
        <time>2013-03-30T16:34:06Z</time>
      </trkpt>
      <trkpt lat="48.50268" lon="7.58447">
        <ele>150</ele>
        <time>2013-03-30T16:34:15Z</time>
      </trkpt>
      <trkpt lat="48.50274" lon="7.5846">
        <ele>150</ele>
        <time>2013-03-30T16:34:23Z</time>
      </trkpt>
      <trkpt lat="48.50277" lon="7.58473">
        <ele>150</ele>
        <time>2013-03-30T16:34:31Z</time>
      </trkpt>
      <trkpt lat="48.50281" lon="7.58487">
        <ele>150.2</ele>
        <time>2013-03-30T16:34:38Z</time>
      </trkpt>
      <trkpt lat="48.50283" lon="7.58502">
        <ele>150.4</ele>
        <time>2013-03-30T16:34:47Z</time>
      </trkpt>
      <trkpt lat="48.50285" lon="7.58515">
        <ele>150.5</ele>
        <time>2013-03-30T16:34:55Z</time>
      </trkpt>
      <trkpt lat="48.50287" lon="7.58529">
        <ele>150.7</ele>
        <time>2013-03-30T16:35:03Z</time>
      </trkpt>
      <trkpt lat="48.5029" lon="7.58543">
        <ele>150.9</ele>
        <time>2013-03-30T16:35:11Z</time>
      </trkpt>
      <trkpt lat="48.50293" lon="7.58556">
        <ele>151.1</ele>
        <time>2013-03-30T16:35:19Z</time>
      </trkpt>
      <trkpt lat="48.50295" lon="7.58571">
        <ele>151.2</ele>
        <time>2013-03-30T16:35:28Z</time>
      </trkpt>
      <trkpt lat="48.50297" lon="7.58585">
        <ele>151.3</ele>
        <time>2013-03-30T16:35:35Z</time>
      </trkpt>
      <trkpt lat="48.503" lon="7.586">
        <ele>151.4</ele>
        <time>2013-03-30T16:35:42Z</time>
      </trkpt>
      <trkpt lat="48.50303" lon="7.58613">
        <ele>151.5</ele>
        <time>2013-03-30T16:35:55Z</time>
      </trkpt>
      <trkpt lat="48.50303" lon="7.58627">
        <ele>151.5</ele>
        <time>2013-03-30T16:36:00Z</time>
      </trkpt>
      <trkpt lat="48.50304" lon="7.58641">
        <ele>151.5</ele>
        <time>2013-03-30T16:36:06Z</time>
      </trkpt>
      <trkpt lat="48.50305" lon="7.58655">
        <ele>151.4</ele>
        <time>2013-03-30T16:36:11Z</time>
      </trkpt>
      <trkpt lat="48.50307" lon="7.58669">
        <ele>151.3</ele>
        <time>2013-03-30T16:36:19Z</time>
      </trkpt>
      <trkpt lat="48.50309" lon="7.58682">
        <ele>151.2</ele>
        <time>2013-03-30T16:36:26Z</time>
      </trkpt>
      <trkpt lat="48.5031" lon="7.58697">
        <ele>151.1</ele>
        <time>2013-03-30T16:36:34Z</time>
      </trkpt>
      <trkpt lat="48.50312" lon="7.58711">
        <ele>151</ele>
        <time>2013-03-30T16:36:40Z</time>
      </trkpt>
      <trkpt lat="48.50314" lon="7.58725">
        <ele>151</ele>
        <time>2013-03-30T16:36:51Z</time>
      </trkpt>
      <trkpt lat="48.50317" lon="7.58741">
        <ele>151</ele>
        <time>2013-03-30T16:36:55Z</time>
      </trkpt>
      <trkpt lat="48.50321" lon="7.58754">
        <ele>151</ele>
        <time>2013-03-30T16:37:00Z</time>
      </trkpt>
      <trkpt lat="48.50321" lon="7.58769">
        <ele>151</ele>
        <time>2013-03-30T16:37:12Z</time>
      </trkpt>
      <trkpt lat="48.50324" lon="7.58783">
        <ele>151</ele>
        <time>2013-03-30T16:37:20Z</time>
      </trkpt>
      <trkpt lat="48.50327" lon="7.58797">
        <ele>151</ele>
        <time>2013-03-30T16:37:28Z</time>
      </trkpt>
      <trkpt lat="48.50328" lon="7.58811">
        <ele>151</ele>
        <time>2013-03-30T16:37:36Z</time>
      </trkpt>
      <trkpt lat="48.50332" lon="7.58824">
        <ele>150.9</ele>
        <time>2013-03-30T16:37:44Z</time>
      </trkpt>
      <trkpt lat="48.50334" lon="7.58839">
        <ele>150.8</ele>
        <time>2013-03-30T16:37:52Z</time>
      </trkpt>
      <trkpt lat="48.50338" lon="7.58853">
        <ele>150.7</ele>
        <time>2013-03-30T16:37:59Z</time>
      </trkpt>
      <trkpt lat="48.50341" lon="7.58867">
        <ele>150.6</ele>
        <time>2013-03-30T16:38:08Z</time>
      </trkpt>
      <trkpt lat="48.50346" lon="7.58881">
        <ele>150.5</ele>
        <time>2013-03-30T16:38:19Z</time>
      </trkpt>
      <trkpt lat="48.50349" lon="7.58895">
        <ele>150.5</ele>
        <time>2013-03-30T16:38:28Z</time>
      </trkpt>
      <trkpt lat="48.50351" lon="7.58908">
        <ele>150.4</ele>
        <time>2013-03-30T16:38:37Z</time>
      </trkpt>
      <trkpt lat="48.50356" lon="7.58923">
        <ele>150.3</ele>
        <time>2013-03-30T16:38:44Z</time>
      </trkpt>
      <trkpt lat="48.50361" lon="7.58936">
        <ele>150.2</ele>
        <time>2013-03-30T16:38:51Z</time>
      </trkpt>
      <trkpt lat="48.50364" lon="7.5895">
        <ele>150.3</ele>
        <time>2013-03-30T16:39:00Z</time>
      </trkpt>
      <trkpt lat="48.50368" lon="7.58963">
        <ele>150.4</ele>
        <time>2013-03-30T16:39:08Z</time>
      </trkpt>
      <trkpt lat="48.50371" lon="7.58976">
        <ele>150.5</ele>
        <time>2013-03-30T16:39:15Z</time>
      </trkpt>
      <trkpt lat="48.50375" lon="7.58988">
        <ele>150.7</ele>
        <time>2013-03-30T16:39:22Z</time>
      </trkpt>
      <trkpt lat="48.50379" lon="7.59001">
        <ele>150.9</ele>
        <time>2013-03-30T16:39:30Z</time>
      </trkpt>
      <trkpt lat="48.50384" lon="7.59013">
        <ele>151.1</ele>
        <time>2013-03-30T16:39:38Z</time>
      </trkpt>
      <trkpt lat="48.5039" lon="7.59025">
        <ele>151.3</ele>
        <time>2013-03-30T16:39:47Z</time>
      </trkpt>
      <trkpt lat="48.50396" lon="7.59037">
        <ele>151.5</ele>
        <time>2013-03-30T16:39:53Z</time>
      </trkpt>
      <trkpt lat="48.50398" lon="7.59052">
        <ele>151.6</ele>
        <time>2013-03-30T16:40:01Z</time>
      </trkpt>
      <trkpt lat="48.50399" lon="7.59066">
        <ele>151.8</ele>
        <time>2013-03-30T16:40:11Z</time>
      </trkpt>
      <trkpt lat="48.50403" lon="7.59079">
        <ele>152</ele>
        <time>2013-03-30T16:40:20Z</time>
      </trkpt>
      <trkpt lat="48.50407" lon="7.59092">
        <ele>152</ele>
        <time>2013-03-30T16:40:27Z</time>
      </trkpt>
      <trkpt lat="48.50411" lon="7.59105">
        <ele>152</ele>
        <time>2013-03-30T16:40:34Z</time>
      </trkpt>
      <trkpt lat="48.50414" lon="7.59118">
        <ele>152</ele>
        <time>2013-03-30T16:40:42Z</time>
      </trkpt>
      <trkpt lat="48.50416" lon="7.59132">
        <ele>152</ele>
        <time>2013-03-30T16:40:50Z</time>
      </trkpt>
      <trkpt lat="48.50418" lon="7.59147">
        <ele>152</ele>
        <time>2013-03-30T16:40:58Z</time>
      </trkpt>
      <trkpt lat="48.5042" lon="7.5916">
        <ele>152</ele>
        <time>2013-03-30T16:41:07Z</time>
      </trkpt>
      <trkpt lat="48.50422" lon="7.59174">
        <ele>152</ele>
        <time>2013-03-30T16:41:16Z</time>
      </trkpt>
      <trkpt lat="48.50425" lon="7.59187">
        <ele>152</ele>
        <time>2013-03-30T16:41:23Z</time>
      </trkpt>
      <trkpt lat="48.50427" lon="7.59202">
        <ele>152</ele>
        <time>2013-03-30T16:41:31Z</time>
      </trkpt>
      <trkpt lat="48.5043" lon="7.59215">
        <ele>152</ele>
        <time>2013-03-30T16:41:40Z</time>
      </trkpt>
      <trkpt lat="48.50432" lon="7.59229">
        <ele>152.1</ele>
        <time>2013-03-30T16:41:48Z</time>
      </trkpt>
      <trkpt lat="48.50435" lon="7.59244">
        <ele>152.2</ele>
        <time>2013-03-30T16:41:56Z</time>
      </trkpt>
      <trkpt lat="48.50436" lon="7.59258">
        <ele>152.3</ele>
        <time>2013-03-30T16:42:04Z</time>
      </trkpt>
      <trkpt lat="48.50439" lon="7.59271">
        <ele>152.4</ele>
        <time>2013-03-30T16:42:14Z</time>
      </trkpt>
      <trkpt lat="48.5044" lon="7.59286">
        <ele>152.5</ele>
        <time>2013-03-30T16:42:21Z</time>
      </trkpt>
      <trkpt lat="48.50442" lon="7.593">
        <ele>152.5</ele>
        <time>2013-03-30T16:42:30Z</time>
      </trkpt>
      <trkpt lat="48.50442" lon="7.59314">
        <ele>152.6</ele>
        <time>2013-03-30T16:42:39Z</time>
      </trkpt>
      <trkpt lat="48.5044" lon="7.59328">
        <ele>152.7</ele>
        <time>2013-03-30T16:42:46Z</time>
      </trkpt>
      <trkpt lat="48.5044" lon="7.59345">
        <ele>152.8</ele>
        <time>2013-03-30T16:42:52Z</time>
      </trkpt>
      <trkpt lat="48.50441" lon="7.59362">
        <ele>152.9</ele>
        <time>2013-03-30T16:42:56Z</time>
      </trkpt>
      <trkpt lat="48.50446" lon="7.59374">
        <ele>153</ele>
        <time>2013-03-30T16:43:06Z</time>
      </trkpt>
      <trkpt lat="48.50444" lon="7.59388">
        <ele>153</ele>
        <time>2013-03-30T16:43:16Z</time>
      </trkpt>
      <trkpt lat="48.50443" lon="7.59402">
        <ele>153</ele>
        <time>2013-03-30T16:43:26Z</time>
      </trkpt>
      <trkpt lat="48.50442" lon="7.59416">
        <ele>153</ele>
        <time>2013-03-30T16:43:36Z</time>
      </trkpt>
      <trkpt lat="48.50438" lon="7.59429">
        <ele>153</ele>
        <time>2013-03-30T16:43:44Z</time>
      </trkpt>
      <trkpt lat="48.50436" lon="7.59444">
        <ele>153</ele>
        <time>2013-03-30T16:43:52Z</time>
      </trkpt>
      <trkpt lat="48.50435" lon="7.59459">
        <ele>153</ele>
        <time>2013-03-30T16:44:02Z</time>
      </trkpt>
      <trkpt lat="48.50436" lon="7.59474">
        <ele>153</ele>
        <time>2013-03-30T16:44:10Z</time>
      </trkpt>
      <trkpt lat="48.50436" lon="7.59488">
        <ele>153.1</ele>
        <time>2013-03-30T16:44:17Z</time>
      </trkpt>
      <trkpt lat="48.50437" lon="7.59502">
        <ele>153.2</ele>
        <time>2013-03-30T16:44:26Z</time>
      </trkpt>
      <trkpt lat="48.50436" lon="7.59516">
        <ele>153.3</ele>
        <time>2013-03-30T16:44:32Z</time>
      </trkpt>
      <trkpt lat="48.50437" lon="7.5953">
        <ele>153.4</ele>
        <time>2013-03-30T16:44:38Z</time>
      </trkpt>
      <trkpt lat="48.50436" lon="7.59544">
        <ele>153.5</ele>
        <time>2013-03-30T16:44:47Z</time>
      </trkpt>
      <trkpt lat="48.50436" lon="7.59558">
        <ele>153.5</ele>
        <time>2013-03-30T16:44:54Z</time>
      </trkpt>
      <trkpt lat="48.50436" lon="7.59573">
        <ele>153.7</ele>
        <time>2013-03-30T16:45:03Z</time>
      </trkpt>
      <trkpt lat="48.50437" lon="7.59587">
        <ele>153.9</ele>
        <time>2013-03-30T16:45:12Z</time>
      </trkpt>
      <trkpt lat="48.50436" lon="7.59603">
        <ele>154.1</ele>
        <time>2013-03-30T16:45:20Z</time>
      </trkpt>
      <trkpt lat="48.50436" lon="7.59617">
        <ele>154.3</ele>
        <time>2013-03-30T16:45:28Z</time>
      </trkpt>
      <trkpt lat="48.50435" lon="7.59631">
        <ele>154.5</ele>
        <time>2013-03-30T16:45:34Z</time>
      </trkpt>
      <trkpt lat="48.50431" lon="7.59644">
        <ele>154.5</ele>
        <time>2013-03-30T16:45:43Z</time>
      </trkpt>
      <trkpt lat="48.50433" lon="7.59659">
        <ele>154.6</ele>
        <time>2013-03-30T16:45:50Z</time>
      </trkpt>
      <trkpt lat="48.50432" lon="7.59674">
        <ele>154.7</ele>
        <time>2013-03-30T16:45:58Z</time>
      </trkpt>
      <trkpt lat="48.50433" lon="7.59688">
        <ele>154.8</ele>
        <time>2013-03-30T16:46:07Z</time>
      </trkpt>
      <trkpt lat="48.50433" lon="7.59702">
        <ele>154.9</ele>
        <time>2013-03-30T16:46:16Z</time>
      </trkpt>
      <trkpt lat="48.50433" lon="7.59716">
        <ele>155</ele>
        <time>2013-03-30T16:46:23Z</time>
      </trkpt>
      <trkpt lat="48.50434" lon="7.59731">
        <ele>154.8</ele>
        <time>2013-03-30T16:46:32Z</time>
      </trkpt>
      <trkpt lat="48.50434" lon="7.59745">
        <ele>154.6</ele>
        <time>2013-03-30T16:46:39Z</time>
      </trkpt>
      <trkpt lat="48.50437" lon="7.59758">
        <ele>154.5</ele>
        <time>2013-03-30T16:46:48Z</time>
      </trkpt>
      <trkpt lat="48.50438" lon="7.59773">
        <ele>154.3</ele>
        <time>2013-03-30T16:46:56Z</time>
      </trkpt>
      <trkpt lat="48.50437" lon="7.59788">
        <ele>154.1</ele>
        <time>2013-03-30T16:47:06Z</time>
      </trkpt>
      <trkpt lat="48.50436" lon="7.59802">
        <ele>153.9</ele>
        <time>2013-03-30T16:47:10Z</time>
      </trkpt>
      <trkpt lat="48.50436" lon="7.59815">
        <ele>153.6</ele>
        <time>2013-03-30T16:47:16Z</time>
      </trkpt>
      <trkpt lat="48.50436" lon="7.59831">
        <ele>153.4</ele>
        <time>2013-03-30T16:47:25Z</time>
      </trkpt>
      <trkpt lat="48.50438" lon="7.59845">
        <ele>153.1</ele>
        <time>2013-03-30T16:47:32Z</time>
      </trkpt>
      <trkpt lat="48.50438" lon="7.59861">
        <ele>152.8</ele>
        <time>2013-03-30T16:47:43Z</time>
      </trkpt>
      <trkpt lat="48.50439" lon="7.59875">
        <ele>152.5</ele>
        <time>2013-03-30T16:47:49Z</time>
      </trkpt>
      <trkpt lat="48.50437" lon="7.59888">
        <ele>152.5</ele>
        <time>2013-03-30T16:47:56Z</time>
      </trkpt>
      <trkpt lat="48.50436" lon="7.59903">
        <ele>152.5</ele>
        <time>2013-03-30T16:48:04Z</time>
      </trkpt>
      <trkpt lat="48.50438" lon="7.59917">
        <ele>152.5</ele>
        <time>2013-03-30T16:48:11Z</time>
      </trkpt>
      <trkpt lat="48.50438" lon="7.59932">
        <ele>152.5</ele>
        <time>2013-03-30T16:48:18Z</time>
      </trkpt>
      <trkpt lat="48.50438" lon="7.59945">
        <ele>152.5</ele>
        <time>2013-03-30T16:48:26Z</time>
      </trkpt>
      <trkpt lat="48.50435" lon="7.5996">
        <ele>152.5</ele>
        <time>2013-03-30T16:48:33Z</time>
      </trkpt>
      <trkpt lat="48.50436" lon="7.59975">
        <ele>152.5</ele>
        <time>2013-03-30T16:48:40Z</time>
      </trkpt>
      <trkpt lat="48.50436" lon="7.59988">
        <ele>152.5</ele>
        <time>2013-03-30T16:48:47Z</time>
      </trkpt>
      <trkpt lat="48.50436" lon="7.60003">
        <ele>152.5</ele>
        <time>2013-03-30T16:48:55Z</time>
      </trkpt>
      <trkpt lat="48.50438" lon="7.60016">
        <ele>152.5</ele>
        <time>2013-03-30T16:49:05Z</time>
      </trkpt>
      <trkpt lat="48.50436" lon="7.60031">
        <ele>152.5</ele>
        <time>2013-03-30T16:49:13Z</time>
      </trkpt>
      <trkpt lat="48.50434" lon="7.60046">
        <ele>152.5</ele>
        <time>2013-03-30T16:49:22Z</time>
      </trkpt>
      <trkpt lat="48.50429" lon="7.6006">
        <ele>152.3</ele>
        <time>2013-03-30T16:49:29Z</time>
      </trkpt>
      <trkpt lat="48.50431" lon="7.60074">
        <ele>152.1</ele>
        <time>2013-03-30T16:49:37Z</time>
      </trkpt>
      <trkpt lat="48.50431" lon="7.60103">
        <ele>151.9</ele>
        <time>2013-03-30T16:50:00Z</time>
      </trkpt>
      <trkpt lat="48.50432" lon="7.60117">
        <ele>151.7</ele>
        <time>2013-03-30T16:50:08Z</time>
      </trkpt>
      <trkpt lat="48.50434" lon="7.6013">
        <ele>151.5</ele>
        <time>2013-03-30T16:50:18Z</time>
      </trkpt>
      <trkpt lat="48.50436" lon="7.60144">
        <ele>151.5</ele>
        <time>2013-03-30T16:50:24Z</time>
      </trkpt>
      <trkpt lat="48.50436" lon="7.60158">
        <ele>151.5</ele>
        <time>2013-03-30T16:50:36Z</time>
      </trkpt>
      <trkpt lat="48.50436" lon="7.60173">
        <ele>151.5</ele>
        <time>2013-03-30T16:50:44Z</time>
      </trkpt>
      <trkpt lat="48.50436" lon="7.60187">
        <ele>151.5</ele>
        <time>2013-03-30T16:50:51Z</time>
      </trkpt>
      <trkpt lat="48.50434" lon="7.60203">
        <ele>151.5</ele>
        <time>2013-03-30T16:50:56Z</time>
      </trkpt>
      <trkpt lat="48.50434" lon="7.60217">
        <ele>151.5</ele>
        <time>2013-03-30T16:51:04Z</time>
      </trkpt>
      <trkpt lat="48.50436" lon="7.60232">
        <ele>151.6</ele>
        <time>2013-03-30T16:51:14Z</time>
      </trkpt>
      <trkpt lat="48.50435" lon="7.60247">
        <ele>151.7</ele>
        <time>2013-03-30T16:51:21Z</time>
      </trkpt>
      <trkpt lat="48.50436" lon="7.60263">
        <ele>151.8</ele>
        <time>2013-03-30T16:51:30Z</time>
      </trkpt>
      <trkpt lat="48.50439" lon="7.60278">
        <ele>151.9</ele>
        <time>2013-03-30T16:51:37Z</time>
      </trkpt>
      <trkpt lat="48.5044" lon="7.60291">
        <ele>152</ele>
        <time>2013-03-30T16:51:43Z</time>
      </trkpt>
      <trkpt lat="48.50442" lon="7.60305">
        <ele>151.9</ele>
        <time>2013-03-30T16:51:48Z</time>
      </trkpt>
      <trkpt lat="48.50442" lon="7.6032">
        <ele>151.8</ele>
        <time>2013-03-30T16:51:58Z</time>
      </trkpt>
      <trkpt lat="48.50445" lon="7.60334">
        <ele>151.7</ele>
        <time>2013-03-30T16:52:09Z</time>
      </trkpt>
      <trkpt lat="48.50445" lon="7.60349">
        <ele>151.6</ele>
        <time>2013-03-30T16:52:20Z</time>
      </trkpt>
      <trkpt lat="48.50445" lon="7.60364">
        <ele>151.5</ele>
        <time>2013-03-30T16:52:25Z</time>
      </trkpt>
      <trkpt lat="48.50447" lon="7.60378">
        <ele>151.5</ele>
        <time>2013-03-30T16:52:32Z</time>
      </trkpt>
      <trkpt lat="48.50453" lon="7.6039">
        <ele>151.4</ele>
        <time>2013-03-30T16:52:41Z</time>
      </trkpt>
      <trkpt lat="48.50452" lon="7.60405">
        <ele>151.2</ele>
        <time>2013-03-30T16:52:46Z</time>
      </trkpt>
      <trkpt lat="48.50451" lon="7.60419">
        <ele>151</ele>
        <time>2013-03-30T16:52:49Z</time>
      </trkpt>
      <trkpt lat="48.50451" lon="7.60433">
        <ele>150.8</ele>
        <time>2013-03-30T16:52:54Z</time>
      </trkpt>
      <trkpt lat="48.50457" lon="7.60443">
        <ele>150.6</ele>
        <time>2013-03-30T16:53:12Z</time>
      </trkpt>
      <trkpt lat="48.50459" lon="7.60459">
        <ele>150.5</ele>
        <time>2013-03-30T16:53:17Z</time>
      </trkpt>
      <trkpt lat="48.50466" lon="7.60468">
        <ele>150.5</ele>
        <time>2013-03-30T16:53:29Z</time>
      </trkpt>
      <trkpt lat="48.50468" lon="7.60483">
        <ele>150.4</ele>
        <time>2013-03-30T16:53:38Z</time>
      </trkpt>
      <trkpt lat="48.50468" lon="7.60498">
        <ele>150.3</ele>
        <time>2013-03-30T16:53:46Z</time>
      </trkpt>
      <trkpt lat="48.50471" lon="7.60512">
        <ele>150.2</ele>
        <time>2013-03-30T16:53:58Z</time>
      </trkpt>
      <trkpt lat="48.50474" lon="7.60527">
        <ele>150.1</ele>
        <time>2013-03-30T16:54:05Z</time>
      </trkpt>
      <trkpt lat="48.5047" lon="7.60543">
        <ele>150</ele>
        <time>2013-03-30T16:54:09Z</time>
      </trkpt>
      <trkpt lat="48.50476" lon="7.60554">
        <ele>150</ele>
        <time>2013-03-30T16:54:16Z</time>
      </trkpt>
      <trkpt lat="48.50484" lon="7.60561">
        <ele>150</ele>
        <time>2013-03-30T16:54:20Z</time>
      </trkpt>
      <trkpt lat="48.50481" lon="7.60574">
        <ele>150.1</ele>
        <time>2013-03-30T16:54:36Z</time>
      </trkpt>
      <trkpt lat="48.5048" lon="7.60589">
        <ele>150.2</ele>
        <time>2013-03-30T16:54:46Z</time>
      </trkpt>
      <trkpt lat="48.50484" lon="7.60602">
        <ele>150.3</ele>
        <time>2013-03-30T16:54:54Z</time>
      </trkpt>
      <trkpt lat="48.50487" lon="7.60615">
        <ele>150.4</ele>
        <time>2013-03-30T16:55:01Z</time>
      </trkpt>
      <trkpt lat="48.50484" lon="7.60629">
        <ele>150.5</ele>
        <time>2013-03-30T16:55:10Z</time>
      </trkpt>
      <trkpt lat="48.50486" lon="7.60642">
        <ele>150.5</ele>
        <time>2013-03-30T16:55:20Z</time>
      </trkpt>
      <trkpt lat="48.50486" lon="7.60657">
        <ele>150.6</ele>
        <time>2013-03-30T16:55:28Z</time>
      </trkpt>
      <trkpt lat="48.50483" lon="7.6067">
        <ele>150.7</ele>
        <time>2013-03-30T16:55:38Z</time>
      </trkpt>
      <trkpt lat="48.5049" lon="7.60679">
        <ele>150.8</ele>
        <time>2013-03-30T16:55:46Z</time>
      </trkpt>
      <trkpt lat="48.50493" lon="7.60692">
        <ele>150.9</ele>
        <time>2013-03-30T16:55:53Z</time>
      </trkpt>
      <trkpt lat="48.505" lon="7.60702">
        <ele>151</ele>
        <time>2013-03-30T16:56:01Z</time>
      </trkpt>
      <trkpt lat="48.505" lon="7.60717">
        <ele>151</ele>
        <time>2013-03-30T16:56:10Z</time>
      </trkpt>
      <trkpt lat="48.50508" lon="7.60724">
        <ele>151</ele>
        <time>2013-03-30T16:56:19Z</time>
      </trkpt>
      <trkpt lat="48.50507" lon="7.60739">
        <ele>151</ele>
        <time>2013-03-30T16:56:28Z</time>
      </trkpt>
      <trkpt lat="48.50515" lon="7.6075">
        <ele>151</ele>
        <time>2013-03-30T16:56:34Z</time>
      </trkpt>
      <trkpt lat="48.50522" lon="7.6076">
        <ele>151</ele>
        <time>2013-03-30T16:56:44Z</time>
      </trkpt>
      <trkpt lat="48.50523" lon="7.60773">
        <ele>151</ele>
        <time>2013-03-30T16:56:54Z</time>
      </trkpt>
      <trkpt lat="48.50529" lon="7.60785">
        <ele>151.1</ele>
        <time>2013-03-30T16:57:01Z</time>
      </trkpt>
      <trkpt lat="48.50536" lon="7.60794">
        <ele>151.2</ele>
        <time>2013-03-30T16:57:10Z</time>
      </trkpt>
      <trkpt lat="48.50541" lon="7.60807">
        <ele>151.3</ele>
        <time>2013-03-30T16:57:19Z</time>
      </trkpt>
      <trkpt lat="48.5054" lon="7.60822">
        <ele>151.4</ele>
        <time>2013-03-30T16:57:30Z</time>
      </trkpt>
      <trkpt lat="48.50539" lon="7.60837">
        <ele>151.5</ele>
        <time>2013-03-30T16:57:37Z</time>
      </trkpt>
      <trkpt lat="48.50547" lon="7.60845">
        <ele>151.7</ele>
        <time>2013-03-30T16:57:44Z</time>
      </trkpt>
      <trkpt lat="48.50553" lon="7.60856">
        <ele>151.9</ele>
        <time>2013-03-30T16:57:52Z</time>
      </trkpt>
      <trkpt lat="48.50559" lon="7.60868">
        <ele>152.1</ele>
        <time>2013-03-30T16:58:00Z</time>
      </trkpt>
      <trkpt lat="48.50565" lon="7.6088">
        <ele>152.3</ele>
        <time>2013-03-30T16:58:10Z</time>
      </trkpt>
      <trkpt lat="48.50573" lon="7.6089">
        <ele>152.5</ele>
        <time>2013-03-30T16:58:16Z</time>
      </trkpt>
      <trkpt lat="48.5057" lon="7.60904">
        <ele>152.6</ele>
        <time>2013-03-30T16:58:24Z</time>
      </trkpt>
      <trkpt lat="48.50576" lon="7.60916">
        <ele>152.7</ele>
        <time>2013-03-30T16:58:34Z</time>
      </trkpt>
      <trkpt lat="48.5058" lon="7.60929">
        <ele>152.8</ele>
        <time>2013-03-30T16:58:39Z</time>
      </trkpt>
      <trkpt lat="48.50582" lon="7.60942">
        <ele>152.9</ele>
        <time>2013-03-30T16:58:43Z</time>
      </trkpt>
      <trkpt lat="48.50592" lon="7.60945">
        <ele>153</ele>
        <time>2013-03-30T16:58:56Z</time>
      </trkpt>
      <trkpt lat="48.50602" lon="7.60946">
        <ele>153</ele>
        <time>2013-03-30T16:59:01Z</time>
      </trkpt>
      <trkpt lat="48.50611" lon="7.60941">
        <ele>153</ele>
        <time>2013-03-30T16:59:12Z</time>
      </trkpt>
      <trkpt lat="48.5062" lon="7.60937">
        <ele>153</ele>
        <time>2013-03-30T16:59:22Z</time>
      </trkpt>
      <trkpt lat="48.50629" lon="7.6094">
        <ele>153</ele>
        <time>2013-03-30T16:59:28Z</time>
      </trkpt>
      <trkpt lat="48.50637" lon="7.60933">
        <ele>153</ele>
        <time>2013-03-30T16:59:37Z</time>
      </trkpt>
      <trkpt lat="48.50646" lon="7.60931">
        <ele>153</ele>
        <time>2013-03-30T16:59:44Z</time>
      </trkpt>
      <trkpt lat="48.50656" lon="7.60927">
        <ele>153</ele>
        <time>2013-03-30T16:59:52Z</time>
      </trkpt>
      <trkpt lat="48.50667" lon="7.60925">
        <ele>153.1</ele>
        <time>2013-03-30T16:59:59Z</time>
      </trkpt>
      <trkpt lat="48.50676" lon="7.60922">
        <ele>153.2</ele>
        <time>2013-03-30T17:00:05Z</time>
      </trkpt>
      <trkpt lat="48.50686" lon="7.60919">
        <ele>153.3</ele>
        <time>2013-03-30T17:00:14Z</time>
      </trkpt>
      <trkpt lat="48.50696" lon="7.60919">
        <ele>153.4</ele>
        <time>2013-03-30T17:00:21Z</time>
      </trkpt>
      <trkpt lat="48.50706" lon="7.60917">
        <ele>153.5</ele>
        <time>2013-03-30T17:00:32Z</time>
      </trkpt>
      <trkpt lat="48.50715" lon="7.60913">
        <ele>153.5</ele>
        <time>2013-03-30T17:00:40Z</time>
      </trkpt>
      <trkpt lat="48.50724" lon="7.60919">
        <ele>153.5</ele>
        <time>2013-03-30T17:00:53Z</time>
      </trkpt>
      <trkpt lat="48.50733" lon="7.60927">
        <ele>153.5</ele>
        <time>2013-03-30T17:00:58Z</time>
      </trkpt>
      <trkpt lat="48.50739" lon="7.60941">
        <ele>153.5</ele>
        <time>2013-03-30T17:01:02Z</time>
      </trkpt>
      <trkpt lat="48.5074" lon="7.60956">
        <ele>153.5</ele>
        <time>2013-03-30T17:01:06Z</time>
      </trkpt>
      <trkpt lat="48.50745" lon="7.60969">
        <ele>153.5</ele>
        <time>2013-03-30T17:01:18Z</time>
      </trkpt>
      <trkpt lat="48.50755" lon="7.60971">
        <ele>153.4</ele>
        <time>2013-03-30T17:01:26Z</time>
      </trkpt>
      <trkpt lat="48.50763" lon="7.60977">
        <ele>153.5</ele>
        <time>2013-03-30T17:01:36Z</time>
      </trkpt>
      <trkpt lat="48.50771" lon="7.60984">
        <ele>153.5</ele>
        <time>2013-03-30T17:01:42Z</time>
      </trkpt>
      <trkpt lat="48.50774" lon="7.60997">
        <ele>153.6</ele>
        <time>2013-03-30T17:01:50Z</time>
      </trkpt>
      <trkpt lat="48.5078" lon="7.61008">
        <ele>153.5</ele>
        <time>2013-03-30T17:02:00Z</time>
      </trkpt>
      <trkpt lat="48.50788" lon="7.61016">
        <ele>153.5</ele>
        <time>2013-03-30T17:02:07Z</time>
      </trkpt>
      <trkpt lat="48.50797" lon="7.61022">
        <ele>153.5</ele>
        <time>2013-03-30T17:02:12Z</time>
      </trkpt>
      <trkpt lat="48.50804" lon="7.61032">
        <ele>153.5</ele>
        <time>2013-03-30T17:02:20Z</time>
      </trkpt>
      <trkpt lat="48.5081" lon="7.61044">
        <ele>153.5</ele>
        <time>2013-03-30T17:02:31Z</time>
      </trkpt>
      <trkpt lat="48.50816" lon="7.61054">
        <ele>153.5</ele>
        <time>2013-03-30T17:02:38Z</time>
      </trkpt>
      <trkpt lat="48.50824" lon="7.61063">
        <ele>153.5</ele>
        <time>2013-03-30T17:02:45Z</time>
      </trkpt>
      <trkpt lat="48.50826" lon="7.61079">
        <ele>153.3</ele>
        <time>2013-03-30T17:02:56Z</time>
      </trkpt>
      <trkpt lat="48.50829" lon="7.61092">
        <ele>152.8</ele>
        <time>2013-03-30T17:03:01Z</time>
      </trkpt>
      <trkpt lat="48.50836" lon="7.61102">
        <ele>152.4</ele>
        <time>2013-03-30T17:03:10Z</time>
      </trkpt>
      <trkpt lat="48.50843" lon="7.61114">
        <ele>151.9</ele>
        <time>2013-03-30T17:03:17Z</time>
      </trkpt>
      <trkpt lat="48.5085" lon="7.61122">
        <ele>151.6</ele>
        <time>2013-03-30T17:03:27Z</time>
      </trkpt>
      <trkpt lat="48.50854" lon="7.61136">
        <ele>151.8</ele>
        <time>2013-03-30T17:03:34Z</time>
      </trkpt>
      <trkpt lat="48.50863" lon="7.61143">
        <ele>152</ele>
        <time>2013-03-30T17:03:43Z</time>
      </trkpt>
      <trkpt lat="48.50868" lon="7.61154">
        <ele>152.2</ele>
        <time>2013-03-30T17:03:52Z</time>
      </trkpt>
      <trkpt lat="48.50871" lon="7.61168">
        <ele>151.7</ele>
        <time>2013-03-30T17:04:01Z</time>
      </trkpt>
      <trkpt lat="48.50877" lon="7.61178">
        <ele>151.3</ele>
        <time>2013-03-30T17:04:07Z</time>
      </trkpt>
      <trkpt lat="48.50883" lon="7.6119">
        <ele>151.1</ele>
        <time>2013-03-30T17:04:14Z</time>
      </trkpt>
      <trkpt lat="48.5089" lon="7.61199">
        <ele>151.2</ele>
        <time>2013-03-30T17:04:22Z</time>
      </trkpt>
      <trkpt lat="48.50898" lon="7.61207">
        <ele>151.4</ele>
        <time>2013-03-30T17:04:30Z</time>
      </trkpt>
      <trkpt lat="48.50905" lon="7.61217">
        <ele>151.6</ele>
        <time>2013-03-30T17:04:45Z</time>
      </trkpt>
      <trkpt lat="48.50905" lon="7.61217">
        <ele>151.8</ele>
        <time>2013-03-30T17:04:45Z</time>
      </trkpt>
      <trkpt lat="48.50908" lon="7.61206">
        <ele>155</ele>
        <time>2013-03-30T17:04:58Z</time>
      </trkpt>
      <trkpt lat="48.50908" lon="7.61203">
        <ele>155</ele>
        <time>2013-03-30T17:05:00Z</time>
      </trkpt>
      <trkpt lat="48.50915" lon="7.61193">
        <ele>155</ele>
        <time>2013-03-30T17:05:12Z</time>
      </trkpt>
      <trkpt lat="48.50922" lon="7.61182">
        <ele>155</ele>
        <time>2013-03-30T17:05:19Z</time>
      </trkpt>
      <trkpt lat="48.50931" lon="7.61176">
        <ele>155</ele>
        <time>2013-03-30T17:05:30Z</time>
      </trkpt>
      <trkpt lat="48.5094" lon="7.61174">
        <ele>155</ele>
        <time>2013-03-30T17:05:40Z</time>
      </trkpt>
      <trkpt lat="48.50949" lon="7.61172">
        <ele>155</ele>
        <time>2013-03-30T17:05:46Z</time>
      </trkpt>
      <trkpt lat="48.50959" lon="7.61167">
        <ele>155</ele>
        <time>2013-03-30T17:05:54Z</time>
      </trkpt>
      <trkpt lat="48.50969" lon="7.61167">
        <ele>155</ele>
        <time>2013-03-30T17:06:00Z</time>
      </trkpt>
      <trkpt lat="48.50979" lon="7.61169">
        <ele>155</ele>
        <time>2013-03-30T17:06:11Z</time>
      </trkpt>
      <trkpt lat="48.50989" lon="7.61167">
        <ele>155</ele>
        <time>2013-03-30T17:06:17Z</time>
      </trkpt>
      <trkpt lat="48.50998" lon="7.61165">
        <ele>155</ele>
        <time>2013-03-30T17:06:24Z</time>
      </trkpt>
      <trkpt lat="48.51008" lon="7.61169">
        <ele>155.3</ele>
        <time>2013-03-30T17:06:32Z</time>
      </trkpt>
      <trkpt lat="48.51017" lon="7.61173">
        <ele>155.5</ele>
        <time>2013-03-30T17:06:39Z</time>
      </trkpt>
      <trkpt lat="48.51026" lon="7.61178">
        <ele>155.8</ele>
        <time>2013-03-30T17:06:47Z</time>
      </trkpt>
      <trkpt lat="48.51035" lon="7.61178">
        <ele>156.1</ele>
        <time>2013-03-30T17:06:55Z</time>
      </trkpt>
      <trkpt lat="48.51044" lon="7.61186">
        <ele>156.4</ele>
        <time>2013-03-30T17:07:01Z</time>
      </trkpt>
      <trkpt lat="48.51054" lon="7.61186">
        <ele>156</ele>
        <time>2013-03-30T17:07:06Z</time>
      </trkpt>
      <trkpt lat="48.51062" lon="7.61191">
        <ele>155.6</ele>
        <time>2013-03-30T17:07:15Z</time>
      </trkpt>
      <trkpt lat="48.51072" lon="7.61198">
        <ele>155.3</ele>
        <time>2013-03-30T17:07:26Z</time>
      </trkpt>
      <trkpt lat="48.51082" lon="7.61202">
        <ele>155.5</ele>
        <time>2013-03-30T17:07:35Z</time>
      </trkpt>
      <trkpt lat="48.5109" lon="7.61208">
        <ele>155.6</ele>
        <time>2013-03-30T17:07:40Z</time>
      </trkpt>
      <trkpt lat="48.51098" lon="7.61215">
        <ele>155.8</ele>
        <time>2013-03-30T17:07:47Z</time>
      </trkpt>
      <trkpt lat="48.51107" lon="7.6122">
        <ele>155.7</ele>
        <time>2013-03-30T17:07:56Z</time>
      </trkpt>
      <trkpt lat="48.51117" lon="7.61224">
        <ele>155.6</ele>
        <time>2013-03-30T17:08:02Z</time>
      </trkpt>
      <trkpt lat="48.51129" lon="7.61227">
        <ele>155.5</ele>
        <time>2013-03-30T17:08:07Z</time>
      </trkpt>
      <trkpt lat="48.51136" lon="7.61236">
        <ele>155.5</ele>
        <time>2013-03-30T17:08:15Z</time>
      </trkpt>
      <trkpt lat="48.51144" lon="7.61245">
        <ele>155.4</ele>
        <time>2013-03-30T17:08:28Z</time>
      </trkpt>
      <trkpt lat="48.51153" lon="7.61248">
        <ele>155.9</ele>
        <time>2013-03-30T17:08:35Z</time>
      </trkpt>
      <trkpt lat="48.51155" lon="7.61263">
        <ele>155.9</ele>
        <time>2013-03-30T17:08:43Z</time>
      </trkpt>
      <trkpt lat="48.51165" lon="7.61267">
        <ele>155.9</ele>
        <time>2013-03-30T17:08:49Z</time>
      </trkpt>
      <trkpt lat="48.51174" lon="7.61274">
        <ele>155.4</ele>
        <time>2013-03-30T17:08:57Z</time>
      </trkpt>
      <trkpt lat="48.51181" lon="7.61281">
        <ele>155.6</ele>
        <time>2013-03-30T17:09:05Z</time>
      </trkpt>
      <trkpt lat="48.51187" lon="7.61293">
        <ele>155.9</ele>
        <time>2013-03-30T17:09:13Z</time>
      </trkpt>
      <trkpt lat="48.51195" lon="7.61303">
        <ele>156.2</ele>
        <time>2013-03-30T17:09:20Z</time>
      </trkpt>
      <trkpt lat="48.51197" lon="7.61317">
        <ele>156.5</ele>
        <time>2013-03-30T17:09:31Z</time>
      </trkpt>
      <trkpt lat="48.51206" lon="7.61323">
        <ele>156.7</ele>
        <time>2013-03-30T17:09:39Z</time>
      </trkpt>
      <trkpt lat="48.51215" lon="7.61329">
        <ele>157</ele>
        <time>2013-03-30T17:09:46Z</time>
      </trkpt>
      <trkpt lat="48.51223" lon="7.61336">
        <ele>157.3</ele>
        <time>2013-03-30T17:09:52Z</time>
      </trkpt>
      <trkpt lat="48.51232" lon="7.6134">
        <ele>156.8</ele>
        <time>2013-03-30T17:10:00Z</time>
      </trkpt>
      <trkpt lat="48.5124" lon="7.61349">
        <ele>156.9</ele>
        <time>2013-03-30T17:10:07Z</time>
      </trkpt>
      <trkpt lat="48.51246" lon="7.61361">
        <ele>157</ele>
        <time>2013-03-30T17:10:23Z</time>
      </trkpt>
      <trkpt lat="48.51255" lon="7.61366">
        <ele>157.5</ele>
        <time>2013-03-30T17:10:28Z</time>
      </trkpt>
      <trkpt lat="48.51264" lon="7.61374">
        <ele>157.3</ele>
        <time>2013-03-30T17:10:37Z</time>
      </trkpt>
      <trkpt lat="48.51272" lon="7.61381">
        <ele>157</ele>
        <time>2013-03-30T17:10:44Z</time>
      </trkpt>
      <trkpt lat="48.51281" lon="7.61387">
        <ele>156.7</ele>
        <time>2013-03-30T17:10:50Z</time>
      </trkpt>
      <trkpt lat="48.5129" lon="7.6139">
        <ele>156.5</ele>
        <time>2013-03-30T17:10:56Z</time>
      </trkpt>
      <trkpt lat="48.51299" lon="7.61393">
        <ele>156.2</ele>
        <time>2013-03-30T17:11:01Z</time>
      </trkpt>
      <trkpt lat="48.51306" lon="7.61402">
        <ele>155.9</ele>
        <time>2013-03-30T17:11:12Z</time>
      </trkpt>
      <trkpt lat="48.51316" lon="7.61409">
        <ele>155.6</ele>
        <time>2013-03-30T17:11:20Z</time>
      </trkpt>
      <trkpt lat="48.51322" lon="7.61419">
        <ele>155.5</ele>
        <time>2013-03-30T17:11:30Z</time>
      </trkpt>
      <trkpt lat="48.51329" lon="7.61429">
        <ele>155.5</ele>
        <time>2013-03-30T17:11:39Z</time>
      </trkpt>
      <trkpt lat="48.51337" lon="7.61436">
        <ele>155.4</ele>
        <time>2013-03-30T17:11:46Z</time>
      </trkpt>
      <trkpt lat="48.51345" lon="7.61446">
        <ele>154.8</ele>
        <time>2013-03-30T17:11:52Z</time>
      </trkpt>
      <trkpt lat="48.5135" lon="7.61457">
        <ele>154.5</ele>
        <time>2013-03-30T17:12:00Z</time>
      </trkpt>
      <trkpt lat="48.51356" lon="7.61469">
        <ele>154.3</ele>
        <time>2013-03-30T17:12:10Z</time>
      </trkpt>
      <trkpt lat="48.51364" lon="7.61478">
        <ele>154</ele>
        <time>2013-03-30T17:12:19Z</time>
      </trkpt>
      <trkpt lat="48.51369" lon="7.6149">
        <ele>153.7</ele>
        <time>2013-03-30T17:12:27Z</time>
      </trkpt>
      <trkpt lat="48.51376" lon="7.61503">
        <ele>153.5</ele>
        <time>2013-03-30T17:12:36Z</time>
      </trkpt>
      <trkpt lat="48.51385" lon="7.61511">
        <ele>153.2</ele>
        <time>2013-03-30T17:12:42Z</time>
      </trkpt>
      <trkpt lat="48.51394" lon="7.61511">
        <ele>152.9</ele>
        <time>2013-03-30T17:12:48Z</time>
      </trkpt>
      <trkpt lat="48.51403" lon="7.61507">
        <ele>153.2</ele>
        <time>2013-03-30T17:12:56Z</time>
      </trkpt>
      <trkpt lat="48.51412" lon="7.61501">
        <ele>153.5</ele>
        <time>2013-03-30T17:13:03Z</time>
      </trkpt>
      <trkpt lat="48.5142" lon="7.61495">
        <ele>153.6</ele>
        <time>2013-03-30T17:13:11Z</time>
      </trkpt>
      <trkpt lat="48.51429" lon="7.61489">
        <ele>153.8</ele>
        <time>2013-03-30T17:13:20Z</time>
      </trkpt>
      <trkpt lat="48.51438" lon="7.61482">
        <ele>153.7</ele>
        <time>2013-03-30T17:13:28Z</time>
      </trkpt>
      <trkpt lat="48.51447" lon="7.61478">
        <ele>153.7</ele>
        <time>2013-03-30T17:13:38Z</time>
      </trkpt>
      <trkpt lat="48.51455" lon="7.61472">
        <ele>153.7</ele>
        <time>2013-03-30T17:13:46Z</time>
      </trkpt>
      <trkpt lat="48.51464" lon="7.61469">
        <ele>153.7</ele>
        <time>2013-03-30T17:13:56Z</time>
      </trkpt>
      <trkpt lat="48.51473" lon="7.61467">
        <ele>153.7</ele>
        <time>2013-03-30T17:14:04Z</time>
      </trkpt>
      <trkpt lat="48.51482" lon="7.61461">
        <ele>153.7</ele>
        <time>2013-03-30T17:14:14Z</time>
      </trkpt>
      <trkpt lat="48.5149" lon="7.61456">
        <ele>153.7</ele>
        <time>2013-03-30T17:14:23Z</time>
      </trkpt>
      <trkpt lat="48.51499" lon="7.61451">
        <ele>153.5</ele>
        <time>2013-03-30T17:14:30Z</time>
      </trkpt>
      <trkpt lat="48.51509" lon="7.61445">
        <ele>153.4</ele>
        <time>2013-03-30T17:14:37Z</time>
      </trkpt>
      <trkpt lat="48.51518" lon="7.6144">
        <ele>153.3</ele>
        <time>2013-03-30T17:14:46Z</time>
      </trkpt>
      <trkpt lat="48.51527" lon="7.61437">
        <ele>153.2</ele>
        <time>2013-03-30T17:14:53Z</time>
      </trkpt>
      <trkpt lat="48.51536" lon="7.61435">
        <ele>153.1</ele>
        <time>2013-03-30T17:15:01Z</time>
      </trkpt>
      <trkpt lat="48.51545" lon="7.61432">
        <ele>152.9</ele>
        <time>2013-03-30T17:15:08Z</time>
      </trkpt>
      <trkpt lat="48.51555" lon="7.61429">
        <ele>152.7</ele>
        <time>2013-03-30T17:15:14Z</time>
      </trkpt>
      <trkpt lat="48.51565" lon="7.61425">
        <ele>152.5</ele>
        <time>2013-03-30T17:15:23Z</time>
      </trkpt>
      <trkpt lat="48.51574" lon="7.61423">
        <ele>152.4</ele>
        <time>2013-03-30T17:15:29Z</time>
      </trkpt>
      <trkpt lat="48.51584" lon="7.61418">
        <ele>152.1</ele>
        <time>2013-03-30T17:15:37Z</time>
      </trkpt>
      <trkpt lat="48.51593" lon="7.61412">
        <ele>151.8</ele>
        <time>2013-03-30T17:15:50Z</time>
      </trkpt>
      <trkpt lat="48.51602" lon="7.61408">
        <ele>151.7</ele>
        <time>2013-03-30T17:16:01Z</time>
      </trkpt>
      <trkpt lat="48.51611" lon="7.61403">
        <ele>151.6</ele>
        <time>2013-03-30T17:16:12Z</time>
      </trkpt>
      <trkpt lat="48.51619" lon="7.61397">
        <ele>151.5</ele>
        <time>2013-03-30T17:16:22Z</time>
      </trkpt>
      <trkpt lat="48.51628" lon="7.61395">
        <ele>151.5</ele>
        <time>2013-03-30T17:16:27Z</time>
      </trkpt>
      <trkpt lat="48.51637" lon="7.6139">
        <ele>151.4</ele>
        <time>2013-03-30T17:16:35Z</time>
      </trkpt>
      <trkpt lat="48.51646" lon="7.61388">
        <ele>151.3</ele>
        <time>2013-03-30T17:16:43Z</time>
      </trkpt>
      <trkpt lat="48.51655" lon="7.61384">
        <ele>151.2</ele>
        <time>2013-03-30T17:16:51Z</time>
      </trkpt>
      <trkpt lat="48.51665" lon="7.61381">
        <ele>151.2</ele>
        <time>2013-03-30T17:17:00Z</time>
      </trkpt>
      <trkpt lat="48.51674" lon="7.61381">
        <ele>151.2</ele>
        <time>2013-03-30T17:17:07Z</time>
      </trkpt>
      <trkpt lat="48.51684" lon="7.61379">
        <ele>151.3</ele>
        <time>2013-03-30T17:17:14Z</time>
      </trkpt>
      <trkpt lat="48.51695" lon="7.61377">
        <ele>151.4</ele>
        <time>2013-03-30T17:17:20Z</time>
      </trkpt>
      <trkpt lat="48.51704" lon="7.61376">
        <ele>151.5</ele>
        <time>2013-03-30T17:17:29Z</time>
      </trkpt>
      <trkpt lat="48.51713" lon="7.61372">
        <ele>151.5</ele>
        <time>2013-03-30T17:17:37Z</time>
      </trkpt>
      <trkpt lat="48.51723" lon="7.61371">
        <ele>151.6</ele>
        <time>2013-03-30T17:17:46Z</time>
      </trkpt>
      <trkpt lat="48.51733" lon="7.6137">
        <ele>151.7</ele>
        <time>2013-03-30T17:17:55Z</time>
      </trkpt>
      <trkpt lat="48.51742" lon="7.61368">
        <ele>151.8</ele>
        <time>2013-03-30T17:18:02Z</time>
      </trkpt>
      <trkpt lat="48.51752" lon="7.61367">
        <ele>152.1</ele>
        <time>2013-03-30T17:18:08Z</time>
      </trkpt>
      <trkpt lat="48.51761" lon="7.61369">
        <ele>152.4</ele>
        <time>2013-03-30T17:18:18Z</time>
      </trkpt>
      <trkpt lat="48.5177" lon="7.61366">
        <ele>152.5</ele>
        <time>2013-03-30T17:18:27Z</time>
      </trkpt>
      <trkpt lat="48.5178" lon="7.61365">
        <ele>152.7</ele>
        <time>2013-03-30T17:18:34Z</time>
      </trkpt>
      <trkpt lat="48.5179" lon="7.61361">
        <ele>152.9</ele>
        <time>2013-03-30T17:18:43Z</time>
      </trkpt>
      <trkpt lat="48.51799" lon="7.61359">
        <ele>153.1</ele>
        <time>2013-03-30T17:18:50Z</time>
      </trkpt>
      <trkpt lat="48.51809" lon="7.61357">
        <ele>153.3</ele>
        <time>2013-03-30T17:18:58Z</time>
      </trkpt>
      <trkpt lat="48.51818" lon="7.61354">
        <ele>153.5</ele>
        <time>2013-03-30T17:19:09Z</time>
      </trkpt>
      <trkpt lat="48.51828" lon="7.61354">
        <ele>153.6</ele>
        <time>2013-03-30T17:19:18Z</time>
      </trkpt>
      <trkpt lat="48.51838" lon="7.61352">
        <ele>153.8</ele>
        <time>2013-03-30T17:19:26Z</time>
      </trkpt>
      <trkpt lat="48.51848" lon="7.6135">
        <ele>154</ele>
        <time>2013-03-30T17:19:32Z</time>
      </trkpt>
      <trkpt lat="48.51858" lon="7.6135">
        <ele>154</ele>
        <time>2013-03-30T17:19:41Z</time>
      </trkpt>
      <trkpt lat="48.51868" lon="7.6135">
        <ele>154</ele>
        <time>2013-03-30T17:19:50Z</time>
      </trkpt>
      <trkpt lat="48.51877" lon="7.61349">
        <ele>154</ele>
        <time>2013-03-30T17:20:00Z</time>
      </trkpt>
      <trkpt lat="48.51887" lon="7.61347">
        <ele>154</ele>
        <time>2013-03-30T17:20:08Z</time>
      </trkpt>
      <trkpt lat="48.51896" lon="7.61345">
        <ele>154</ele>
        <time>2013-03-30T17:20:18Z</time>
      </trkpt>
      <trkpt lat="48.51906" lon="7.61344">
        <ele>154</ele>
        <time>2013-03-30T17:20:28Z</time>
      </trkpt>
      <trkpt lat="48.51916" lon="7.61342">
        <ele>154</ele>
        <time>2013-03-30T17:20:37Z</time>
      </trkpt>
      <trkpt lat="48.51925" lon="7.61341">
        <ele>154</ele>
        <time>2013-03-30T17:20:46Z</time>
      </trkpt>
      <trkpt lat="48.51935" lon="7.6134">
        <ele>154</ele>
        <time>2013-03-30T17:21:03Z</time>
      </trkpt>
      <trkpt lat="48.51944" lon="7.61338">
        <ele>154</ele>
        <time>2013-03-30T17:21:11Z</time>
      </trkpt>
      <trkpt lat="48.51955" lon="7.61339">
        <ele>154</ele>
        <time>2013-03-30T17:21:17Z</time>
      </trkpt>
      <trkpt lat="48.51963" lon="7.61337">
        <ele>154</ele>
        <time>2013-03-30T17:21:24Z</time>
      </trkpt>
      <trkpt lat="48.51973" lon="7.61335">
        <ele>154</ele>
        <time>2013-03-30T17:21:32Z</time>
      </trkpt>
      <trkpt lat="48.51982" lon="7.61332">
        <ele>154</ele>
        <time>2013-03-30T17:21:43Z</time>
      </trkpt>
      <trkpt lat="48.51992" lon="7.61332">
        <ele>154</ele>
        <time>2013-03-30T17:21:52Z</time>
      </trkpt>
      <trkpt lat="48.52001" lon="7.61335">
        <ele>154.1</ele>
        <time>2013-03-30T17:22:00Z</time>
      </trkpt>
      <trkpt lat="48.52011" lon="7.61334">
        <ele>154.2</ele>
        <time>2013-03-30T17:22:09Z</time>
      </trkpt>
      <trkpt lat="48.52021" lon="7.61336">
        <ele>154.3</ele>
        <time>2013-03-30T17:22:17Z</time>
      </trkpt>
      <trkpt lat="48.5203" lon="7.61334">
        <ele>154.4</ele>
        <time>2013-03-30T17:22:26Z</time>
      </trkpt>
      <trkpt lat="48.5204" lon="7.61334">
        <ele>154.5</ele>
        <time>2013-03-30T17:22:36Z</time>
      </trkpt>
      <trkpt lat="48.52049" lon="7.6133">
        <ele>154.5</ele>
        <time>2013-03-30T17:22:43Z</time>
      </trkpt>
      <trkpt lat="48.52059" lon="7.61328">
        <ele>154.6</ele>
        <time>2013-03-30T17:22:49Z</time>
      </trkpt>
      <trkpt lat="48.52069" lon="7.6133">
        <ele>154.7</ele>
        <time>2013-03-30T17:22:56Z</time>
      </trkpt>
      <trkpt lat="48.52078" lon="7.61333">
        <ele>154.8</ele>
        <time>2013-03-30T17:23:03Z</time>
      </trkpt>
      <trkpt lat="48.52087" lon="7.61335">
        <ele>155</ele>
        <time>2013-03-30T17:23:11Z</time>
      </trkpt>
      <trkpt lat="48.52097" lon="7.61336">
        <ele>155.2</ele>
        <time>2013-03-30T17:23:20Z</time>
      </trkpt>
      <trkpt lat="48.52106" lon="7.61336">
        <ele>155.3</ele>
        <time>2013-03-30T17:23:28Z</time>
      </trkpt>
      <trkpt lat="48.52116" lon="7.61337">
        <ele>155.4</ele>
        <time>2013-03-30T17:23:37Z</time>
      </trkpt>
      <trkpt lat="48.52125" lon="7.61339">
        <ele>155.5</ele>
        <time>2013-03-30T17:23:44Z</time>
      </trkpt>
      <trkpt lat="48.52134" lon="7.61338">
        <ele>155.5</ele>
        <time>2013-03-30T17:23:52Z</time>
      </trkpt>
      <trkpt lat="48.52144" lon="7.61337">
        <ele>155.6</ele>
        <time>2013-03-30T17:24:02Z</time>
      </trkpt>
      <trkpt lat="48.52153" lon="7.61338">
        <ele>155.7</ele>
        <time>2013-03-30T17:24:08Z</time>
      </trkpt>
      <trkpt lat="48.52163" lon="7.61338">
        <ele>155.7</ele>
        <time>2013-03-30T17:24:17Z</time>
      </trkpt>
      <trkpt lat="48.52173" lon="7.61341">
        <ele>155.7</ele>
        <time>2013-03-30T17:24:26Z</time>
      </trkpt>
      <trkpt lat="48.52182" lon="7.61341">
        <ele>155.7</ele>
        <time>2013-03-30T17:24:36Z</time>
      </trkpt>
      <trkpt lat="48.52192" lon="7.61336">
        <ele>155.6</ele>
        <time>2013-03-30T17:24:48Z</time>
      </trkpt>
      <trkpt lat="48.52201" lon="7.61338">
        <ele>155.5</ele>
        <time>2013-03-30T17:24:56Z</time>
      </trkpt>
      <trkpt lat="48.5221" lon="7.61342">
        <ele>155.5</ele>
        <time>2013-03-30T17:25:04Z</time>
      </trkpt>
      <trkpt lat="48.5222" lon="7.61343">
        <ele>155.4</ele>
        <time>2013-03-30T17:25:12Z</time>
      </trkpt>
      <trkpt lat="48.5223" lon="7.61342">
        <ele>155.3</ele>
        <time>2013-03-30T17:25:20Z</time>
      </trkpt>
      <trkpt lat="48.5224" lon="7.61341">
        <ele>155.2</ele>
        <time>2013-03-30T17:25:28Z</time>
      </trkpt>
      <trkpt lat="48.52249" lon="7.61342">
        <ele>155.1</ele>
        <time>2013-03-30T17:25:35Z</time>
      </trkpt>
      <trkpt lat="48.52258" lon="7.61345">
        <ele>155</ele>
        <time>2013-03-30T17:25:42Z</time>
      </trkpt>
      <trkpt lat="48.52267" lon="7.61347">
        <ele>155</ele>
        <time>2013-03-30T17:25:50Z</time>
      </trkpt>
      <trkpt lat="48.52276" lon="7.61351">
        <ele>155</ele>
        <time>2013-03-30T17:25:59Z</time>
      </trkpt>
      <trkpt lat="48.52283" lon="7.61361">
        <ele>155</ele>
        <time>2013-03-30T17:26:07Z</time>
      </trkpt>
      <trkpt lat="48.52289" lon="7.61373">
        <ele>155</ele>
        <time>2013-03-30T17:26:18Z</time>
      </trkpt>
      <trkpt lat="48.52299" lon="7.61398">
        <ele>155</ele>
        <time>2013-03-30T17:26:43Z</time>
      </trkpt>
      <trkpt lat="48.52307" lon="7.61407">
        <ele>154.9</ele>
        <time>2013-03-30T17:26:50Z</time>
      </trkpt>
      <trkpt lat="48.52313" lon="7.61419">
        <ele>154.8</ele>
        <time>2013-03-30T17:26:59Z</time>
      </trkpt>
      <trkpt lat="48.52319" lon="7.61431">
        <ele>154.7</ele>
        <time>2013-03-30T17:27:05Z</time>
      </trkpt>
      <trkpt lat="48.52325" lon="7.61443">
        <ele>154.6</ele>
        <time>2013-03-30T17:27:13Z</time>
      </trkpt>
      <trkpt lat="48.52332" lon="7.61452">
        <ele>154.5</ele>
        <time>2013-03-30T17:27:21Z</time>
      </trkpt>
      <trkpt lat="48.52338" lon="7.61463">
        <ele>154.5</ele>
        <time>2013-03-30T17:27:30Z</time>
      </trkpt>
      <trkpt lat="48.52343" lon="7.61475">
        <ele>154.4</ele>
        <time>2013-03-30T17:27:39Z</time>
      </trkpt>
      <trkpt lat="48.5235" lon="7.61485">
        <ele>154.4</ele>
        <time>2013-03-30T17:27:47Z</time>
      </trkpt>
      <trkpt lat="48.52358" lon="7.61491">
        <ele>154.4</ele>
        <time>2013-03-30T17:27:55Z</time>
      </trkpt>
      <trkpt lat="48.52362" lon="7.61505">
        <ele>154.5</ele>
        <time>2013-03-30T17:28:06Z</time>
      </trkpt>
      <trkpt lat="48.52368" lon="7.61516">
        <ele>154.5</ele>
        <time>2013-03-30T17:28:12Z</time>
      </trkpt>
      <trkpt lat="48.52375" lon="7.61525">
        <ele>154.6</ele>
        <time>2013-03-30T17:28:24Z</time>
      </trkpt>
      <trkpt lat="48.52356" lon="7.61571">
        <ele>154.7</ele>
        <time>2013-03-30T17:28:30Z</time>
      </trkpt>
      <trkpt lat="48.52364" lon="7.61562">
        <ele>154.8</ele>
        <time>2013-03-30T17:28:31Z</time>
      </trkpt>
      <trkpt lat="48.52389" lon="7.61548">
        <ele>154.9</ele>
        <time>2013-03-30T17:28:38Z</time>
      </trkpt>
      <trkpt lat="48.52396" lon="7.61555">
        <ele>155</ele>
        <time>2013-03-30T17:28:44Z</time>
      </trkpt>
      <trkpt lat="48.52403" lon="7.61565">
        <ele>155.1</ele>
        <time>2013-03-30T17:28:51Z</time>
      </trkpt>
      <trkpt lat="48.52406" lon="7.61578">
        <ele>155.2</ele>
        <time>2013-03-30T17:29:00Z</time>
      </trkpt>
      <trkpt lat="48.52411" lon="7.61591">
        <ele>155.3</ele>
        <time>2013-03-30T17:29:11Z</time>
      </trkpt>
      <trkpt lat="48.52417" lon="7.61602">
        <ele>155.4</ele>
        <time>2013-03-30T17:29:20Z</time>
      </trkpt>
      <trkpt lat="48.52424" lon="7.61611">
        <ele>155.3</ele>
        <time>2013-03-30T17:29:26Z</time>
      </trkpt>
      <trkpt lat="48.5243" lon="7.61622">
        <ele>155.4</ele>
        <time>2013-03-30T17:29:35Z</time>
      </trkpt>
      <trkpt lat="48.52435" lon="7.61635">
        <ele>155.5</ele>
        <time>2013-03-30T17:29:42Z</time>
      </trkpt>
      <trkpt lat="48.52442" lon="7.61645">
        <ele>155.5</ele>
        <time>2013-03-30T17:29:50Z</time>
      </trkpt>
      <trkpt lat="48.52445" lon="7.61658">
        <ele>155.6</ele>
        <time>2013-03-30T17:29:59Z</time>
      </trkpt>
      <trkpt lat="48.52445" lon="7.61672">
        <ele>155.7</ele>
        <time>2013-03-30T17:30:07Z</time>
      </trkpt>
      <trkpt lat="48.52443" lon="7.61686">
        <ele>155.8</ele>
        <time>2013-03-30T17:30:14Z</time>
      </trkpt>
      <trkpt lat="48.52443" lon="7.617">
        <ele>155.9</ele>
        <time>2013-03-30T17:30:21Z</time>
      </trkpt>
      <trkpt lat="48.52445" lon="7.61707">
        <ele>156</ele>
        <time>2013-03-30T17:30:36Z</time>
      </trkpt>
      <trkpt lat="48.52448" lon="7.61718">
        <ele>154</ele>
        <time>2013-03-30T17:31:00Z</time>
      </trkpt>
      <trkpt lat="48.52454" lon="7.61724">
        <ele>153.9</ele>
        <time>2013-03-30T17:31:06Z</time>
      </trkpt>
      <trkpt lat="48.52463" lon="7.6173">
        <ele>153.8</ele>
        <time>2013-03-30T17:31:12Z</time>
      </trkpt>
      <trkpt lat="48.52472" lon="7.61733">
        <ele>153.7</ele>
        <time>2013-03-30T17:31:21Z</time>
      </trkpt>
      <trkpt lat="48.52482" lon="7.61733">
        <ele>153.6</ele>
        <time>2013-03-30T17:31:33Z</time>
      </trkpt>
      <trkpt lat="48.52488" lon="7.61743">
        <ele>153.5</ele>
        <time>2013-03-30T17:31:42Z</time>
      </trkpt>
      <trkpt lat="48.52498" lon="7.61743">
        <ele>153</ele>
        <time>2013-03-30T17:31:48Z</time>
      </trkpt>
      <trkpt lat="48.52508" lon="7.61745">
        <ele>152.5</ele>
        <time>2013-03-30T17:31:53Z</time>
      </trkpt>
      <trkpt lat="48.52518" lon="7.61751">
        <ele>152.2</ele>
        <time>2013-03-30T17:32:00Z</time>
      </trkpt>
      <trkpt lat="48.52525" lon="7.61761">
        <ele>151.9</ele>
        <time>2013-03-30T17:32:10Z</time>
      </trkpt>
      <trkpt lat="48.52543" lon="7.61774">
        <ele>151.6</ele>
        <time>2013-03-30T17:32:40Z</time>
      </trkpt>
      <trkpt lat="48.52551" lon="7.6178">
        <ele>151.4</ele>
        <time>2013-03-30T17:32:48Z</time>
      </trkpt>
      <trkpt lat="48.52557" lon="7.61791">
        <ele>151.1</ele>
        <time>2013-03-30T17:32:59Z</time>
      </trkpt>
      <trkpt lat="48.52564" lon="7.61801">
        <ele>150.8</ele>
        <time>2013-03-30T17:33:08Z</time>
      </trkpt>
      <trkpt lat="48.5257" lon="7.61813">
        <ele>150.5</ele>
        <time>2013-03-30T17:33:15Z</time>
      </trkpt>
      <trkpt lat="48.52576" lon="7.61823">
        <ele>150.3</ele>
        <time>2013-03-30T17:33:24Z</time>
      </trkpt>
      <trkpt lat="48.52583" lon="7.61834">
        <ele>150</ele>
        <time>2013-03-30T17:33:32Z</time>
      </trkpt>
      <trkpt lat="48.52587" lon="7.61847">
        <ele>150</ele>
        <time>2013-03-30T17:33:44Z</time>
      </trkpt>
      <trkpt lat="48.52592" lon="7.61859">
        <ele>150</ele>
        <time>2013-03-30T17:33:51Z</time>
      </trkpt>
      <trkpt lat="48.52596" lon="7.61872">
        <ele>150</ele>
        <time>2013-03-30T17:33:58Z</time>
      </trkpt>
      <trkpt lat="48.52601" lon="7.61884">
        <ele>150</ele>
        <time>2013-03-30T17:34:06Z</time>
      </trkpt>
      <trkpt lat="48.52606" lon="7.61895">
        <ele>150</ele>
        <time>2013-03-30T17:34:15Z</time>
      </trkpt>
      <trkpt lat="48.52611" lon="7.61907">
        <ele>150</ele>
        <time>2013-03-30T17:34:24Z</time>
      </trkpt>
      <trkpt lat="48.52617" lon="7.61918">
        <ele>150</ele>
        <time>2013-03-30T17:34:32Z</time>
      </trkpt>
      <trkpt lat="48.52624" lon="7.61929">
        <ele>150</ele>
        <time>2013-03-30T17:34:40Z</time>
      </trkpt>
      <trkpt lat="48.52629" lon="7.61941">
        <ele>150</ele>
        <time>2013-03-30T17:34:48Z</time>
      </trkpt>
      <trkpt lat="48.52635" lon="7.61953">
        <ele>150</ele>
        <time>2013-03-30T17:34:56Z</time>
      </trkpt>
      <trkpt lat="48.5264" lon="7.61964">
        <ele>150</ele>
        <time>2013-03-30T17:35:04Z</time>
      </trkpt>
      <trkpt lat="48.52647" lon="7.61974">
        <ele>150</ele>
        <time>2013-03-30T17:35:12Z</time>
      </trkpt>
      <trkpt lat="48.52653" lon="7.61984">
        <ele>150</ele>
        <time>2013-03-30T17:35:20Z</time>
      </trkpt>
      <trkpt lat="48.52659" lon="7.61997">
        <ele>150</ele>
        <time>2013-03-30T17:35:29Z</time>
      </trkpt>
      <trkpt lat="48.52665" lon="7.62007">
        <ele>150</ele>
        <time>2013-03-30T17:35:36Z</time>
      </trkpt>
      <trkpt lat="48.52671" lon="7.62018">
        <ele>150</ele>
        <time>2013-03-30T17:35:46Z</time>
      </trkpt>
      <trkpt lat="48.52677" lon="7.6203">
        <ele>150</ele>
        <time>2013-03-30T17:35:58Z</time>
      </trkpt>
      <trkpt lat="48.52683" lon="7.62041">
        <ele>149.9</ele>
        <time>2013-03-30T17:36:06Z</time>
      </trkpt>
      <trkpt lat="48.5269" lon="7.62052">
        <ele>149.8</ele>
        <time>2013-03-30T17:36:15Z</time>
      </trkpt>
      <trkpt lat="48.52696" lon="7.62062">
        <ele>149.7</ele>
        <time>2013-03-30T17:36:23Z</time>
      </trkpt>
      <trkpt lat="48.52701" lon="7.62073">
        <ele>149.7</ele>
        <time>2013-03-30T17:36:31Z</time>
      </trkpt>
      <trkpt lat="48.52708" lon="7.62084">
        <ele>149.7</ele>
        <time>2013-03-30T17:36:39Z</time>
      </trkpt>
      <trkpt lat="48.52714" lon="7.62095">
        <ele>149.7</ele>
        <time>2013-03-30T17:36:48Z</time>
      </trkpt>
      <trkpt lat="48.52715" lon="7.62109">
        <ele>149.7</ele>
        <time>2013-03-30T17:36:59Z</time>
      </trkpt>
      <trkpt lat="48.52722" lon="7.6212">
        <ele>149.7</ele>
        <time>2013-03-30T17:37:06Z</time>
      </trkpt>
      <trkpt lat="48.52729" lon="7.62131">
        <ele>149.7</ele>
        <time>2013-03-30T17:37:15Z</time>
      </trkpt>
      <trkpt lat="48.52735" lon="7.62142">
        <ele>149.7</ele>
        <time>2013-03-30T17:37:23Z</time>
      </trkpt>
      <trkpt lat="48.52742" lon="7.62151">
        <ele>149.7</ele>
        <time>2013-03-30T17:37:31Z</time>
      </trkpt>
      <trkpt lat="48.5275" lon="7.62162">
        <ele>149.9</ele>
        <time>2013-03-30T17:37:39Z</time>
      </trkpt>
      <trkpt lat="48.52757" lon="7.62172">
        <ele>150.1</ele>
        <time>2013-03-30T17:37:48Z</time>
      </trkpt>
      <trkpt lat="48.52763" lon="7.62184">
        <ele>150</ele>
        <time>2013-03-30T17:37:56Z</time>
      </trkpt>
      <trkpt lat="48.52769" lon="7.62195">
        <ele>149.8</ele>
        <time>2013-03-30T17:38:07Z</time>
      </trkpt>
      <trkpt lat="48.52774" lon="7.62207">
        <ele>149.6</ele>
        <time>2013-03-30T17:38:15Z</time>
      </trkpt>
      <trkpt lat="48.52781" lon="7.62218">
        <ele>149.5</ele>
        <time>2013-03-30T17:38:22Z</time>
      </trkpt>
      <trkpt lat="48.52789" lon="7.62226">
        <ele>149.3</ele>
        <time>2013-03-30T17:38:28Z</time>
      </trkpt>
      <trkpt lat="48.52794" lon="7.62238">
        <ele>149.2</ele>
        <time>2013-03-30T17:38:39Z</time>
      </trkpt>
      <trkpt lat="48.52799" lon="7.62251">
        <ele>149.1</ele>
        <time>2013-03-30T17:38:48Z</time>
      </trkpt>
      <trkpt lat="48.52805" lon="7.62262">
        <ele>149</ele>
        <time>2013-03-30T17:38:56Z</time>
      </trkpt>
      <trkpt lat="48.52811" lon="7.62275">
        <ele>148.9</ele>
        <time>2013-03-30T17:39:06Z</time>
      </trkpt>
      <trkpt lat="48.52817" lon="7.62286">
        <ele>148.7</ele>
        <time>2013-03-30T17:39:16Z</time>
      </trkpt>
      <trkpt lat="48.52823" lon="7.62297">
        <ele>148.5</ele>
        <time>2013-03-30T17:39:24Z</time>
      </trkpt>
      <trkpt lat="48.52829" lon="7.62309">
        <ele>148.6</ele>
        <time>2013-03-30T17:39:34Z</time>
      </trkpt>
      <trkpt lat="48.52835" lon="7.62321">
        <ele>148.7</ele>
        <time>2013-03-30T17:39:41Z</time>
      </trkpt>
      <trkpt lat="48.52841" lon="7.6233">
        <ele>148.7</ele>
        <time>2013-03-30T17:39:51Z</time>
      </trkpt>
      <trkpt lat="48.52847" lon="7.62341">
        <ele>148.7</ele>
        <time>2013-03-30T17:40:00Z</time>
      </trkpt>
      <trkpt lat="48.52853" lon="7.62351">
        <ele>148.7</ele>
        <time>2013-03-30T17:40:08Z</time>
      </trkpt>
      <trkpt lat="48.52858" lon="7.62364">
        <ele>148.7</ele>
        <time>2013-03-30T17:40:19Z</time>
      </trkpt>
      <trkpt lat="48.52865" lon="7.62374">
        <ele>148.7</ele>
        <time>2013-03-30T17:40:27Z</time>
      </trkpt>
      <trkpt lat="48.5287" lon="7.62387">
        <ele>148.7</ele>
        <time>2013-03-30T17:40:38Z</time>
      </trkpt>
      <trkpt lat="48.52876" lon="7.62398">
        <ele>148.7</ele>
        <time>2013-03-30T17:40:46Z</time>
      </trkpt>
      <trkpt lat="48.52881" lon="7.6241">
        <ele>148.6</ele>
        <time>2013-03-30T17:40:54Z</time>
      </trkpt>
      <trkpt lat="48.52889" lon="7.62416">
        <ele>148.5</ele>
        <time>2013-03-30T17:40:58Z</time>
      </trkpt>
      <trkpt lat="48.52891" lon="7.6243">
        <ele>148.5</ele>
        <time>2013-03-30T17:41:12Z</time>
      </trkpt>
      <trkpt lat="48.52897" lon="7.6244">
        <ele>148.4</ele>
        <time>2013-03-30T17:41:20Z</time>
      </trkpt>
      <trkpt lat="48.52903" lon="7.62451">
        <ele>148.4</ele>
        <time>2013-03-30T17:41:30Z</time>
      </trkpt>
      <trkpt lat="48.52909" lon="7.62462">
        <ele>148.4</ele>
        <time>2013-03-30T17:41:36Z</time>
      </trkpt>
      <trkpt lat="48.52914" lon="7.62476">
        <ele>148.4</ele>
        <time>2013-03-30T17:41:48Z</time>
      </trkpt>
      <trkpt lat="48.5292" lon="7.62488">
        <ele>148.3</ele>
        <time>2013-03-30T17:41:56Z</time>
      </trkpt>
      <trkpt lat="48.52926" lon="7.625">
        <ele>148.2</ele>
        <time>2013-03-30T17:42:06Z</time>
      </trkpt>
      <trkpt lat="48.52933" lon="7.6251">
        <ele>148.2</ele>
        <time>2013-03-30T17:42:14Z</time>
      </trkpt>
      <trkpt lat="48.52939" lon="7.62522">
        <ele>148.2</ele>
        <time>2013-03-30T17:42:23Z</time>
      </trkpt>
      <trkpt lat="48.52946" lon="7.62533">
        <ele>148.3</ele>
        <time>2013-03-30T17:42:32Z</time>
      </trkpt>
      <trkpt lat="48.52953" lon="7.62542">
        <ele>148.4</ele>
        <time>2013-03-30T17:42:39Z</time>
      </trkpt>
      <trkpt lat="48.52958" lon="7.62554">
        <ele>148.5</ele>
        <time>2013-03-30T17:42:48Z</time>
      </trkpt>
      <trkpt lat="48.52963" lon="7.62567">
        <ele>148.5</ele>
        <time>2013-03-30T17:42:58Z</time>
      </trkpt>
      <trkpt lat="48.52971" lon="7.62577">
        <ele>148.6</ele>
        <time>2013-03-30T17:43:04Z</time>
      </trkpt>
      <trkpt lat="48.52977" lon="7.62588">
        <ele>148.8</ele>
        <time>2013-03-30T17:43:12Z</time>
      </trkpt>
      <trkpt lat="48.52984" lon="7.62597">
        <ele>149</ele>
        <time>2013-03-30T17:43:22Z</time>
      </trkpt>
      <trkpt lat="48.52992" lon="7.62607">
        <ele>149.2</ele>
        <time>2013-03-30T17:43:31Z</time>
      </trkpt>
      <trkpt lat="48.52998" lon="7.62619">
        <ele>149.4</ele>
        <time>2013-03-30T17:43:40Z</time>
      </trkpt>
      <trkpt lat="48.53003" lon="7.62631">
        <ele>149.5</ele>
        <time>2013-03-30T17:43:50Z</time>
      </trkpt>
      <trkpt lat="48.53009" lon="7.62644">
        <ele>149.5</ele>
        <time>2013-03-30T17:43:59Z</time>
      </trkpt>
      <trkpt lat="48.53014" lon="7.62656">
        <ele>149.6</ele>
        <time>2013-03-30T17:44:07Z</time>
      </trkpt>
      <trkpt lat="48.53021" lon="7.62668">
        <ele>149.5</ele>
        <time>2013-03-30T17:44:16Z</time>
      </trkpt>
      <trkpt lat="48.53027" lon="7.62679">
        <ele>149.5</ele>
        <time>2013-03-30T17:44:24Z</time>
      </trkpt>
      <trkpt lat="48.53032" lon="7.62691">
        <ele>149.4</ele>
        <time>2013-03-30T17:44:34Z</time>
      </trkpt>
      <trkpt lat="48.53039" lon="7.62701">
        <ele>149.3</ele>
        <time>2013-03-30T17:44:41Z</time>
      </trkpt>
      <trkpt lat="48.53044" lon="7.62713">
        <ele>149.1</ele>
        <time>2013-03-30T17:44:51Z</time>
      </trkpt>
      <trkpt lat="48.53049" lon="7.62725">
        <ele>148.9</ele>
        <time>2013-03-30T17:44:59Z</time>
      </trkpt>
      <trkpt lat="48.53055" lon="7.62736">
        <ele>148.7</ele>
        <time>2013-03-30T17:45:10Z</time>
      </trkpt>
      <trkpt lat="48.53065" lon="7.62741">
        <ele>148.5</ele>
        <time>2013-03-30T17:45:14Z</time>
      </trkpt>
      <trkpt lat="48.5307" lon="7.62754">
        <ele>148.4</ele>
        <time>2013-03-30T17:45:24Z</time>
      </trkpt>
      <trkpt lat="48.53074" lon="7.62768">
        <ele>148.2</ele>
        <time>2013-03-30T17:45:31Z</time>
      </trkpt>
      <trkpt lat="48.53079" lon="7.6278">
        <ele>148</ele>
        <time>2013-03-30T17:45:40Z</time>
      </trkpt>
      <trkpt lat="48.53082" lon="7.62793">
        <ele>148</ele>
        <time>2013-03-30T17:45:50Z</time>
      </trkpt>
      <trkpt lat="48.53085" lon="7.62808">
        <ele>148</ele>
        <time>2013-03-30T17:46:01Z</time>
      </trkpt>
      <trkpt lat="48.5309" lon="7.62819">
        <ele>148</ele>
        <time>2013-03-30T17:46:09Z</time>
      </trkpt>
      <trkpt lat="48.53096" lon="7.62829">
        <ele>148</ele>
        <time>2013-03-30T17:46:18Z</time>
      </trkpt>
      <trkpt lat="48.53103" lon="7.62841">
        <ele>148</ele>
        <time>2013-03-30T17:46:23Z</time>
      </trkpt>
      <trkpt lat="48.53108" lon="7.62854">
        <ele>148</ele>
        <time>2013-03-30T17:46:30Z</time>
      </trkpt>
      <trkpt lat="48.53109" lon="7.6287">
        <ele>148</ele>
        <time>2013-03-30T17:46:37Z</time>
      </trkpt>
      <trkpt lat="48.53103" lon="7.62883">
        <ele>148</ele>
        <time>2013-03-30T17:46:42Z</time>
      </trkpt>
      <trkpt lat="48.53104" lon="7.62897">
        <ele>148</ele>
        <time>2013-03-30T17:46:52Z</time>
      </trkpt>
      <trkpt lat="48.53108" lon="7.62909">
        <ele>148.1</ele>
        <time>2013-03-30T17:47:02Z</time>
      </trkpt>
      <trkpt lat="48.53113" lon="7.62923">
        <ele>148.4</ele>
        <time>2013-03-30T17:47:13Z</time>
      </trkpt>
      <trkpt lat="48.53121" lon="7.62933">
        <ele>148.6</ele>
        <time>2013-03-30T17:47:20Z</time>
      </trkpt>
      <trkpt lat="48.53125" lon="7.62947">
        <ele>148.9</ele>
        <time>2013-03-30T17:47:26Z</time>
      </trkpt>
      <trkpt lat="48.53124" lon="7.62961">
        <ele>149.2</ele>
        <time>2013-03-30T17:47:35Z</time>
      </trkpt>
      <trkpt lat="48.53127" lon="7.62974">
        <ele>149.5</ele>
        <time>2013-03-30T17:47:47Z</time>
      </trkpt>
      <trkpt lat="48.53131" lon="7.62987">
        <ele>149.6</ele>
        <time>2013-03-30T17:47:54Z</time>
      </trkpt>
      <trkpt lat="48.5313" lon="7.63003">
        <ele>149.8</ele>
        <time>2013-03-30T17:48:02Z</time>
      </trkpt>
      <trkpt lat="48.53131" lon="7.63018">
        <ele>150</ele>
        <time>2013-03-30T17:48:10Z</time>
      </trkpt>
      <trkpt lat="48.53134" lon="7.63031">
        <ele>150.2</ele>
        <time>2013-03-30T17:48:18Z</time>
      </trkpt>
      <trkpt lat="48.53136" lon="7.63045">
        <ele>150.4</ele>
        <time>2013-03-30T17:48:26Z</time>
      </trkpt>
      <trkpt lat="48.53141" lon="7.63056">
        <ele>150.5</ele>
        <time>2013-03-30T17:48:33Z</time>
      </trkpt>
      <trkpt lat="48.53143" lon="7.6307">
        <ele>150.5</ele>
        <time>2013-03-30T17:48:41Z</time>
      </trkpt>
      <trkpt lat="48.53143" lon="7.63084">
        <ele>150.6</ele>
        <time>2013-03-30T17:48:55Z</time>
      </trkpt>
      <trkpt lat="48.53146" lon="7.63097">
        <ele>150.7</ele>
        <time>2013-03-30T17:49:00Z</time>
      </trkpt>
      <trkpt lat="48.53148" lon="7.63112">
        <ele>150.8</ele>
        <time>2013-03-30T17:49:09Z</time>
      </trkpt>
      <trkpt lat="48.53149" lon="7.63126">
        <ele>150.9</ele>
        <time>2013-03-30T17:49:17Z</time>
      </trkpt>
      <trkpt lat="48.53153" lon="7.63139">
        <ele>151.1</ele>
        <time>2013-03-30T17:49:25Z</time>
      </trkpt>
      <trkpt lat="48.53151" lon="7.63153">
        <ele>151.3</ele>
        <time>2013-03-30T17:49:31Z</time>
      </trkpt>
      <trkpt lat="48.5315" lon="7.63168">
        <ele>151.5</ele>
        <time>2013-03-30T17:49:39Z</time>
      </trkpt>
      <trkpt lat="48.53154" lon="7.63182">
        <ele>151.6</ele>
        <time>2013-03-30T17:49:46Z</time>
      </trkpt>
      <trkpt lat="48.53157" lon="7.63195">
        <ele>151.8</ele>
        <time>2013-03-30T17:49:56Z</time>
      </trkpt>
      <trkpt lat="48.53159" lon="7.63209">
        <ele>151.9</ele>
        <time>2013-03-30T17:50:07Z</time>
      </trkpt>
      <trkpt lat="48.53153" lon="7.63221">
        <ele>151.8</ele>
        <time>2013-03-30T17:50:13Z</time>
      </trkpt>
      <trkpt lat="48.53147" lon="7.63247">
        <ele>151.7</ele>
        <time>2013-03-30T17:50:39Z</time>
      </trkpt>
      <trkpt lat="48.53139" lon="7.63255">
        <ele>151.5</ele>
        <time>2013-03-30T17:50:45Z</time>
      </trkpt>
      <trkpt lat="48.5313" lon="7.6326">
        <ele>151.2</ele>
        <time>2013-03-30T17:50:56Z</time>
      </trkpt>
      <trkpt lat="48.53121" lon="7.63258">
        <ele>150.9</ele>
        <time>2013-03-30T17:51:02Z</time>
      </trkpt>
      <trkpt lat="48.53123" lon="7.63272">
        <ele>150.6</ele>
        <time>2013-03-30T17:51:09Z</time>
      </trkpt>
      <trkpt lat="48.5312" lon="7.63286">
        <ele>150.4</ele>
        <time>2013-03-30T17:51:15Z</time>
      </trkpt>
      <trkpt lat="48.53114" lon="7.63301">
        <ele>150.1</ele>
        <time>2013-03-30T17:51:21Z</time>
      </trkpt>
      <trkpt lat="48.53108" lon="7.63313">
        <ele>149.9</ele>
        <time>2013-03-30T17:51:26Z</time>
      </trkpt>
      <trkpt lat="48.53103" lon="7.63326">
        <ele>149.7</ele>
        <time>2013-03-30T17:51:34Z</time>
      </trkpt>
      <trkpt lat="48.53101" lon="7.6334">
        <ele>149.6</ele>
        <time>2013-03-30T17:51:40Z</time>
      </trkpt>
      <trkpt lat="48.53101" lon="7.63354">
        <ele>149.5</ele>
        <time>2013-03-30T17:51:44Z</time>
      </trkpt>
      <trkpt lat="48.53104" lon="7.63369">
        <ele>149.5</ele>
        <time>2013-03-30T17:51:50Z</time>
      </trkpt>
      <trkpt lat="48.53102" lon="7.63383">
        <ele>149.5</ele>
        <time>2013-03-30T17:52:01Z</time>
      </trkpt>
      <trkpt lat="48.53097" lon="7.63397">
        <ele>149.8</ele>
        <time>2013-03-30T17:52:08Z</time>
      </trkpt>
      <trkpt lat="48.53095" lon="7.63412">
        <ele>150.1</ele>
        <time>2013-03-30T17:52:15Z</time>
      </trkpt>
      <trkpt lat="48.53088" lon="7.63423">
        <ele>150.4</ele>
        <time>2013-03-30T17:52:19Z</time>
      </trkpt>
      <trkpt lat="48.53086" lon="7.63437">
        <ele>150.6</ele>
        <time>2013-03-30T17:52:27Z</time>
      </trkpt>
      <trkpt lat="48.53089" lon="7.63451">
        <ele>150.9</ele>
        <time>2013-03-30T17:52:38Z</time>
      </trkpt>
      <trkpt lat="48.53088" lon="7.63465">
        <ele>151.1</ele>
        <time>2013-03-30T17:52:44Z</time>
      </trkpt>
      <trkpt lat="48.53087" lon="7.63479">
        <ele>151.3</ele>
        <time>2013-03-30T17:52:51Z</time>
      </trkpt>
      <trkpt lat="48.53086" lon="7.63493">
        <ele>151.4</ele>
        <time>2013-03-30T17:52:55Z</time>
      </trkpt>
      <trkpt lat="48.53085" lon="7.63508">
        <ele>151.5</ele>
        <time>2013-03-30T17:52:59Z</time>
      </trkpt>
      <trkpt lat="48.53082" lon="7.63523">
        <ele>151.5</ele>
        <time>2013-03-30T17:53:05Z</time>
      </trkpt>
      <trkpt lat="48.53075" lon="7.63534">
        <ele>151.6</ele>
        <time>2013-03-30T17:53:13Z</time>
      </trkpt>
      <trkpt lat="48.53075" lon="7.63548">
        <ele>151.5</ele>
        <time>2013-03-30T17:53:23Z</time>
      </trkpt>
      <trkpt lat="48.53075" lon="7.63561">
        <ele>151.5</ele>
        <time>2013-03-30T17:53:31Z</time>
      </trkpt>
      <trkpt lat="48.53073" lon="7.63576">
        <ele>151.2</ele>
        <time>2013-03-30T17:53:37Z</time>
      </trkpt>
      <trkpt lat="48.5307" lon="7.63591">
        <ele>150.9</ele>
        <time>2013-03-30T17:53:45Z</time>
      </trkpt>
      <trkpt lat="48.53067" lon="7.63605">
        <ele>150.6</ele>
        <time>2013-03-30T17:53:51Z</time>
      </trkpt>
      <trkpt lat="48.53068" lon="7.63619">
        <ele>150.4</ele>
        <time>2013-03-30T17:53:57Z</time>
      </trkpt>
      <trkpt lat="48.53069" lon="7.63633">
        <ele>150.1</ele>
        <time>2013-03-30T17:54:04Z</time>
      </trkpt>
      <trkpt lat="48.53067" lon="7.63647">
        <ele>149.9</ele>
        <time>2013-03-30T17:54:09Z</time>
      </trkpt>
      <trkpt lat="48.53067" lon="7.63661">
        <ele>149.7</ele>
        <time>2013-03-30T17:54:14Z</time>
      </trkpt>
      <trkpt lat="48.5307" lon="7.63674">
        <ele>149.5</ele>
        <time>2013-03-30T17:54:20Z</time>
      </trkpt>
      <trkpt lat="48.53078" lon="7.63683">
        <ele>149.4</ele>
        <time>2013-03-30T17:54:26Z</time>
      </trkpt>
      <trkpt lat="48.53087" lon="7.6369">
        <ele>149.4</ele>
        <time>2013-03-30T17:54:32Z</time>
      </trkpt>
      <trkpt lat="48.53096" lon="7.63698">
        <ele>149.3</ele>
        <time>2013-03-30T17:54:41Z</time>
      </trkpt>
      <trkpt lat="48.53105" lon="7.63703">
        <ele>149.4</ele>
        <time>2013-03-30T17:54:48Z</time>
      </trkpt>
      <trkpt lat="48.53114" lon="7.63708">
        <ele>149.5</ele>
        <time>2013-03-30T17:54:54Z</time>
      </trkpt>
      <trkpt lat="48.53124" lon="7.63713">
        <ele>149.5</ele>
        <time>2013-03-30T17:55:00Z</time>
      </trkpt>
      <trkpt lat="48.53133" lon="7.63719">
        <ele>149.6</ele>
        <time>2013-03-30T17:55:06Z</time>
      </trkpt>
      <trkpt lat="48.53141" lon="7.63727">
        <ele>149.7</ele>
        <time>2013-03-30T17:55:16Z</time>
      </trkpt>
      <trkpt lat="48.53151" lon="7.63733">
        <ele>149.8</ele>
        <time>2013-03-30T17:55:24Z</time>
      </trkpt>
      <trkpt lat="48.53158" lon="7.63743">
        <ele>149.9</ele>
        <time>2013-03-30T17:55:29Z</time>
      </trkpt>
      <trkpt lat="48.53166" lon="7.6375">
        <ele>150</ele>
        <time>2013-03-30T17:55:35Z</time>
      </trkpt>
      <trkpt lat="48.53176" lon="7.63756">
        <ele>150</ele>
        <time>2013-03-30T17:55:41Z</time>
      </trkpt>
      <trkpt lat="48.53186" lon="7.63761">
        <ele>149.8</ele>
        <time>2013-03-30T17:55:47Z</time>
      </trkpt>
      <trkpt lat="48.53194" lon="7.63766">
        <ele>149.7</ele>
        <time>2013-03-30T17:55:52Z</time>
      </trkpt>
      <trkpt lat="48.53202" lon="7.63774">
        <ele>149.6</ele>
        <time>2013-03-30T17:56:00Z</time>
      </trkpt>
      <trkpt lat="48.53199" lon="7.63789">
        <ele>149.5</ele>
        <time>2013-03-30T17:56:06Z</time>
      </trkpt>
      <trkpt lat="48.53194" lon="7.63801">
        <ele>149.5</ele>
        <time>2013-03-30T17:56:10Z</time>
      </trkpt>
      <trkpt lat="48.53193" lon="7.63817">
        <ele>149.3</ele>
        <time>2013-03-30T17:56:17Z</time>
      </trkpt>
      <trkpt lat="48.53193" lon="7.63833">
        <ele>149.1</ele>
        <time>2013-03-30T17:56:25Z</time>
      </trkpt>
      <trkpt lat="48.53191" lon="7.63847">
        <ele>148.9</ele>
        <time>2013-03-30T17:56:31Z</time>
      </trkpt>
      <trkpt lat="48.53188" lon="7.63862">
        <ele>148.7</ele>
        <time>2013-03-30T17:56:38Z</time>
      </trkpt>
      <trkpt lat="48.53183" lon="7.63875">
        <ele>148.5</ele>
        <time>2013-03-30T17:56:43Z</time>
      </trkpt>
      <trkpt lat="48.53182" lon="7.63889">
        <ele>148.5</ele>
        <time>2013-03-30T17:56:47Z</time>
      </trkpt>
      <trkpt lat="48.53181" lon="7.63903">
        <ele>148.2</ele>
        <time>2013-03-30T17:56:53Z</time>
      </trkpt>
      <trkpt lat="48.53181" lon="7.63918">
        <ele>147.9</ele>
        <time>2013-03-30T17:57:00Z</time>
      </trkpt>
      <trkpt lat="48.53179" lon="7.63933">
        <ele>147.6</ele>
        <time>2013-03-30T17:57:06Z</time>
      </trkpt>
      <trkpt lat="48.53176" lon="7.63947">
        <ele>147.4</ele>
        <time>2013-03-30T17:57:13Z</time>
      </trkpt>
      <trkpt lat="48.53174" lon="7.63962">
        <ele>147.1</ele>
        <time>2013-03-30T17:57:18Z</time>
      </trkpt>
      <trkpt lat="48.53173" lon="7.63976">
        <ele>146.9</ele>
        <time>2013-03-30T17:57:27Z</time>
      </trkpt>
      <trkpt lat="48.53173" lon="7.63991">
        <ele>146.7</ele>
        <time>2013-03-30T17:57:33Z</time>
      </trkpt>
      <trkpt lat="48.53171" lon="7.64007">
        <ele>146.5</ele>
        <time>2013-03-30T17:57:39Z</time>
      </trkpt>
      <trkpt lat="48.53168" lon="7.64022">
        <ele>146.4</ele>
        <time>2013-03-30T17:57:44Z</time>
      </trkpt>
      <trkpt lat="48.53166" lon="7.64037">
        <ele>146.2</ele>
        <time>2013-03-30T17:57:49Z</time>
      </trkpt>
      <trkpt lat="48.53164" lon="7.64051">
        <ele>146</ele>
        <time>2013-03-30T17:57:55Z</time>
      </trkpt>
      <trkpt lat="48.53161" lon="7.64064">
        <ele>146.2</ele>
        <time>2013-03-30T17:58:00Z</time>
      </trkpt>
      <trkpt lat="48.5316" lon="7.64079">
        <ele>146.4</ele>
        <time>2013-03-30T17:58:08Z</time>
      </trkpt>
      <trkpt lat="48.53159" lon="7.64094">
        <ele>146.5</ele>
        <time>2013-03-30T17:58:18Z</time>
      </trkpt>
      <trkpt lat="48.53158" lon="7.64108">
        <ele>146.7</ele>
        <time>2013-03-30T17:58:25Z</time>
      </trkpt>
      <trkpt lat="48.53157" lon="7.64121">
        <ele>146.9</ele>
        <time>2013-03-30T17:58:34Z</time>
      </trkpt>
      <trkpt lat="48.53157" lon="7.64137">
        <ele>147.1</ele>
        <time>2013-03-30T17:58:40Z</time>
      </trkpt>
      <trkpt lat="48.53156" lon="7.64151">
        <ele>147.3</ele>
        <time>2013-03-30T17:58:49Z</time>
      </trkpt>
      <trkpt lat="48.53166" lon="7.64154">
        <ele>147.4</ele>
        <time>2013-03-30T17:58:55Z</time>
      </trkpt>
      <trkpt lat="48.53176" lon="7.64158">
        <ele>147.6</ele>
        <time>2013-03-30T17:59:03Z</time>
      </trkpt>
      <trkpt lat="48.53186" lon="7.64158">
        <ele>147.8</ele>
        <time>2013-03-30T17:59:12Z</time>
      </trkpt>
      <trkpt lat="48.53195" lon="7.64154">
        <ele>148</ele>
        <time>2013-03-30T17:59:21Z</time>
      </trkpt>
      <trkpt lat="48.53195" lon="7.64154">
        <ele>148</ele>
        <time>2013-03-30T17:59:21Z</time>
      </trkpt>
    </trkseg>
  </trk>
</gpx>